[[{"header":{"parameterUnit":"m.s-1","parameterCategory":1,"la1":30.6,"la2":28.766,"lo1":-90.7593,"lo2":-88.6598,"dy":0.0162,"dx":0.0183,"nx":116,"ny":114,"refTime":"2023-08-20T18:00:00:Z","depth":0,"parameterNumber":2,"parameterNumberName":"U-component_of_WINDS"},"data":[0.0,0.0,0.0,0.0,0.0,0.0,0.0,0.0,0.0,0.0,0.0,0.0,0.0,0.0,0.0,0.0,0.0,0.0,0.0,0.0,0.0,0.0,0.0,0.0,0.0,0.0,0.0,0.0,0.0,0.0,0.0,0.0,0.0,0.0,0.0,0.0,0.0,0.0,0.0,0.0,0.0,0.0,0.0,0.0,0.0,0.0,0.0,0.0,0.0,0.0,0.0,0.0,0.0,0.0,0.0,0.0,0.0,0.0,0.0,0.0,0.0,0.0,0.0,0.0,0.0,0.0,0.0,0.0,0.0,0.0,0.0,0.0,0.0,0.0,0.0,0.0,0.0,0.0,0.0,0.0,0.0,0.0,0.0,0.0,0.0,0.0,0.0,0.0,0.0,0.0,0.0,0.0,0.0,0.0,0.0,0.0,0.0,0.0,0.0,0.0,0.0,0.0,0.0,0.0,0.0,0.0,0.0,0.0,0.0,0.0,0.0,0.0,0.0,0.0,0.0,0.0,0.0,0.0,0.0,0.0,0.0,0.0,0.0,0.0,0.0,0.0,0.0,0.0,0.0,0.0,0.0,0.0,0.0,0.0,0.0,0.0,0.0,0.0,0.0,0.0,0.0,0.0,0.0,0.0,0.0,0.0,0.0,0.0,0.0,0.0,0.0,0.0,0.0,0.0,0.0,0.0,0.0,0.0,0.0,0.0,0.0,0.0,0.0,0.0,0.0,0.0,0.0,0.0,0.0,0.0,0.0,0.0,0.0,0.0,0.0,0.0,0.0,0.0,0.0,0.0,0.0,0.0,0.0,0.0,0.0,0.0,0.0,0.0,0.0,0.0,0.0,0.0,0.0,0.0,0.0,0.0,0.0,0.0,0.0,0.0,0.0,0.0,0.0,0.0,0.0,0.0,0.0,0.0,0.0,0.0,0.0,0.0,0.0,0.0,0.0,0.0,0.0,0.0,0.0,0.0,0.0,0.0,0.0,0.0,0.0,0.0,0.0,0.0,0.0,0.0,0.0,0.0,0.0,0.0,0.0,0.0,0.0,0.0,0.0,0.0,0.0,0.0,0.0,0.0,0.0,0.0,0.0,0.0,0.0,0.0,0.0,0.0,0.0,0.0,0.0,0.0,0.0,0.0,0.0,0.0,0.0,0.0,0.0,0.0,0.0,0.0,0.0,0.0,0.0,0.0,0.0,0.0,0.0,0.0,0.0,0.0,0.0,0.0,0.0,0.0,0.0,0.0,0.0,0.0,0.0,0.0,0.0,0.0,0.0,0.0,0.0,0.0,0.0,0.0,0.0,0.0,0.0,0.0,0.0,0.0,0.0,0.0,0.0,0.0,0.0,0.0,0.0,0.0,0.0,0.0,0.0,0.0,0.0,0.0,0.0,0.0,0.0,0.0,0.0,0.0,0.0,0.0,0.0,0.0,0.0,0.0,0.0,0.0,0.0,0.0,0.0,0.0,0.0,0.0,0.0,0.0,0.0,0.0,0.0,0.0,0.0,0.0,0.0,0.0,0.0,0.0,0.0,0.0,0.0,0.0,0.0,0.0,0.0,0.0,0.0,0.0,0.0,0.0,0.0,0.0,0.0,0.0,0.0,0.0,0.0,0.0,0.0,0.0,0.0,0.0,0.0,0.0,0.0,0.0,0.0,0.0,0.0,0.0,0.0,0.0,0.0,0.0,0.0,0.0,0.0,0.0,0.0,0.0,0.0,0.0,0.0,0.0,0.0,0.0,0.0,0.0,0.0,0.0,0.0,0.0,0.0,0.0,0.0,0.0,0.0,0.0,0.0,0.0,0.0,0.0,0.0,0.0,0.0,0.0,0.0,0.0,0.0,0.0,0.0,0.0,0.0,0.0,0.0,0.0,0.0,0.0,0.0,0.0,0.0,0.0,0.0,0.0,0.0,0.0,0.0,0.0,0.0,0.0,0.0,0.0,0.0,0.0,0.0,0.0,0.0,0.0,0.0,0.0,0.0,0.0,0.0,0.0,0.0,0.0,0.0,0.0,0.0,0.0,0.0,0.0,0.0,0.0,0.0,0.0,0.0,0.0,0.0,0.0,0.0,0.0,0.0,0.0,0.0,0.0,0.0,0.0,0.0,0.0,0.0,0.0,0.0,0.0,0.0,0.0,0.0,0.0,0.0,0.0,0.0,0.0,0.0,0.0,0.0,0.0,0.0,0.0,0.0,0.0,0.0,0.0,0.0,0.0,0.0,0.0,0.0,0.0,0.0,0.0,0.0,0.0,0.0,0.0,0.0,0.0,0.0,0.0,0.0,0.0,0.0,0.0,0.0,0.0,0.0,0.0,0.0,0.0,0.0,0.0,0.0,0.0,0.0,0.0,0.0,0.0,0.0,0.0,0.0,0.0,0.0,0.0,0.0,0.0,0.0,0.0,0.0,0.0,0.0,0.0,0.0,0.0,0.0,0.0,0.0,0.0,0.0,0.0,0.0,0.0,0.0,0.0,0.0,0.0,0.0,0.0,0.0,0.0,0.0,0.0,0.0,0.0,0.0,0.0,0.0,0.0,0.0,0.0,0.0,0.0,0.0,0.0,0.0,0.0,0.0,0.0,0.0,0.0,0.0,0.0,0.0,0.0,0.0,0.0,0.0,0.0,0.0,0.0,0.0,0.0,0.0,0.0,0.0,0.0,0.0,0.0,0.0,0.0,0.0,0.0,0.0,0.0,0.0,0.0,0.0,0.0,0.0,0.0,0.0,0.0,0.0,0.0,0.0,0.0,0.0,0.0,0.0,0.0,0.0,0.0,0.0,0.0,0.0,0.0,0.0,0.0,0.0,0.0,0.0,0.0,0.0,0.0,0.0,0.0,0.0,0.0,0.0,0.0,0.0,0.0,0.0,0.0,0.0,0.0,0.0,0.0,0.0,0.0,0.0,0.0,0.0,0.0,0.0,0.0,0.0,0.0,0.0,0.0,0.0,0.0,0.0,0.0,0.0,0.0,0.0,0.0,0.0,0.0,0.0,0.0,0.0,0.0,0.0,0.0,0.0,0.0,0.0,0.0,0.0,0.0,0.0,0.0,0.0,0.0,0.0,0.0,0.0,0.0,0.0,0.0,0.0,0.0,0.0,0.0,0.0,0.0,0.0,0.0,0.0,0.0,0.0,0.0,0.0,0.0,0.0,0.0,0.0,0.0,0.0,0.0,0.0,0.0,0.0,0.0,0.0,0.0,0.0,0.0,0.0,0.0,0.0,0.0,0.0,0.0,0.0,0.0,0.0,0.0,0.0,0.0,0.0,0.0,0.0,0.0,0.0,0.0,0.0,0.0,0.0,0.0,0.0,0.0,0.0,0.0,0.0,0.0,0.0,0.0,0.0,0.0,0.0,0.0,0.0,0.0,0.0,0.0,0.0,0.0,0.0,0.0,0.0,0.0,0.0,0.0,0.0,0.0,0.0,0.0,0.0,0.0,0.0,0.0,0.0,0.0,0.0,0.0,0.0,0.0,0.0,0.0,0.0,0.0,0.0,0.0,0.0,0.0,0.0,0.0,0.0,0.0,0.0,0.0,0.0,0.0,0.0,0.0,0.0,0.0,0.0,0.0,0.0,0.0,0.0,0.0,0.0,0.0,0.0,0.0,0.0,0.0,0.0,0.0,0.0,0.0,0.0,0.0,0.0,0.0,0.0,0.0,0.0,0.0,0.0,0.0,0.0,0.0,0.0,0.0,0.0,0.0,0.0,0.0,0.0,0.0,0.0,0.0,0.0,0.0,0.0,0.0,0.0,0.0,0.0,0.0,0.0,0.0,0.0,0.0,0.0,0.0,0.0,0.0,0.0,0.0,0.0,0.0,0.0,0.0,0.0,0.0,0.0,0.0,0.0,0.0,0.0,0.0,0.0,0.0,0.0,0.0,0.0,0.0,0.0,0.0,0.0,0.0,0.0,0.0,0.0,0.0,0.0,0.0,0.0,0.0,0.0,0.0,0.0,0.0,0.0,0.0,0.0,0.0,0.0,0.0,0.0,0.0,0.0,0.0,0.0,0.0,0.0,0.0,0.0,0.0,0.0,0.0,0.0,0.0,0.0,0.0,0.0,0.0,0.0,0.0,0.0,0.0,0.0,0.0,0.0,0.0,0.0,0.0,0.0,0.0,0.0,0.0,0.0,0.0,0.0,0.0,0.0,0.0,0.0,0.0,0.0,0.0,0.0,0.0,0.0,0.0,0.0,0.0,0.0,0.0,0.0,0.0,0.0,0.0,0.0,0.0,0.0,0.0,0.0,0.0,0.0,0.0,0.0,0.0,0.0,0.0,0.0,0.0,0.0,0.0,0.0,0.0,0.0,0.0,0.0,0.0,0.0,0.0,0.0,0.0,0.0,0.0,0.0,0.0,0.0,0.0,0.0,0.0,0.0,0.0,0.0,0.0,0.0,0.0,0.0,0.0,0.0,0.0,0.0,0.0,0.0,0.0,0.0,0.0,0.0,0.0,0.0,0.0,0.0,0.0,0.0,0.0,0.0,0.0,0.0,0.0,0.0,0.0,0.0,0.0,0.0,0.0,0.0,0.0,0.0,0.0,0.0,0.0,0.0,0.0,0.0,0.0,0.0,0.0,0.0,0.0,0.0,0.0,0.0,0.0,0.0,0.0,0.0,0.0,0.0,0.0,0.0,0.0,0.0,0.0,0.0,0.0,0.0,0.0,0.0,0.0,0.0,0.0,0.0,0.0,0.0,0.0,0.0,0.0,0.0,0.0,0.0,0.0,0.0,0.0,0.0,0.0,0.0,0.0,0.0,0.0,0.0,0.0,0.0,0.0,0.0,0.0,0.0,0.0,0.0,0.0,0.0,0.0,0.0,0.0,0.0,0.0,0.0,0.0,0.0,0.0,0.0,0.0,0.0,0.0,0.0,0.0,0.0,0.0,0.0,0.0,0.0,0.0,0.0,0.0,0.0,0.0,0.0,0.0,0.0,0.0,0.0,0.0,0.0,0.0,0.0,0.0,0.0,0.0,0.0,0.0,0.0,0.0,0.0,0.0,0.0,0.0,0.0,0.0,0.0,0.0,0.0,0.0,0.0,0.0,0.0,0.0,0.0,0.0,0.0,0.0,0.0,0.0,0.0,0.0,0.0,0.0,0.0,0.0,0.0,0.0,0.0,0.0,0.0,0.0,0.0,0.0,0.0,0.0,0.0,0.0,0.0,0.0,0.0,0.0,0.0,0.0,0.0,0.0,0.0,0.0,0.0,0.0,0.0,0.0,0.0,0.0,0.0,0.0,0.0,0.0,0.0,0.0,0.0,0.0,0.0,0.0,0.0,0.0,0.0,0.0,0.0,0.0,0.0,0.0,0.0,0.0,0.0,0.0,0.0,0.0,0.0,0.0,0.0,0.0,0.0,0.0,0.0,0.0,0.0,0.0,0.0,0.0,0.0,0.0,0.0,0.0,0.0,0.0,0.0,0.0,0.0,0.0,0.0,0.0,0.0,0.0,0.0,0.0,0.0,0.0,0.0,0.0,0.0,0.0,0.0,0.0,0.0,0.0,0.0,0.0,0.0,0.0,0.0,0.0,0.0,0.0,0.0,0.0,0.0,0.0,0.0,0.0,0.0,0.0,0.0,0.0,0.0,0.0,0.0,0.0,0.0,0.0,0.0,0.0,0.0,0.0,0.0,0.0,0.0,0.0,0.0,0.0,0.0,0.0,0.0,0.0,0.0,0.0,0.0,0.0,0.0,0.0,0.0,0.0,0.0,0.0,0.0,0.0,0.0,0.0,0.0,0.0,0.0,0.0,0.0,0.0,0.0,0.0,0.0,0.0,0.0,0.0,0.0,0.0,0.0,0.0,0.0,0.0,0.0,0.0,0.0,0.0,0.0,0.0,0.0,0.0,0.0,0.0,0.0,0.0,0.0,0.0,0.0,0.0,0.0,0.0,0.0,0.0,0.0,0.0,0.0,0.0,0.0,0.0,0.0,0.0,0.0,0.0,0.0,0.0,0.0,0.0,0.0,0.0,0.0,0.0,0.0,0.0,0.0,0.0,0.0,0.0,0.0,0.0,0.0,0.0,0.0,0.0,0.0,0.0,0.0,0.0,0.0,0.0,0.0,0.0,0.0,0.0,0.0,0.0,0.0,0.0,1.1247,0.0,0.0,0.0,0.0,0.0,0.0,0.0,0.0,0.0,0.0,0.0,0.0,0.0,0.0,0.0,0.0,0.0,0.0,0.0,0.0,0.0,0.0,0.0,0.0,0.0,0.0,0.0,0.0,0.0,0.0,0.0,0.0,0.0,0.0,0.0,0.0,0.0,0.0,0.0,1.5912,1.6983,1.8254,1.8376,1.7877,1.6844,0.0,0.0,0.0,0.0,0.0,0.0,0.0,0.0,0.0,0.0,0.0,0.0,0.0,0.0,0.0,0.0,0.0,0.0,0.0,0.0,0.0,0.0,0.0,0.0,0.0,0.0,0.0,0.0,0.0,0.0,0.0,0.0,0.0,0.0,0.0,0.0,0.0,0.0,0.0,0.0,0.0,0.0,0.0,0.0,0.0,0.0,0.0,0.0,0.0,0.0,0.0,0.0,0.0,0.0,0.0,0.0,0.0,0.0,0.0,0.0,0.0,0.0,0.0,0.0,0.0,0.0,0.0,0.0,0.0,0.0,0.0,0.9844,0.0,0.0,0.0,0.0,0.0,0.0,0.0,0.0,0.0,0.0,0.0,0.0,0.0,0.0,0.0,0.0,0.0,0.0,0.0,0.0,0.0,0.0,0.0,0.0,0.0,0.0,0.0,0.0,0.0,0.0,0.0,0.0,0.0,0.0,0.0,0.0,0.0,0.0,1.7284,1.8709,2.0544,2.0837,2.0422,1.9367,1.794,0.0,0.0,0.0,0.0,0.0,0.0,0.0,0.0,0.0,0.0,0.0,0.0,0.0,0.0,0.0,0.0,0.0,0.0,0.0,0.0,0.0,0.0,0.0,0.0,0.0,0.0,0.0,0.0,0.0,0.0,0.0,0.0,0.0,0.0,0.0,0.0,0.0,0.0,0.0,0.0,0.0,0.0,0.0,0.0,0.0,0.0,0.0,0.0,0.0,0.0,0.0,0.0,0.0,0.0,0.0,0.0,0.0,0.0,0.0,0.0,0.0,0.0,0.0,1.7794,1.8031,1.7805,1.5542,1.434,1.3897,1.1271,0.9961,0.9685,0.8911,0.0,0.0,0.0,0.0,0.0,0.0,0.0,0.0,0.0,0.0,0.0,0.0,0.0,0.0,0.0,0.0,0.0,0.0,0.0,0.0,0.0,0.0,0.0,0.0,0.0,0.0,0.0,0.0,0.0,0.0,0.0,0.0,0.0,1.4482,1.5354,1.6732,1.9359,2.1492,2.3112,2.3375,2.3818,2.4227,2.0765,1.8939,1.8384,0.0,0.0,0.0,0.0,0.0,0.0,0.0,0.0,0.0,0.0,0.0,0.0,0.0,0.0,0.0,0.0,0.0,0.0,0.0,0.0,0.0,0.0,0.0,0.0,0.0,0.0,0.0,0.0,0.0,0.0,0.0,0.0,0.0,0.0,0.0,0.0,0.0,0.0,0.0,0.0,0.0,1.3262,1.3568,0.0,0.0,0.0,0.0,0.0,0.0,0.0,0.0,0.0,0.0,0.0,0.0,0.0,1.7083,1.8055,2.0167,2.0749,1.9817,2.2131,2.2846,2.1986,1.8818,1.7215,1.674,1.328,0.0,0.9403,0.8776,0.0,0.0,0.0,0.0,0.0,0.0,0.0,0.0,0.0,0.0,0.0,0.0,0.0,0.0,0.0,0.0,0.0,0.0,0.0,0.0,0.0,0.0,0.0,0.0,0.0,0.0,0.0,0.0,0.0,0.0,0.0,0.0,1.4955,1.5785,1.7476,1.999,2.2343,2.42,2.5513,2.5906,2.6263,2.657,2.4901,2.2804,2.0483,1.9727,0.0,0.0,0.0,0.0,0.0,0.0,0.0,0.0,0.0,0.0,0.0,0.0,0.0,0.0,0.0,0.0,0.0,0.0,0.0,0.0,0.0,0.0,0.0,0.0,0.0,0.0,0.0,0.0,0.0,0.0,0.0,0.0,0.0,0.0,0.0,0.0,0.0,0.0,0.0,1.1885,1.2323,1.0559,1.1517,1.1664,0.0,0.0,0.0,0.0,0.0,0.0,0.0,0.0,0.0,1.797,1.8506,1.964,2.1468,2.2653,2.3241,2.3235,2.438,2.4217,2.2817,2.0205,1.8242,1.6724,1.3931,1.2233,1.1333,0.9961,0.8741,0.7673,0.0,0.0,0.0,0.0,0.815,0.831,0.0,0.0,0.0,0.0,0.0,0.0,0.0,0.0,0.0,0.0,0.0,0.0,0.0,0.0,0.0,2.1427,0.0,0.0,0.0,0.0,0.0,0.0,0.0,1.6315,1.6566,1.8274,2.06,2.355,2.5465,2.6947,2.8008,2.8457,2.8738,2.8855,2.8855,2.6722,2.3082,2.2481,2.0752,1.8264,0.0,0.0,0.0,0.0,0.0,0.0,0.0,0.0,0.0,0.0,0.0,0.0,0.0,0.0,0.0,0.0,0.0,0.0,0.0,0.0,0.0,0.0,0.0,0.0,0.0,0.0,0.0,0.0,0.0,0.0,0.0,0.0,0.0,0.0,0.0,0.0,0.0,1.2227,1.2544,0.9445,1.1537,1.2144,0.0,0.0,0.0,0.0,0.0,0.0,1.5648,1.6011,1.7288,1.9691,1.9848,2.0942,2.3101,2.3448,2.392,2.4526,2.4532,2.3884,2.256,2.0433,1.8476,1.6668,1.443,1.3397,1.3085,1.1332,1.007,0.9204,0.8877,0.858,0.8437,0.9207,0.9431,0.9508,0.0,0.0,0.0,0.0,0.0,0.0,0.0,0.0,0.0,0.0,0.0,1.8151,0.0,0.0,2.2781,2.4,2.3527,2.3045,0.0,0.0,0.0,1.9707,1.7802,1.7435,1.8897,2.1977,2.45,2.6405,2.8396,2.9844,3.0703,3.1133,3.1543,3.1964,3.1964,3.0016,2.6648,2.51,2.3685,2.2276,1.9586,0.0,0.0,0.0,0.0,0.0,0.0,0.0,0.0,0.0,0.0,0.0,0.0,0.0,0.0,0.0,0.0,0.0,0.0,0.0,0.0,0.0,0.0,0.0,0.0,0.0,0.0,0.0,0.0,0.0,0.0,0.0,0.0,0.0,0.0,0.0,0.0,0.0,0.0,1.4359,1.5576,0.0,0.0,0.0,0.0,0.9914,1.0595,1.1267,1.1773,1.3535,1.5377,1.7212,1.91,2.0482,2.1333,2.1775,2.1995,2.1901,2.1892,2.1913,2.1866,1.9392,1.8144,1.7789,1.5308,1.4075,1.366,1.2501,1.1463,1.0645,1.0185,0.961,0.9149,1.0035,1.0484,1.0843,0.0,0.0,0.0,0.0,0.0,0.0,0.0,0.0,0.0,1.6464,1.7988,2.0039,2.2686,2.4307,2.5881,2.7576,2.7458,2.6846,2.577,0.0,0.0,2.1049,1.9979,2.0424,2.2545,2.4663,2.6956,2.9389,3.0898,3.1953,3.2519,3.2676,3.2832,3.2969,3.2969,3.2277,3.0969,2.8774,2.665,2.4579,2.2139,1.9312,0.0,0.0,0.0,0.0,0.0,0.0,0.0,0.0,0.0,0.0,0.0,0.0,0.0,0.0,0.0,0.0,0.0,0.0,0.0,0.0,0.0,0.0,0.0,0.0,0.0,0.0,0.0,0.0,0.0,0.0,0.0,0.0,0.0,0.0,0.0,0.0,0.0,1.4562,1.6575,0.0,1.1985,1.1614,1.2228,1.3526,1.4248,1.5479,1.7366,1.8511,1.9519,2.0421,2.1274,2.1726,2.1777,2.203,2.2106,2.1977,2.1944,2.1214,1.983,1.894,1.7686,1.6167,1.525,1.4753,1.4536,1.4109,1.3284,1.2168,1.1784,1.1543,1.1482,1.1921,1.2226,1.252,0.0,0.0,0.0,0.0,0.0,0.0,0.0,0.0,0.0,1.7569,1.9661,2.2274,2.5534,2.7481,2.9266,3.0976,3.0595,2.9666,2.8297,0.0,2.3971,2.2644,2.2414,2.3372,2.5569,2.7603,2.9776,3.2168,3.3184,3.3887,3.4264,3.416,3.416,3.4264,3.4264,3.4264,3.4128,3.2148,2.988,2.7389,2.5032,2.2198,1.9104,0.0,0.0,0.0,0.0,0.0,0.0,0.0,0.0,0.0,0.0,0.0,0.0,0.0,0.0,0.0,0.0,0.0,0.0,0.0,0.0,0.0,0.0,0.0,0.0,0.0,0.0,0.0,0.0,0.0,0.0,0.0,0.0,0.0,0.0,1.6354,1.7638,1.4229,1.6608,1.6854,1.2724,1.2681,1.366,1.5409,1.603,1.7173,1.9124,1.9586,1.998,2.032,2.0448,2.0386,2.0193,2.0254,2.0254,2.0193,2.0108,1.9285,1.7882,1.7827,1.6887,1.5337,1.5337,1.5221,1.5085,1.5085,1.4561,1.3724,1.3376,1.3349,1.3498,1.3642,1.3806,1.3933,0.0,0.0,0.0,0.0,0.0,0.0,0.0,0.0,1.7162,1.8392,2.1596,2.4856,2.7794,3.0567,3.2765,3.4055,3.2519,3.1123,3.0264,2.5761,2.3576,2.4511,2.5039,2.6154,2.7944,3.0783,3.3098,3.4766,3.5234,3.5664,3.6021,3.5644,3.5684,3.604,3.604,3.6006,3.5933,3.5076,3.3253,3.0703,2.8217,2.5551,2.2688,0.0,0.0,0.0,0.0,0.0,0.0,0.0,0.0,0.0,0.0,0.0,0.0,0.0,0.0,0.0,0.0,0.0,0.0,0.0,0.0,0.0,0.0,0.0,0.0,0.0,0.0,0.0,0.0,0.0,0.0,0.0,0.0,0.0,1.1786,1.4343,1.5648,1.3869,1.5944,1.6598,1.4105,1.4306,1.4699,1.5057,1.5438,1.5769,1.611,1.6123,1.6252,1.653,1.6408,1.6402,1.6524,1.6395,1.6388,1.6517,1.6232,1.6171,1.6313,1.6164,1.594,1.5621,1.5621,1.5493,1.5215,1.5215,1.5208,1.5174,1.4869,1.4841,1.5023,1.5023,1.5023,1.4983,0.0,0.0,0.0,0.0,0.0,0.0,0.0,1.6083,1.7511,1.9797,2.3009,2.6478,3.0152,3.2349,3.4095,3.5371,3.3047,3.1079,3.0038,0.0,2.471,2.5555,2.6848,2.889,3.1815,3.3279,3.4707,3.6167,3.6562,3.6836,3.6953,3.6836,3.6992,3.7367,3.7367,3.6685,3.5485,3.5265,3.3625,3.1061,2.8821,2.5586,2.1876,0.0,0.0,0.0,0.0,0.0,0.0,0.0,0.0,0.0,0.0,0.0,0.0,0.0,0.0,0.0,0.0,0.0,0.0,0.0,0.0,0.0,0.0,0.0,0.0,0.0,0.0,0.0,0.0,0.0,0.0,0.0,1.2145,1.374,1.4763,1.7117,1.8287,1.7064,1.7938,1.7828,1.5684,1.5676,1.5988,1.6395,1.6639,1.6849,1.7039,1.7053,1.7039,1.7005,1.6971,1.6863,1.6635,1.6594,1.654,1.6517,1.6435,1.6422,1.6463,1.6422,1.6354,1.6229,1.6229,1.6171,1.5988,1.5879,1.582,1.5677,1.5221,1.5086,1.5173,1.5173,1.5173,1.5099,0.0,0.0,0.0,0.0,0.0,0.0,0.0,1.6508,1.814,2.086,2.422,2.7827,3.1627,3.3594,3.5,3.5903,3.307,3.0596,2.9108,2.6496,2.5595,2.691,2.9103,3.1787,3.4947,3.5879,3.6875,3.8027,3.8066,3.8203,3.8379,3.8184,3.834,3.875,3.875,3.7648,3.5851,3.5652,3.3727,3.0662,2.91,2.6729,2.4029,2.226,2.0345,1.8464,1.744,1.6952,1.6778,1.6217,0.0,0.0,0.0,0.0,0.0,0.0,0.0,0.0,0.0,0.0,0.0,0.0,0.0,0.0,0.0,0.0,0.0,0.0,0.0,0.0,0.0,0.0,0.0,0.0,1.3153,1.4739,1.619,1.7424,1.804,1.7632,1.8012,1.7869,1.6773,1.672,1.6883,1.7148,1.7243,1.7324,1.7412,1.7419,1.7378,1.729,1.729,1.7209,1.698,1.698,1.6932,1.6897,1.6897,1.6897,1.6897,1.6829,1.6768,1.6707,1.6646,1.653,1.6388,1.63,1.6212,0.0,0.0,0.0,0.0,0.0,1.5513,1.5473,0.0,0.0,0.0,0.0,0.0,0.0,0.0,1.7106,1.8797,2.1715,2.5134,2.8687,3.2327,3.4238,3.5276,3.536,3.2313,2.9567,2.7604,2.6272,2.6563,2.8805,3.1793,3.4667,3.7461,3.8301,3.9138,3.9902,3.9492,3.9492,3.9883,3.9473,3.94,3.9621,3.9621,3.8307,3.6033,3.5748,3.338,2.9743,2.912,2.8295,2.7239,2.5146,2.3512,2.2082,2.0513,1.9541,1.8983,1.8388,0.0,0.0,0.0,0.0,0.0,0.0,0.0,0.0,0.0,0.0,0.0,0.0,0.0,0.0,0.0,0.0,0.0,0.0,0.0,0.0,0.0,0.0,0.0,0.0,1.4527,1.59,1.675,1.6585,1.6463,1.6757,1.71,1.7331,1.748,1.748,1.748,1.7494,1.748,1.748,1.7494,0.0,0.0,0.0,0.0,1.7453,1.7473,1.7439,1.7203,1.6873,1.6873,1.6712,1.6375,1.6248,1.6173,1.6038,1.5858,1.5718,1.5584,1.5564,1.5552,1.5539,1.5624,1.5784,1.5928,1.5928,1.5928,1.5867,0.0,0.0,0.0,0.0,0.0,0.0,0.0,1.7095,1.8897,2.2839,2.5245,2.805,3.1899,3.3547,3.3584,3.165,2.9263,2.7215,2.5661,2.6486,2.8764,3.2551,3.5111,3.7202,3.8809,3.9375,3.9726,3.9902,3.9805,3.9805,3.9902,3.9805,3.907,3.7812,3.8024,3.6109,3.2778,3.3148,3.1717,2.9203,2.9297,2.7962,2.5851,2.5178,2.4332,2.3377,2.2775,2.2306,2.1906,2.1332,2.0903,2.0386,1.9007,1.787,0.0,0.0,0.0,0.0,0.0,0.0,0.0,0.0,0.0,0.0,0.0,0.0,0.0,0.0,0.0,0.0,0.0,0.0,0.0,1.3953,1.5592,1.6992,1.7894,1.7893,1.7737,1.7453,1.7629,1.7847,1.7948,1.7846,1.7826,1.7948,1.7846,1.7826,1.7948,1.7846,1.7894,1.8145,1.7737,1.767,1.7772,1.7541,1.622,1.3874,0.0,0.0,1.0232,1.0216,1.016,1.0129,1.0109,1.0053,1.0017,0.9944,0.9768,1.0107,1.4434,1.6123,1.6035,1.6035,1.6035,1.6008,0.0,0.0,0.0,0.0,0.0,0.0,0.0,1.6914,1.8211,2.1016,2.2911,2.4993,2.7546,2.8469,2.8272,2.6645,2.4813,2.4297,2.5626,2.7442,3.0784,3.5978,3.795,3.9414,4.0488,4.0937,4.1055,4.084,4.084,4.084,4.0821,3.9809,3.8967,3.8307,3.7437,3.5434,3.2728,3.3027,3.1823,2.9713,2.986,2.9032,2.7642,2.6934,2.6105,2.5264,2.497,2.4552,2.406,2.3492,2.3082,2.2623,2.1386,2.0291,1.8869,0.0,0.0,0.0,0.0,0.0,0.0,0.0,0.0,0.0,0.0,0.0,0.0,0.0,0.0,1.0664,1.1612,0.0,1.4159,1.5747,1.6949,1.786,1.8464,1.7198,1.6664,1.7914,1.8213,1.8287,1.8213,1.8199,1.8199,1.8199,1.8124,1.8124,1.8199,1.8124,1.7428,1.5964,1.5724,1.4865,1.3389,1.3227,1.2385,1.0937,1.0946,1.0155,0.8713,0.8636,0.8579,0.8597,0.8523,0.8523,0.8482,0.8407,0.8281,0.8417,1.1222,1.3089,1.4199,1.4134,1.4975,1.6164,0.0,0.0,0.0,0.0,0.0,0.0,0.0,0.0,0.0,1.9168,2.0445,2.1703,2.303,2.3195,2.2733,2.1488,2.054,2.1807,2.6051,2.8758,3.2861,3.8854,4.0254,4.125,4.2031,4.2383,4.2422,4.2168,4.171,4.147,4.143,3.9372,3.8366,3.8199,3.6713,3.4937,3.3138,3.3269,3.2267,3.0667,3.0721,3.0488,3.006,2.9088,2.807,2.7174,2.6921,2.6293,2.5558,2.5213,2.4836,2.4322,2.3517,2.2352,2.0625,1.7216,1.6785,0.0,0.0,0.0,0.0,0.0,0.0,0.0,0.0,0.923,0.9013,1.1178,1.1621,1.2161,1.3854,1.4614,1.555,1.7445,1.7636,1.7614,1.7929,1.526,1.4104,1.6483,1.7451,1.8046,1.842,1.8531,1.8511,1.8375,1.8335,1.8044,1.744,1.7376,1.5966,1.2906,1.272,1.1512,0.899,0.8906,0.8609,0.8034,0.8022,0.7715,0.7146,0.7036,0.7035,0.7013,0.6897,0.6848,0.6843,0.6837,0.6782,0.6683,0.667,0.8358,1.0832,1.1788,1.3565,1.5504,0.0,0.0,0.0,0.0,0.0,0.0,0.0,0.0,0.0,2.0115,2.0034,2.03,2.183,2.1744,2.032,1.7173,1.8189,2.0976,2.574,3.0444,3.5399,4.0685,4.1738,4.2441,4.293,4.3029,4.3164,4.3496,4.1333,4.027,4.0228,3.8108,3.6091,3.4272,3.4578,3.3487,3.1482,3.2056,3.1995,3.1591,3.181,3.157,3.0989,3.0648,2.978,2.8708,2.847,2.7308,2.6051,2.6774,2.6253,2.5451,2.5814,2.4201,2.1472,1.8337,1.5942,1.3511,0.9839,0.9168,0.9557,0.9776,1.0062,1.097,0.0,1.3227,1.306,1.458,1.5213,1.5634,1.6091,1.6761,1.7513,1.8278,1.6215,1.4733,1.5072,1.2231,1.0221,1.0563,1.309,1.5869,1.8639,1.8816,1.8674,1.8511,1.8389,1.7105,1.4448,1.4171,1.2803,0.9985,0.9565,0.9328,0.916,0.8976,0.7588,0.4986,0.5001,0.361,0.0975,0.0967,0.0959,0.0951,0.0935,0.0928,0.0927,0.0973,0.0915,0.0914,0.0907,0.2654,0.5708,1.048,1.2405,1.2925,0.0,0.0,0.0,0.0,0.0,0.0,0.0,0.0,0.0,0.0,0.0,1.6339,1.6105,1.5275,1.4179,1.2819,1.6002,2.0439,2.599,3.1223,3.5864,3.973,4.089,4.0725,3.9334,3.9735,4.0011,4.0084,3.9071,3.8651,3.8785,3.6717,3.5365,3.4716,3.3794,3.2976,3.2265,3.2505,3.2545,3.2487,3.2559,3.2358,3.1931,3.1289,2.9832,2.8043,2.721,2.6225,0.0,0.0,2.523,2.5074,2.5028,2.3753,2.1598,1.781,1.6269,1.5291,1.2998,1.1569,1.079,1.0884,1.16,1.2611,1.3944,1.4014,1.4404,1.6205,1.6802,1.7161,1.7724,1.8158,1.7928,1.6501,1.5262,1.3838,1.2096,0.8996,0.756,0.9468,0.9218,1.0013,1.3085,1.5185,1.5443,1.3366,1.4916,1.4618,1.141,1.1163,0.9795,0.6739,0.651,0.5609,0.3859,0.3758,0.3078,0.1887,0.1862,0.1215,0.0,0.0,0.0,0.0,0.0,0.0,0.0,0.0,0.0,0.0,0.0,0.0743,0.2216,0.6061,0.9466,1.2359,0.0,0.0,0.0,0.0,0.0,0.0,0.0,0.0,0.0,0.0,0.0,0.0,0.0,1.0581,1.0029,1.0106,1.4218,1.9279,2.5078,3.0131,3.4484,3.8088,3.9218,3.8976,3.725,3.7715,3.8047,3.8154,3.7475,3.724,3.7402,3.5358,3.4564,3.4857,3.3502,3.3076,3.3227,3.3227,3.3227,3.3227,3.3133,3.2826,3.2305,3.0935,2.8886,2.6682,2.5886,2.4547,0.0,0.0,2.2681,2.2594,2.244,2.1472,1.9724,1.6425,1.4959,1.4285,1.3733,1.2635,1.1777,1.219,1.3398,1.4643,1.5013,1.5308,1.5999,1.7499,1.7893,1.819,1.8782,1.9047,1.8235,1.5211,1.3963,1.2266,0.894,0.5657,0.4404,0.6802,0.5011,0.4397,0.6601,1.0674,1.2108,0.9608,1.1578,1.1531,0.825,0.8088,0.6673,0.3492,0.3397,0.2287,0.0,0.0,0.0,0.0,0.0,0.0,0.0,0.0,0.0,0.0,0.0,0.0,0.0,0.0,0.0,0.0,0.0,0.0,0.0211,0.2161,0.589,1.0125,0.0,0.0,0.0,0.0,0.0,0.0,0.0,0.0,0.0,0.0,0.0,0.0,0.0,1.0055,0.9971,0.9901,1.2965,1.7059,2.2198,2.6336,3.0886,3.6069,3.7022,3.7826,3.8712,3.8761,3.9106,3.9813,3.7425,3.625,3.6217,3.4032,3.3094,3.3121,3.3624,3.3855,3.3855,3.3855,3.3855,3.3828,3.3521,3.2879,3.1862,2.9402,2.7009,2.5025,2.5326,0.0,0.0,1.9512,1.8517,1.7286,1.8106,1.6972,1.5146,1.4154,1.0804,0.78,0.9589,1.0284,1.1104,1.3452,1.5583,1.7196,1.7684,1.8247,1.8687,1.8766,1.8959,1.9169,1.9183,1.9434,1.8581,1.5253,1.2191,0.9082,0.5723,0.2313,0.0184,0.0302,0.0235,0.0173,0.0291,0.601,0.9648,0.9418,0.9484,0.8195,0.4986,0.4814,0.3423,0.025,0.0126,0.0126,0.0,0.0,0.0,0.0,0.0,0.0,0.0,0.0,0.0,0.0,0.0,0.0,0.0,0.0,0.0,0.0,0.0,0.0,0.0,0.0107,0.1884,0.4649,0.0,0.0,0.0,0.0,0.0,0.0,0.0,0.0,0.0,0.0,0.0,0.0,0.0,0.0,0.0,0.0,1.2702,1.6026,2.0016,2.5165,2.8958,3.0931,3.3858,3.4849,3.3504,3.4046,3.4665,3.5298,3.4499,3.4171,3.4316,3.3598,3.3267,3.328,3.348,3.3574,3.3574,3.3574,3.3574,3.3507,3.2826,3.1333,2.9287,2.7147,2.3742,2.0043,0.0,0.0,1.6382,1.6123,1.5835,1.5536,1.5451,1.4792,1.3606,1.1325,1.0266,1.012,1.151,1.2828,1.4249,1.5983,1.737,1.8432,1.8997,1.9223,1.9312,1.9094,1.7813,1.6694,1.646,1.657,1.501,0.9734,0.9364,0.7853,0.2481,0.0754,0.0,0.0,0.0,0.0,0.0,0.5726,0.8607,0.654,0.8286,0.8052,0.4996,0.2748,0.1071,0.0063,0.0,0.0,0.0,0.0,0.0,0.0,0.0,0.0,0.0,0.0,0.0,0.0,0.0,0.0,0.0,0.0,0.0,0.0,0.0,0.0,0.0,0.0,0.0578,0.1755,0.0,0.0,0.0,0.0,0.0,0.0,0.0,0.0,0.0,0.0,0.0,0.0,0.0,0.0,0.0,0.0,0.0,1.4081,1.7176,2.1158,2.3942,2.519,2.7839,2.8697,2.747,2.7915,2.8466,2.917,3.0092,3.073,3.1024,3.2133,3.2625,3.2639,3.2959,3.3106,3.303,3.1848,3.131,3.1104,2.9037,2.709,2.5165,2.2977,1.9843,0.0,0.0,0.0,1.3061,1.283,1.2742,1.2593,1.2035,1.1741,1.1385,1.0143,1.0342,1.1405,1.3445,1.4821,1.6162,1.7947,1.8918,1.9501,1.9888,1.9942,1.9746,1.9237,1.7306,1.5579,1.5165,1.4403,1.2002,0.6429,0.6582,0.5539,0.0186,-0.055,-0.0418,-0.0059,0.0,0.0,0.0,0.4639,0.6398,0.3378,0.4969,0.5211,0.3271,0.113,0.0,0.0,0.0,0.0,0.0,0.0,0.0,0.0,0.0,0.0,0.0,0.0,0.0,0.0,0.0,0.0,0.0,0.0,0.0,0.0,0.0,0.0,0.0,0.0,0.0,0.0261,0.0,0.0,0.0,0.0,0.0,0.0,0.0,0.0,0.0,0.0,0.0,0.0,0.0,0.0,0.0,0.0,0.0,0.0,1.377,1.4741,1.6473,1.9234,1.9679,2.0325,2.1317,2.1118,2.1406,2.227,2.4721,2.6122,2.6435,2.9357,3.0677,3.073,3.166,3.2031,3.182,2.866,2.718,2.6709,2.2718,2.0714,1.9884,1.7351,0.0,0.0,0.0,1.031,0.9368,0.9826,0.9425,0.869,0.8323,0.8333,0.8858,1.0622,1.1016,1.1614,1.5044,1.6169,1.6933,1.9293,2.0227,2.0462,2.0462,2.0334,1.9969,1.899,1.7212,1.5666,1.4979,1.2821,0.9686,0.5307,0.4012,0.2369,-0.095,-0.1504,-0.1142,-0.0118,0.0,0.0,0.0,0.2587,0.3064,0.0232,0.0119,0.0242,0.0244,0.0063,0.0,0.0,0.0,0.0,0.0,0.0,0.0,0.0,0.0,0.0,0.0,0.0,0.0,0.0,0.0,0.0,0.0,0.0,0.0,0.0,0.0,0.0,0.0,0.0,0.0,0.0,0.0,0.0,0.0,0.0,0.0,0.0,0.0,0.0,0.0,0.0,0.0,0.0,0.0,0.0,0.0,0.0,0.0,0.0,1.1278,1.3422,1.4998,1.5841,1.8236,1.9768,2.0292,2.0609,2.1063,2.1627,2.2185,2.2376,2.2259,2.3384,2.3813,2.3695,2.4463,2.4642,2.4333,2.3492,2.2852,2.2268,0.0,1.8689,1.6905,0.0,0.0,0.0,0.0,1.0184,0.9522,0.9437,0.9525,0.9789,1.053,1.0978,1.1511,1.2716,1.3821,1.5001,1.6619,1.7807,1.884,1.9907,2.0295,2.0349,2.0241,1.9922,1.9033,1.6916,1.4333,1.1679,0.9208,0.8207,0.6429,0.2393,0.315,0.3145,0.0062,-0.0373,-0.0308,-0.0061,0.0,0.0,0.0,0.0692,0.081,0.0058,0.2105,0.3456,0.3643,0.1318,0.0,0.0,0.0,0.0,0.0,0.0,0.0,0.0,0.0,0.0,0.0,0.0,0.0,0.0,0.0,0.0,0.0,0.0,0.0,0.0,0.0,0.0,0.0,0.0,0.0,0.0,0.0,0.0,0.0,0.0,0.0,0.0,0.0,0.0,0.0,0.0,0.0,0.0,0.0,0.0,0.0,0.0,0.0,0.0,0.0,1.1372,1.2168,1.2176,1.3799,1.4896,1.5269,1.552,1.579,1.6032,1.7099,1.7398,1.702,1.8871,1.9599,1.941,2.0345,2.0647,2.0354,1.8884,0.0,0.0,0.0,0.0,0.0,0.0,0.0,1.052,1.0711,1.0738,1.0702,1.0951,1.094,1.1008,1.2107,1.2576,1.3002,1.4564,1.5712,1.6775,1.819,1.9247,2.0119,2.0526,2.0526,2.0066,1.8969,1.8451,1.7346,1.3996,1.1479,0.9051,0.6521,0.5073,0.3383,0.0765,0.1197,0.1219,-0.0432,-0.0681,-0.0555,-0.0062,0.0,0.0,0.0,0.0,0.0,0.0,0.1542,0.2569,0.2759,0.0997,0.0,0.0,0.0,0.0,0.0,0.0,0.0,0.0,0.0,0.0,0.0,0.0,0.0,0.0,0.0,0.0,0.0,0.0,0.0,0.0,0.0,0.0,0.0,0.0,0.0,0.0,0.0,0.0,0.0,0.0,0.0,0.0,0.0,0.0,0.0,0.0,0.0,0.0,0.0,0.0,0.0,0.0,0.0,0.0,0.0,0.0,0.9238,0.9124,0.8857,0.8893,0.932,0.9195,0.908,0.9068,1.1272,1.2036,1.1508,1.4699,1.6106,1.5955,1.71,1.7586,1.7432,0.0,0.0,0.0,0.0,0.0,0.0,0.0,0.0,1.0521,1.0928,1.1461,1.2118,1.32,1.3017,1.2526,1.3594,1.3919,1.4279,1.6363,1.7216,1.7884,1.9542,2.0383,2.0824,2.0912,2.0702,1.9752,1.7206,1.6464,1.5087,1.0741,0.8706,0.7159,0.528,0.2927,0.0974,0.0049,-0.083,-0.1384,-0.1325,-0.1322,-0.1025,-0.0125,0.0,0.0,0.0,0.0,0.0,0.0,0.0,0.0,0.0,0.0,0.0,0.0,0.0,0.0,0.0,0.0,0.0,0.0,0.0,0.0,0.0,0.0,0.0,0.0,0.0,0.0,0.0,0.0,0.0,0.0,0.0,0.0,0.0,0.0,0.0,0.0,0.0,0.0,0.0,0.0,0.0,0.0,0.0,0.0,0.0,0.0,1.1093,0.0,0.0,0.0,0.0,0.0,0.0,0.0,0.0,0.0,0.0,0.9256,0.8909,0.8784,0.8989,0.8732,0.8521,0.8292,0.8407,0.811,0.7421,0.846,0.8978,0.9123,0.9884,1.0282,1.0275,0.0,0.0,0.0,0.0,0.0,0.0,0.0,0.0,0.0,1.0855,1.13,1.1952,1.3722,1.4434,1.4808,1.6264,1.7022,1.7639,1.879,1.9374,1.9717,2.0471,2.079,2.0912,2.0618,2.0295,1.9144,1.585,1.4528,1.2608,0.7767,0.6282,0.5082,0.2518,0.1643,0.1024,0.0102,-0.0162,-0.0288,-0.0252,-0.0253,-0.019,0.0,0.0,0.0,0.0,0.0,0.0,0.0,0.0,0.0,0.0,0.0,0.0,0.0,0.0,0.0,0.0,0.0,0.0,0.0,0.0,0.0,0.0,0.0,0.0,0.0,0.0,0.0,0.0,0.0,0.0,0.0,0.0,0.0,0.0,0.0,0.0,0.0,0.0,0.0,0.0,0.0,0.0,0.0,0.0,0.0,0.0,1.199,1.1448,1.0754,0.0,0.0,0.0,0.0,0.0,0.0,0.0,0.0,0.0,0.0,0.0,0.0,0.8587,0.8528,0.8157,0.7435,0.0,0.6593,0.5529,0.6077,0.6273,0.6239,0.7094,0.7488,0.7517,0.7726,0.7641,0.7362,0.7738,0.8276,0.0,0.0,0.0,0.0,1.1347,1.1862,1.2757,1.3387,1.4672,1.6201,1.7751,1.8654,1.9257,1.9922,2.0275,2.0526,2.0892,2.1109,2.1157,2.0858,2.0153,1.8549,1.4821,1.2892,1.0479,0.5477,0.4019,0.3006,0.0993,0.0637,0.0506,0.0049,0.0,0.0,0.0,0.0,0.0,0.0,0.0,0.0,0.0,0.0,0.0,0.0,0.0,0.0,0.0,0.0,0.0,0.0,0.0,0.0,0.0,0.0,0.0,0.0,0.0,0.0,0.0,0.0,0.0,0.0,0.0,0.0,0.0,0.0,0.0,0.0,0.0,0.0,0.0,0.0,0.0,0.0,0.0,0.0,0.0,0.0,0.0,0.0,0.0,1.2358,1.1952,1.2175,1.1756,1.1047,1.0,0.9718,0.955,0.0,0.0,0.0,0.0,0.0,0.0,0.0,0.0,0.0,0.0,0.0,0.0,0.6789,0.671,0.0,0.0,0.0,0.0,0.0,0.6112,0.6548,0.6715,0.705,0.721,0.0,0.0,0.8351,0.0,0.0,0.0,0.0,0.0,1.2195,1.3045,1.2868,1.4159,1.6084,1.761,1.8764,1.9616,1.9925,2.0241,2.0621,2.1057,2.1319,2.1301,2.1034,2.0031,1.803,1.3939,1.1433,0.8584,0.3704,0.2327,0.1574,0.0234,0.0208,0.0313,0.0047,0.0,0.0,0.0,0.0,0.0,0.0,0.0,0.0,0.0,0.0,0.0,0.0,0.0,0.0,0.0,0.0,0.0,0.0,0.0,0.0,0.0,0.0,0.0,0.0,0.0,0.0,0.0,0.0,0.0,0.0,0.0,0.0,0.0,0.0,0.0,0.0,0.0,0.0,0.0,0.0,0.0,0.0,0.0,0.0,0.0,0.0,0.0,0.0,0.0,1.2495,1.1747,1.2777,1.1919,1.0958,1.0233,1.0255,1.0046,0.0,0.0,0.0,0.0,0.0,0.0,0.0,0.0,0.0,0.0,0.0,0.0,0.6715,0.6406,0.0,0.0,0.0,0.0,0.0,0.0,0.6401,0.6964,0.7133,0.0,0.0,0.0,0.0,0.0,0.0,0.0,0.0,0.0,1.1479,1.1551,1.2476,1.2866,1.3261,1.4791,1.6759,1.8536,1.851,1.9041,1.9851,2.0918,2.1319,2.1333,2.0899,1.9848,1.7634,1.3,1.0008,0.7014,0.27,0.1874,0.1536,0.0238,0.0932,0.1359,0.0188,0.0,0.0,0.0,0.0,0.0,0.0,0.0,0.0,0.0,0.0,0.0,0.0,0.0,0.0,0.0,0.0,0.0,0.0,0.0,0.0,0.0,0.0,0.0,0.0,0.0,0.0,0.0,0.0,0.0,0.0,0.0,0.0,0.0,0.0,0.0,0.0,0.0,0.0,0.0,0.0,0.0,0.0,0.0,0.0,0.0,0.0,0.0,0.0,0.0,1.2416,1.1847,1.2879,1.2267,1.1476,1.0768,1.0737,1.0293,0.0,0.0,0.0,0.0,0.0,0.0,0.0,0.0,0.0,0.0,0.0,0.768,0.6993,0.6538,0.0,0.0,0.0,0.0,0.0,0.0,0.6311,0.6664,0.6948,0.0,0.0,0.0,0.0,0.0,0.0,0.0,0.0,0.0,0.0,1.1009,1.0891,1.1457,1.2132,1.1766,1.314,1.531,1.7509,1.8628,1.9378,2.0817,2.1387,2.1475,2.1021,1.9126,1.6604,1.3717,1.0297,0.7044,0.4514,0.3473,0.288,0.2377,0.2065,0.1521,0.0438,-0.0352,-0.0921,-0.1267,-0.1011,-0.0715,-0.0426,-0.0185,0.0,0.0,0.0,0.0,0.0,0.0,0.0,0.0,0.0,0.0,0.0,0.0,0.0,0.0,0.0,0.0,0.0,0.0,0.0,0.0,0.0,0.0,0.0,0.0,0.0,0.0,0.0,0.0,0.0,0.0,0.0,0.0,0.0,0.0,0.0,0.0,0.0,0.0,0.0,0.0,1.3503,1.3527,1.235,1.1823,1.2755,1.2268,1.1611,1.0974,1.0748,1.0168,0.8981,0.0,0.0,0.0,0.0,0.0,0.0,0.0,0.0,0.0,0.0,0.7665,0.6961,0.6587,0.6087,0.0,0.0,0.5308,0.5516,0.0,0.0,0.0,0.0,0.0,0.0,0.0,0.0,0.0,0.0,0.0,0.0,0.0,0.0,0.0,0.0,0.0,1.1103,0.9753,1.0392,1.2343,1.5622,1.7312,1.8443,2.0055,2.0938,2.1387,2.1021,1.8615,1.5931,1.4251,1.0619,0.724,0.5797,0.4858,0.4239,0.3867,0.3062,0.2007,0.0662,-0.0537,-0.1507,-0.2049,-0.1916,-0.1535,-0.0979,-0.1055,-0.0839,-0.0251,-0.0064,0.0,0.0,0.0,0.0,0.0,0.0,0.0,0.0,0.0,0.0,0.0,0.0,0.0,0.0,0.0,0.0,0.0,0.0,0.0,0.0,0.0,0.0,0.0,0.0,0.0,0.0,0.0,0.0,0.0,0.0,0.0,0.0,0.0,0.0,0.0,0.0,0.0,0.0,0.0,1.2323,1.1544,1.2488,1.1781,1.1075,1.0737,1.0164,0.9625,0.9136,0.0,0.0,0.0,0.0,0.0,0.0,0.0,0.0,0.0,0.0,0.749,0.6412,0.6412,0.5987,0.5215,0.519,0.5546,0.6184,0.0,0.0,0.0,0.0,0.0,0.0,0.0,0.0,0.0,0.0,0.0,0.0,0.0,0.0,0.0,0.0,0.0,0.0,0.0,0.9296,1.0153,1.2421,1.465,1.6771,1.8325,1.9838,2.0967,2.0875,1.853,1.5846,1.4083,1.0574,0.7284,0.5787,0.5541,0.5213,0.4027,0.3803,0.3082,0.0931,-0.0456,-0.1486,-0.1938,-0.2473,-0.2456,-0.1595,-0.2771,-0.2882,-0.0891,-0.025,0.0,0.0,0.0,0.0,0.0,0.0,0.0,0.0,0.0,0.0,0.0,0.0,0.0,0.0,0.0,0.0,0.0,0.0,0.0,0.0,0.0,0.0,0.0,0.0,0.0,0.0,0.0,0.0,0.0,0.0,0.0,0.0,0.0,0.0,0.0,0.0,0.0,0.0,0.0,1.2709,1.1897,1.2326,1.1434,1.0663,1.0517,1.0078,0.9667,0.9322,0.0,0.0,0.0,0.0,0.0,0.0,0.0,0.0,0.0,0.0,0.806,0.7636,0.7071,0.6625,0.6297,0.6115,0.6091,0.6215,0.6474,0.6711,0.0,0.0,0.0,0.0,0.0,0.0,1.0894,0.0,0.0,0.0,0.0,0.0,0.0,0.0,0.0,0.0,0.0,0.0,0.0,1.0414,1.2415,1.4615,1.6197,1.7204,1.7704,1.7412,1.5527,1.3557,1.2818,1.0319,0.7968,0.7443,0.7092,0.6789,0.6385,0.4938,0.3344,0.2002,0.0042,-0.1726,-0.2913,-0.2326,-0.1838,-0.1963,-0.1473,-0.0929,-0.0314,-0.0064,0.0,0.0,0.0,0.0,0.0,0.0,0.0,0.0,0.0,0.0,0.0,0.0,0.0,0.0,0.0,0.0,0.0,0.0,0.0,0.0,0.0,0.0,0.0,0.0,0.0,0.0,0.0,0.0,0.0,0.0,0.0,0.0,0.0,0.0,0.0,0.0,0.0,0.0,0.0,1.3003,1.2048,1.2171,1.0999,1.0198,1.0281,0.9716,0.9323,0.929,0.0,0.0,0.0,0.0,0.0,0.0,0.0,0.0,0.0,0.8535,0.8165,0.7982,0.7331,0.6901,0.6712,0.662,0.6525,0.6527,0.6767,0.697,0.0,0.0,0.0,0.0,0.0,0.0,1.0456,0.0,0.0,0.0,0.0,0.0,0.0,0.0,0.0,0.0,0.0,0.0,0.0,0.0,1.0555,1.2205,1.4171,1.531,1.588,1.5622,1.3978,1.2378,1.204,1.0172,0.8242,0.7568,0.7192,0.6968,0.7042,0.4614,0.263,0.2586,0.0166,-0.2036,-0.2876,-0.2339,-0.2086,-0.2671,-0.1309,-0.0439,-0.0818,-0.0319,0.0,0.0,0.0,0.0,0.0,0.0,0.0,0.0,0.0,0.0,0.0,0.0,0.0,0.0,0.0,0.0,0.0,0.0,0.0,0.0,0.0,0.0,0.0,0.0,0.0,0.0,0.0,0.0,0.0,0.0,0.0,0.0,0.0,0.0,0.0,0.0,0.0,0.0,0.0,0.0,0.0,1.2004,1.0637,0.9771,1.0026,0.9201,0.8751,0.0,0.0,0.0,0.0,0.0,0.0,0.0,0.0,0.0,0.0,0.8293,0.789,0.7606,0.7227,0.6921,0.6654,0.6795,0.6895,0.7013,0.7037,0.7287,0.0,0.0,0.0,0.0,0.0,0.0,0.0,0.0,0.0,0.0,0.0,0.0,0.0,0.0,0.0,0.0,0.0,0.0,0.0,0.0,0.0,0.0,0.0,1.3818,1.49,1.49,1.3471,1.1945,1.1559,1.0045,0.0,0.6607,0.6238,0.6229,0.627,0.328,0.1298,0.2823,0.0,-0.2298,-0.2005,-0.2378,-0.291,-0.3423,-0.1806,-0.1081,-0.2112,-0.088,0.0,0.0,0.0,0.0,0.0,0.0,0.0,0.0,0.0,0.0,0.0,0.0,0.0,0.0,0.0,0.0,0.0,0.0,0.0,0.0,0.0,0.0,0.0,0.0,0.0,0.0,0.0,0.0,0.0,0.0,0.0,0.0,0.0,0.0,0.0,0.0,0.0,0.0,0.0,0.0,0.0,0.0,1.1044,1.0209,0.9758,0.9186,0.8916,0.0,0.0,0.0,0.0,0.0,0.0,0.0,0.0,0.0,0.0,0.8575,0.8174,0.7592,0.7508,0.736,0.714,0.7263,0.7261,0.7172,0.7482,0.7913,0.0,0.0,0.0,0.0,0.0,0.0,0.0,0.0,0.0,0.0,0.9742,0.9798,0.0,0.0,0.0,0.0,0.0,0.0,0.0,0.0,0.8943,0.915,0.9854,0.0,1.1039,1.1039,1.0688,1.036,0.0,0.9468,0.86,0.8049,0.7498,0.6922,0.6347,0.3901,0.215,0.2656,0.0295,-0.1591,-0.1533,-0.166,-0.1659,-0.1599,-0.0742,-0.044,-0.1169,-0.0506,0.0,0.0,0.0,0.0,0.0,0.0,0.0,0.0,0.0,0.0,0.0,0.0,0.0,0.0,0.0,0.0,0.0,0.0,0.0,0.0,0.0,0.0,0.0,0.0,0.0,0.0,0.0,0.0,0.0,0.0,0.0,0.0,0.0,0.0,0.0,0.0,0.0,0.0,0.0,0.0,0.0,0.0,0.0,0.0,0.0,0.0,0.0,0.0,0.0,0.0,0.0,0.0,0.0,0.0,0.0,0.0,0.88,0.8307,0.793,0.7683,0.7536,0.7443,0.7392,0.7457,0.7415,0.7264,0.7696,0.8236,0.0,0.0,0.0,0.0,0.9347,0.0,0.0,0.0,0.0,0.0,0.9215,0.9301,0.0,0.9361,0.9204,0.9098,0.0,0.0,0.0,0.0,0.8731,0.8762,0.8867,0.9307,0.9748,0.9748,0.9835,0.9867,0.9813,0.9312,0.8592,0.7719,0.7054,0.6563,0.6225,0.3642,0.183,0.2645,0.0507,-0.1325,-0.1495,-0.2208,-0.233,-0.14,-0.1249,-0.1011,-0.0504,-0.0192,0.0,0.0,0.0,0.0,0.0,0.0,0.0,0.0,0.0,0.0,0.0,0.0,0.0,0.0,0.0,0.0,0.0,0.0,0.0,0.0,0.0,0.0,0.0,0.0,0.0,0.0,0.0,0.0,0.0,0.0,0.0,0.0,0.0,0.0,0.0,0.0,0.0,0.0,0.0,0.0,0.0,0.0,0.0,0.0,0.0,0.0,0.0,0.0,0.0,0.0,0.0,0.0,0.0,0.0,0.0,0.8649,0.8706,0.7858,0.7517,0.7678,0.7449,0.7414,0.7516,0.7584,0.7542,0.7475,0.7825,0.8301,0.0,0.0,0.8958,0.9267,0.8938,0.0,0.0,0.0,0.0,0.0,0.0,0.0,0.0,0.9123,0.9068,0.894,0.8943,0.0,0.0,0.0,0.0,0.0,0.8655,0.9028,0.9341,0.924,0.9279,0.9362,0.9286,0.8865,0.8131,0.7019,0.633,0.592,0.5932,0.2907,0.0935,0.2413,0.0598,-0.1107,-0.1416,-0.2689,-0.3042,-0.1715,-0.1919,-0.1628,-0.0256,-0.0064,0.0,0.0,0.0,0.0,0.0,0.0,0.0,0.0,0.0,0.0,0.0,0.0,0.0,0.0,0.0,0.0,0.0,0.0,0.0,0.0,0.0,0.0,0.0,0.0,0.0,0.0,0.0,0.0,0.0,0.0,0.0,0.0,0.0,0.0,0.0,0.0,0.0,0.0,0.0,0.0,0.0,0.0,0.0,0.0,0.0,0.0,0.0,0.0,0.0,0.0,0.0,0.0,0.0,0.0,0.8812,0.8613,0.8291,0.7826,0.7428,0.7121,0.7455,0.7655,0.7676,0.7908,0.8104,0.8218,0.796,0.8156,0.8706,0.8297,0.8395,0.8783,0.8581,0.0,0.0,0.0,0.0,0.0,0.0,0.0,0.0,0.8669,0.8788,0.8987,0.8507,0.0,0.0,0.0,0.0,0.0,0.893,0.8262,0.7295,0.6741,0.6551,0.6585,0.6873,0.6668,0.6847,0.8246,0.741,0.6172,0.5268,0.2145,0.0042,0.0921,0.0377,-0.0204,-0.028,-0.0464,-0.0716,-0.0984,-0.0631,-0.0509,-0.0748,-0.0318,0.0,0.0,0.0,0.0,0.0,0.0,0.0,0.0,0.0,0.0,0.0,0.0,0.0,0.0,0.0,0.0,0.0,0.0,0.0,0.0,0.0,0.0,0.0,0.0,0.0,0.0,0.0,0.0,0.0,0.0,0.0,0.0,0.0,0.0,0.0,0.0,0.0,0.0,0.0,0.0,0.0,0.0,0.0,0.0,0.0,0.0,0.0,0.0,0.0,0.0,0.0,0.0,0.0,0.8601,0.8301,0.8038,0.7769,0.744,0.7269,0.7274,0.7562,0.7801,0.7955,0.7905,0.7943,0.8077,0.7805,0.7985,0.8483,0.8259,0.837,0.8683,0.0,0.0,0.0,0.0,0.0,0.0,0.0,0.0,0.0,0.0,0.8458,0.8673,0.8399,0.0,0.0,0.0,0.0,0.0,0.7848,0.7199,0.6235,0.4127,0.453,0.546,0.5606,0.5287,0.5091,0.5435,0.4787,0.4013,0.3519,0.1545,0.0045,0.0295,-0.0778,-0.147,-0.0972,-0.1689,-0.2025,-0.1414,-0.1374,-0.1135,-0.0506,-0.0191,0.0,0.0,0.0,0.0,0.0,0.0,0.0,0.0,0.0,0.0,0.0,0.0,0.0,0.0,0.0,0.0,0.0,0.0,0.0,0.0,0.0,0.0,0.0,0.0,0.0,0.0,0.0,0.0,0.0,0.0,0.0,0.0,0.0,0.0,0.0,0.0,0.0,0.0,0.0,0.0,0.0,0.0,0.0,0.0,0.0,0.0,0.0,0.0,0.0,0.0,0.0,0.0,0.8489,0.819,0.7709,0.749,0.7553,0.7274,0.7274,0.76,0.778,0.7966,0.8193,0.7899,0.7788,0.7829,0.7618,0.7758,0.8164,0.8143,0.8258,0.8444,0.0,0.0,0.0,0.0,0.0,0.0,0.0,0.0,0.0,0.0,0.0,0.0,0.0,0.0,0.0,0.8736,0.8712,0.8419,0.6996,0.618,0.5111,0.2519,0.3012,0.418,0.42,0.3874,0.3475,0.3159,0.317,0.2957,0.2074,0.0823,-0.0245,-0.0639,-0.1617,-0.2068,-0.1405,-0.2425,-0.2768,-0.1429,-0.1683,-0.1445,-0.0129,0.0,0.0,0.0,0.0,0.0,0.0,0.0,0.0,0.0,0.0,0.0,0.0,0.0,0.0,0.0,0.0,0.0,0.0,0.0,0.0,0.0,0.0,0.0,0.0,0.0,0.0,0.0,0.0,0.0,0.0,0.0,0.0,0.0,0.0,0.0,0.0,0.0,0.0,0.0,0.0,0.0,0.0,0.0,0.0,0.0,0.0,0.0,0.0,0.0,0.0,0.0,0.0,0.0,0.75,0.7481,0.7195,0.7375,0.8041,0.7674,0.76,0.7875,0.8193,0.8291,0.8199,0.7975,0.7911,0.7962,0.752,0.7527,0.7823,0.7632,0.7643,0.7769,0.7878,0.0,0.0,0.0,0.0,0.0,0.0,0.0,0.0,0.0,0.0,0.0,0.0,0.0,0.8924,0.9027,0.8813,0.8347,0.7462,0.5369,0.3314,0.2759,0.2121,0.1693,0.1899,0.1911,0.239,0.4275,0.5721,0.5514,0.1787,-0.0245,-0.1716,-0.2738,-0.1377,-0.0181,-0.0124,-0.0251,-0.0255,-0.0129,-0.0129,-0.0128,0.0,0.0,0.0,0.0,0.0,0.0,0.0,0.0,0.0,0.0,0.0,0.0,0.0,0.0,0.0,0.0,0.0,0.0,0.0,0.0,0.0,0.0,0.0,0.0,0.0,0.0,0.0,0.0,0.0,0.0,0.0,0.0,0.0,0.0,0.0,0.0,0.0,0.0,0.0,0.0,0.0,0.0,0.0,0.0,0.0,0.0,0.0,0.0,0.0,0.0,0.0,0.0,0.0,0.0,0.7335,0.7157,0.7138,0.7315,0.7702,0.7656,0.7856,0.835,0.853,0.8497,0.8199,0.8309,0.8295,0.8258,0.8495,0.8754,0.8981,0.9069,0.8939,0.8623,0.8702,0.8376,0.0,0.0,0.0,0.0,0.0,0.0,0.0,0.0,0.8187,0.8334,0.8454,0.8719,0.9027,0.8995,0.8302,0.7274,0.6026,0.4192,0.2579,0.2442,0.1251,0.017,0.0539,0.0862,0.0869,0.0095,0.2404,0.3853,0.1694,0.0262,-0.0882,-0.1943,-0.0901,0.0,0.0,0.0,0.0,0.0,0.0,0.0,0.0,0.0,0.0,0.0,0.0,0.0,0.0,0.0,0.0,0.0,0.0,0.0,0.0,0.0,0.0,0.0,0.0,0.0,0.0,0.0,0.0,0.0,0.0,0.0,0.0,0.0,0.0,0.0,0.0,0.0,0.0,0.0,0.0,0.0,0.0,0.0,0.0,0.0,0.0,0.0,0.0,0.0,0.0,0.0,0.0,0.0,0.0,0.0,0.0,0.0,0.0,0.0,0.8577,0.775,0.7165,0.6887,0.7352,0.7579,0.7513,0.7978,0.831,0.8475,0.8828,0.8766,0.84,0.8763,0.8858,0.8786,0.9234,0.9631,0.9939,1.0054,0.9756,0.9217,0.9217,0.8702,0.0,0.0,0.0,0.0,0.0,0.0,0.0,0.0,0.822,0.8356,0.8507,0.871,0.8827,0.8464,0.7571,0.6286,0.4507,0.3297,0.2544,0.2605,0.2003,0.1597,0.245,0.1394,0.0147,-0.0357,0.149,0.2892,0.1993,0.0545,-0.0681,-0.1407,-0.0676,0.0,0.0,0.0,0.0,0.0,0.0,0.0,0.0,0.0,0.0,0.0,0.0,0.0,0.0,0.0,-0.048,-0.1446,-0.0544,-0.0484,-0.1453,-0.0482,0.0,0.0,0.0,0.0,0.0,0.0,0.0,0.0,0.0,0.0,0.0,0.0,0.0,0.0,0.0,0.0,0.0,0.0,0.0,0.0,0.0,0.0,0.0,0.0,0.0,0.0,0.0,0.0,0.0,0.0,0.0,0.0,0.0,0.0,0.0,0.0,0.0,0.0,0.8825,0.7699,0.6904,0.6647,0.7822,0.8198,0.7537,0.8751,0.9023,0.8204,0.8998,0.9182,0.8818,0.9367,0.9621,0.9614,0.9552,0.9861,1.0384,1.0219,0.9799,0.9305,0.9305,0.8757,0.7903,0.0,0.0,0.0,0.0,0.0,0.0,0.0,0.8204,0.8291,0.8733,0.867,0.8224,0.7432,0.6592,0.5462,0.3127,0.2745,0.3114,0.3509,0.4785,0.6341,0.7941,0.3674,0.046,0.4287,0.4299,0.3379,0.266,0.0329,-0.1466,-0.1491,-0.0671,0.0,0.0,0.0,0.0,0.0,0.0,0.0,0.0,0.0,0.0,0.0,0.0,0.0,0.0,0.0,-0.1471,-0.458,-0.166,-0.1547,-0.4694,-0.1547,0.0,0.0,0.0,0.0,0.0,0.0,0.0,0.0,0.0,0.0,0.0,0.0,0.0,0.0,0.0,0.0,0.0,0.0,0.0,-0.0053,0.0,0.0,0.0,0.0,0.0,0.0,0.0,0.0,0.0,0.0,0.0,0.0,0.0,0.0,0.0,0.0,0.0,0.0,0.9649,0.877,0.8272,0.8274,0.8872,0.9111,0.8899,0.9369,0.9347,0.8837,0.9064,0.923,0.9313,0.9946,1.0193,1.0113,1.0852,1.1299,1.1543,1.19,1.1262,1.0041,1.0353,0.9444,0.7919,0.0,0.0,0.0,0.0,0.0,0.0,0.0,0.0,0.0,0.8345,0.7569,0.6587,0.662,0.4963,0.2945,0.2258,0.2564,0.3403,0.4796,0.5945,0.7383,0.9828,0.6602,0.3399,0.4449,0.4002,0.328,0.2866,0.2875,0.2018,-0.0992,-0.067,0.0,0.0,0.0,0.0,0.0,0.0,0.0,0.0,0.0,0.0,0.0,0.0,0.0,0.0,-0.2037,-0.3592,-0.4542,-0.3681,-0.3627,-0.4559,-0.1523,0.0,0.0,0.0,0.0,0.0,0.0,0.0,0.0,0.0,0.0,0.0,0.0,0.0,0.0,0.0,0.0,0.0,0.0,-0.1278,-0.2979,0.0,0.0,0.0,0.0,0.0,0.0,0.0,0.0,0.0,0.0,0.0,0.0,0.0,0.0,0.0,0.0,0.0,0.0,0.0,0.9468,0.8974,0.9038,0.9612,1.0042,1.0288,1.004,0.9845,0.9689,0.9632,0.9683,0.984,1.0651,1.1025,1.1123,1.1841,1.2259,1.2403,1.2448,1.1683,1.0469,1.0492,0.9512,0.81,0.0,0.0,0.0,0.0,0.0,0.0,0.0,0.0,0.0,0.8279,0.7385,0.6427,0.6767,0.4817,0.2733,0.3713,0.425,0.5153,0.7582,0.9245,1.0299,1.0358,0.8527,0.6418,0.4996,0.4338,0.3528,0.201,0.2431,0.2109,-0.0475,-0.0368,0.0,0.0,0.0,0.0,0.0,0.0,0.0,0.0,0.0,0.0,0.0,0.0,0.0,0.0,-0.1721,-0.3304,-0.4518,-0.338,-0.3322,-0.458,-0.1553,0.0,0.0,0.0,0.0,0.0,0.0,0.0,0.0,0.0,0.0,0.0,0.0,0.0,0.0,0.0,0.0,0.0,0.0,-0.1756,-0.42,0.0,0.0,0.0,0.0,0.0,0.0,0.0,0.0,0.0,0.0,1.5397,0.0,0.0,0.0,0.0,0.0,0.0,0.0,0.0,0.0,0.9431,0.9335,1.0216,1.1011,1.1602,1.0732,1.0406,1.0674,1.0472,1.0384,1.0401,1.1375,1.1971,1.2288,1.2515,1.2685,1.2812,1.2067,1.1295,1.0475,0.9932,0.9146,0.8361,0.8248,0.0,0.0,0.0,0.0,0.0,0.0,0.0,0.0,0.8395,0.7706,0.7045,0.7322,0.5594,0.4101,0.6341,0.7082,0.7956,1.1094,1.3459,1.4045,1.0279,0.9504,0.8577,0.5337,0.4894,0.404,0.0599,0.0238,0.0357,0.006,0.0,0.0,0.0,0.0,0.0,0.0,0.0,0.0,0.0,0.0,0.0,0.0,0.0,0.0,0.0,-0.0283,-0.1735,-0.4579,-0.1901,-0.1789,-0.4635,-0.1578,0.0,0.0,0.0,0.0,0.0,0.0,0.0,0.0,0.0,0.0,0.0,0.0,0.0,0.0,0.0,0.0,0.0,0.0,-0.1756,-0.4253,0.0,0.0,0.0,0.0,0.0,0.0,0.0,0.0,0.0,0.0,0.0,0.0,0.0,0.0,0.0,0.0,0.0,0.0,0.0,0.0,1.1453,1.1006,1.1441,1.1908,1.2364,1.1417,1.1004,1.1219,1.0559,1.0444,1.0867,1.1619,1.2012,1.207,1.2458,1.2258,1.1656,1.1479,1.056,0.923,0.957,0.901,0.805,0.828,0.8258,0.0,0.0,0.0,0.0,0.0,0.0,0.0,0.7976,0.6762,0.547,0.5793,0.5205,0.463,0.559,0.8005,1.0649,1.2198,1.3469,1.4194,1.3789,0.9668,0.5084,0.1784,0.3153,0.3912,0.0614,0.2077,0.2992,0.043,0.0,0.0,0.0,0.0,0.0,0.0,0.0,0.0,0.0,0.0,0.0,0.0,0.0,0.0,0.0,-0.2233,-0.3866,-0.4497,-0.3894,-0.3839,-0.4552,-0.1541,0.0,0.0,0.0,0.0,0.0,0.0,0.0,0.0,0.0,0.0,0.0,0.0,0.0,0.0,0.0,0.0,0.0,0.0,-0.1756,-0.4517,0.0,0.0,0.0,0.0,0.0,0.0,0.0,0.0,0.0,0.0,0.0,0.0,0.0,0.0,0.0,0.0,0.0,0.0,0.0,0.0,0.0,1.1803,1.2017,1.2201,1.2311,1.1599,1.1242,1.1251,1.0815,1.0867,1.1399,1.1817,1.2183,1.2516,1.2408,1.2019,1.1413,1.0691,0.9893,0.9059,0.8904,0.8499,0.8007,0.8102,0.8038,0.7907,0.8016,0.0,0.0,0.0,0.0,0.0,0.0,0.0,0.5891,0.6571,0.5842,0.5412,0.8152,1.001,1.1509,1.3065,1.3996,1.4225,1.2947,0.8661,0.4498,0.2811,0.2514,0.2016,0.031,0.1422,0.1981,0.0309,0.0,0.0,0.0,0.0,0.0,0.0,0.0,0.0,0.0,0.0,0.0,0.0,0.0,0.0,0.0,-0.1495,-0.2355,-0.2334,-0.2333,-0.2333,-0.2333,-0.0764,0.0,0.0,0.0,0.0,0.0,0.0,0.0,0.0,0.0,0.0,0.0,0.0,0.0,0.0,0.0,0.0,0.0,0.0,-0.1756,-0.441,0.0,0.0,0.0,0.0,0.0,0.0,0.0,0.0,0.0,0.0,0.0,0.0,0.0,0.0,0.0,0.0,0.0,0.0,0.0,0.0,0.0,1.2148,1.2137,1.2108,1.2027,1.1543,1.1237,1.1192,1.1042,1.1318,1.2034,1.2085,1.2491,1.3107,1.2468,1.1917,1.1391,0.9966,0.9238,0.8963,0.8113,0.7807,0.7868,0.7792,0.7706,0.76,0.7722,0.7996,0.8307,0.8129,0.0,0.0,0.0,0.0,0.6977,0.7768,0.6737,0.6322,1.0608,1.1329,1.138,1.3531,1.3644,1.272,1.0548,0.7075,0.4383,0.4946,0.2349,0.0,0.0,0.0,0.0,0.0,0.0,0.0,0.0,0.0,0.0,0.0,0.0,0.0,0.0,0.0,0.0,0.0,0.0,0.0,0.0,0.0,0.0,0.0,0.0,0.0,0.0,0.0,0.0,0.0,0.0,0.0,0.0,0.0,0.0,0.0,0.0,0.0,0.0,0.0,0.0,-0.0053,-0.0533,-0.0746,-0.0799,-0.1278,-0.2606,-0.4253,0.0,0.0,0.0,0.0,0.0,0.0,0.0,0.0,0.0,0.0,1.6499,0.0,0.0,0.0,0.0,0.0,0.0,0.0,1.3134,0.0,0.0,1.2266,1.178,1.1735,1.215,1.1265,1.1062,1.1608,1.1034,1.1484,1.2913,1.2661,1.2824,1.3327,1.2793,1.1944,1.092,0.9672,0.8584,0.7645,0.7337,0.7144,0.7086,0.7159,0.7209,0.719,0.7192,0.7525,0.7936,0.7687,0.7867,0.0,0.0,0.0,0.7241,0.685,0.7025,0.7516,0.8315,0.9237,1.0582,1.3164,1.003,0.6923,0.9539,0.5227,0.1512,0.4315,0.2313,0.0,0.0,0.0,0.0,0.0,0.0,0.0,0.0,0.0,0.0,0.0,0.0,0.0,0.0,0.0,0.0,0.0,0.0,0.0,0.0,0.0,0.0,0.0,0.0,0.0,0.0,0.0,0.0,0.0,0.0,0.0,0.0,0.0,0.0,0.0,0.0,0.0,0.0,0.0,0.0,-0.0266,-0.266,-0.3615,-0.3934,-0.6422,-0.6,-0.457,0.0,0.0,0.0,0.0,0.0,0.0,0.0,0.0,0.0,0.0,0.0,1.5679,0.0,0.0,0.0,1.4751,1.4603,1.4182,1.3332,1.2639,1.2207,1.2147,1.1723,1.1545,1.1567,1.0659,1.0373,1.0757,1.056,1.117,1.2554,1.2909,1.3352,1.3909,1.2947,1.1932,1.0939,0.9716,0.8589,0.7545,0.7275,0.7409,0.7734,0.7248,0.7478,0.7946,0.7078,0.7193,0.7664,0.6834,0.6845,0.7075,0.6034,0.0,0.0,0.0,0.553,0.6889,0.9454,1.1284,1.2271,1.1499,1.0844,0.9832,0.7797,0.5004,0.3248,0.4707,0.2353,0.0,0.0,0.0,0.0,0.0,0.0,0.0,0.0,0.0,0.0,0.0,0.0,0.0,0.0,0.0,0.0,0.0,0.0,0.0,0.0,0.0,0.0,0.0,0.0,0.0,0.0,0.0,0.0,0.0,0.0,0.0,0.0,0.0,0.0,0.0,0.0,-0.0905,-0.2341,-0.2341,-0.3296,-0.4886,-0.6107,-0.6584,-0.674,-0.8011,-0.7693,-0.6793,0.0,0.0,0.0,0.0,0.0,0.0,0.0,0.0,0.0,0.0,0.0,0.0,0.0,0.0,0.0,0.0,1.4841,1.4346,1.3538,1.2915,1.2401,1.2019,1.1509,1.1099,1.077,1.0019,0.9706,0.9859,1.0062,1.0884,1.2312,1.2958,1.3782,1.4703,1.3413,1.2265,1.1145,1.0042,0.8882,0.7842,0.7557,0.7855,0.8355,0.7868,0.8216,0.8738,0.6987,0.6773,0.7125,0.551,0.5291,0.5498,0.4504,0.4491,0.0,0.0,0.0,0.4998,0.903,1.0566,1.0553,0.8732,0.9714,1.0094,0.5964,0.439,0.4018,0.4851,0.2334,0.0,0.0,0.0,0.0,0.0,0.0,0.0,0.0,0.0,0.0,0.0,0.0,0.0,0.0,0.0,0.0,0.0,0.0,0.0,0.0,0.0,0.0,0.0,0.0,0.0,0.0,0.0,0.0,0.0,0.0,0.0,0.0,0.0,0.0,0.0,0.0,-0.1597,-0.42,-0.42,-0.5894,-0.8593,-0.9281,-0.9545,-0.9651,-1.0391,-1.0179,-0.9545,0.0,0.0,0.0,0.0,0.0,0.0,0.0,0.0,0.0,0.0,0.0,0.0,1.5494,1.5278,1.5138,1.5113,1.4815,1.4338,1.3723,1.2939,1.236,1.2019,1.088,0.0,0.9871,0.9377,0.924,0.9425,0.9623,1.0791,1.2858,1.283,1.385,1.5675,1.4576,1.3163,1.1509,1.0648,0.9491,0.8261,0.8187,0.8184,0.8314,0.9214,0.9497,0.906,0.0,0.0,0.0,0.0,0.0,0.3477,0.3542,0.335,0.3057,0.0,0.0,0.0,0.4549,0.3464,0.2076,0.4547,0.3261,0.2016,0.4361,0.2487,0.116,0.4263,0.2318,0.0,0.0,0.0,0.0,0.0,0.0,0.0,0.0,0.0,0.0,0.0,0.0,0.0,0.0,0.0,0.0,0.0,0.0,0.0,0.0,0.0,0.0,0.0,0.0,0.0,0.0,0.0,0.0,0.0,0.0,0.0,0.0,0.0,0.0,0.0,0.0,-0.1597,-0.42,-0.42,-0.5894,-0.8752,-1.1446,-1.2505,-1.2827,-1.554,-1.4844,-1.2505,0.0,0.0,0.0,0.0,0.0,0.0,0.0,0.0,0.0,0.0,0.0,0.0,0.0,1.5922,1.5791,1.5634,1.4867,1.4289,1.4049,1.3276,1.2646,1.2264,1.1209,1.0488,1.0181,0.9183,0.8729,0.8904,0.8999,0.9799,1.1251,1.1691,1.2544,1.3669,1.3642,1.3066,1.2036,1.0667,0.9394,0.8332,0.8636,0.9093,0.9534,0.9293,0.9988,0.0,0.0,0.0,0.0,0.0,0.0,0.0,0.0,0.0,0.204,0.1978,0.148,0.1543,0.4313,0.3947,0.2998,0.3943,0.3461,0.2468,0.152,0.064,0.0357,0.153,0.0832,0.0,0.0,0.0,0.0,0.0,0.0,0.0,0.0,0.0,0.0,0.0,0.0,0.0,0.0,0.0,0.0,0.0,-0.1688,-0.1894,-0.0108,-0.3482,-0.3785,-0.0107,-0.1756,-0.1805,0.0,0.0,0.0,0.0,0.0,0.0,0.0,0.0,-0.1002,-0.2678,-0.2687,-0.4335,-0.7111,-0.8911,-1.1345,-1.4049,-1.506,-1.5487,-1.5592,-1.6604,-1.6341,-1.5487,0.0,0.0,0.0,0.0,0.0,0.0,0.0,0.0,0.0,0.0,0.0,0.0,0.0,0.0,1.6111,1.5657,1.5052,1.4563,1.4208,1.3598,1.3076,1.2695,1.1329,1.0465,1.0243,0.8875,0.8207,0.8295,0.8437,0.9077,1.0191,1.0755,1.1529,1.2415,1.2405,1.2281,1.2009,1.094,0.985,0.885,0.9456,0.9809,0.9912,0.9796,1.0015,0.0,0.0,0.0,0.0,0.0,0.0,0.0,0.0,0.0,0.0,0.1003,0.049,0.0469,0.2669,0.286,0.245,0.251,0.2503,0.1948,-0.0216,-0.0448,-0.0173,-0.0058,0.0,0.0,0.0,0.0,0.0,0.0,0.0,0.0,0.0,-0.0882,-0.1513,-0.1501,-0.1539,-0.1521,-0.1508,-0.0608,0.0,0.0,-0.2589,-0.3379,-0.1504,-0.5009,-0.4881,-0.0159,-0.1802,-0.19,0.0,0.0,0.0,0.0,0.0,0.0,-0.0052,-0.0941,-0.2349,-0.4263,-0.6165,-0.8104,-1.0074,-1.1925,-1.4417,-1.6978,-1.6978,-1.6978,-1.6978,-1.6978,-1.6978,-1.6978,0.0,0.0,0.0,0.0,0.0,0.0,0.0,0.0,0.0,0.0,0.0,0.0,0.0,0.0,0.0,1.5156,1.5344,1.5156,1.4283,1.3921,1.3553,1.3212,1.1144,0.9966,0.9874,0.8444,0.7709,0.7709,0.7968,0.871,0.9848,1.011,1.096,1.2168,1.1051,1.0865,1.1367,1.14,1.0787,0.984,1.0587,1.0243,0.9415,1.0886,0.9706,0.0,0.527,0.3486,0.0,0.0,0.0,0.0,0.0,0.0,0.0,0.0,0.0,-0.1947,0.0,0.0,0.0,-0.0131,-0.009,-0.0188,-0.0682,-0.0757,-0.0607,-0.0115,0.0,0.0,0.0,0.0,0.0,0.0,0.0,-0.0058,-0.0117,-0.2667,-0.4514,-0.4592,-0.4609,-0.4624,-0.4639,-0.196,-0.027,-0.027,-0.2833,-0.441,-0.4306,-0.4251,-0.2966,-0.021,-0.0053,0.0,0.0,-0.0104,-0.0104,-0.0104,-0.0208,-0.0258,-0.0307,-0.2938,-0.4168,-0.4545,-1.0066,-1.2609,-1.2816,-1.2821,-1.447,-1.6971,-1.6971,-1.6971,-1.6971,-1.6971,-1.6971,-1.6978,0.0,0.0,0.0,0.0,0.0,0.0,0.0,0.0,0.0,0.0,0.0,0.0,0.0,1.7157,1.7035,1.6557,1.6251,1.5786,1.5108,1.4429,1.3706,1.2868,1.1297,1.0185,0.9619,0.845,0.7853,0.7853,0.7919,0.8187,0.8657,0.0,0.9297,0.997,0.9862,0.9951,1.0144,0.9874,0.951,0.9208,1.052,1.0781,1.0566,1.1706,1.1086,0.0,0.0,0.3981,0.1741,0.0,-0.0816,-0.1878,0.0,0.0,0.0,0.0,0.0,0.0,-0.1443,0.0,0.0,0.0,0.0,0.0,-0.2384,-0.1768,-0.1049,-0.0954,-0.0432,0.0,0.0,0.0,0.0,0.0,0.0,-0.0754,-0.2946,-0.3949,-0.528,-0.7415,-0.7596,-0.7553,-0.7549,-0.6713,-0.617,0.0,-0.8763,-0.9439,-0.7429,-0.5332,-0.3828,-0.3068,-0.1086,0.0,0.0,-0.1937,-0.2903,-0.2923,-0.4866,-0.5779,-0.5816,-0.6542,-0.8018,-1.0084,-1.1672,-1.3507,-1.546,-1.572,-1.6171,-1.6763,-1.6763,-1.6748,-1.6659,-1.6775,-1.6763,-1.6777,0.0,0.0,0.0,0.0,0.0,0.0,0.0,0.0,0.0,0.0,0.0,0.0,1.7493,0.0,1.7603,1.6913,1.6579,1.6055,1.5244,1.474,1.3944,1.2664,1.1405,1.0325,0.9447,0.8411,0.7924,0.7979,0.7979,0.8046,0.0,0.0,0.0,0.0,0.9052,0.9264,0.9503,0.9206,0.9014,0.9002,1.0965,1.1187,1.0578,1.2135,1.1563,0.0,0.0,0.0,0.2346,0.0835,-0.0498,0.0,0.0,0.0,0.0,0.0,0.0,0.0,0.0,0.0,0.0,-0.2848,0.0,0.0,-0.2655,-0.203,-0.132,-0.0864,-0.0365,0.0,0.0,0.0,0.0,0.0,0.0,-0.1031,-0.4053,-0.549,-0.7365,-1.0356,-1.0583,-1.0503,-1.0508,-0.9293,-0.8482,-0.8491,-1.113,-1.148,-0.865,-0.6932,-0.4898,-0.2525,-0.0873,0.0,0.0,-0.2677,-0.3986,-0.4008,-0.6741,-0.8005,-0.8056,-0.9167,-1.063,-1.2301,-1.3469,-1.4917,-1.6449,-1.6693,-1.6734,-1.6601,-1.6601,-1.6547,-1.6537,-1.6642,-1.6696,-1.6716,0.0,0.0,0.0,0.0,0.0,0.0,0.0,0.0,0.0,0.0,0.0,1.781,1.8077,0.0,0.0,0.0,1.6657,1.6184,1.5091,1.4969,1.4181,1.2515,1.1482,1.0412,0.9233,0.8353,0.7984,0.0,0.0,0.0,0.0,0.0,0.0,0.0,0.0,0.8795,0.9115,0.9036,0.8958,0.9087,1.1317,1.1257,1.0069,1.2245,1.1591,0.9232,0.6946,0.4977,0.3103,0.0667,0.0046,0.0,0.0,0.0,0.0,0.0,-0.3254,0.0,0.0,0.0,0.0,0.0,-0.3508,0.0,-0.238,-0.2122,-0.1726,-0.0644,-0.0357,-0.026,-0.0269,-0.0326,-0.0384,-0.0276,-0.0278,-0.1232,-0.4119,-0.6676,-0.9458,-1.2797,-1.3091,-1.3124,-1.3444,-1.1037,-0.9439,-0.9439,-1.1753,-1.1806,-0.8678,-0.8511,-0.5856,-0.0205,0.0,0.0,0.0,-0.2971,-0.4427,-0.4477,-0.7487,-0.8893,-0.8994,-1.1449,-1.2552,-1.2658,-1.5208,-1.6293,-1.632,-1.6442,-1.6497,-1.6497,-1.6497,-1.649,-1.649,-1.6608,-1.6675,-1.6696,2.2352,0.0,0.0,0.0,0.0,0.0,0.0,0.0,0.0,0.0,1.901,1.9196,1.9427,1.9092,0.0,0.0,1.7173,1.6574,1.5924,1.5451,1.4271,1.2121,1.1548,1.0464,0.8691,0.8268,0.811,0.0,0.0,0.0,0.0,0.0,0.0,0.0,0.8448,0.8324,0.8128,0.8341,0.8671,0.9039,0.9502,1.0172,1.0926,1.1888,1.2015,1.1316,0.8456,0.5695,0.295,-0.0149,-0.0237,0.081,0.0,0.0,0.0,-0.2037,0.0,0.0,0.0,0.0,0.0,0.0,0.0,0.0,-0.4236,-0.3821,-0.334,-0.3103,-0.248,-0.2029,-0.2061,-0.245,-0.2611,-0.2147,-0.1887,-0.2405,-0.4266,-0.496,-0.7292,-1.2742,-1.3163,-1.3949,-1.629,-1.5795,-1.5329,-1.5329,-1.5701,-1.3737,-0.8751,-0.8383,-0.5765,-0.0152,0.0,0.0,0.0,-0.4781,-0.7236,-0.7286,-1.2203,-1.452,-1.4514,-1.5068,-1.5323,-1.5323,-1.5911,-1.6198,-1.6313,-1.6341,-1.6347,-1.6347,-1.6347,-1.6279,-1.6198,-1.6469,-1.6564,-1.6605,2.1354,0.0,0.0,0.0,0.0,0.0,0.0,0.0,0.0,1.9962,2.0124,2.0224,1.9983,1.9689,1.9162,0.0,0.0,0.0,0.0,0.0,1.3773,1.1484,1.1379,1.0413,0.8385,0.8178,0.8203,0.0,0.0,0.0,0.0,0.0,0.0,0.0,0.823,0.7688,0.7144,0.6833,0.63,0.5944,0.9366,1.147,1.2544,1.24,1.243,1.195,0.7594,0.4126,0.1459,-0.0197,-0.0338,0.0,-0.0844,-0.1086,-0.1419,0.0,-0.3598,-0.4074,0.0,0.0,0.0,-0.5213,0.0,0.0,0.0,-0.391,-0.3501,-0.3163,-0.2712,-0.236,-0.2471,-0.2684,-0.2749,-0.2566,-0.2052,-0.223,-0.373,-0.4157,-0.6577,-1.2477,-1.3009,-1.4015,-1.6929,-1.7066,-1.6394,-1.4949,-1.4771,-1.2243,-0.6668,-0.6274,-0.4341,-0.015,0.0,0.0,0.0,-0.532,-0.7991,-0.8088,-1.3511,-1.6083,-1.6083,-1.6083,-1.6083,-1.6083,-1.6164,-1.6198,-1.6205,-1.6354,-1.6327,-1.6205,-1.6279,-1.6218,-1.611,-1.6334,-1.6463,-1.6558,2.0415,0.0,0.0,0.0,0.0,0.0,0.0,0.0,2.1154,2.0889,2.1291,2.1234,2.0174,2.0162,1.9915,1.9047,0.0,0.0,0.0,0.0,1.3248,1.0959,1.1119,1.0373,0.8425,0.8251,0.8274,0.849,0.0,0.0,0.0,0.0,0.0,0.889,0.8144,0.7174,0.6026,0.5428,0.4237,0.3189,0.8767,1.1482,1.2034,1.1333,1.1352,1.1076,0.5993,0.2395,0.0,-0.0148,-0.0295,-0.0645,-0.1367,-0.182,0.0,0.0,0.0,0.0,0.0,0.0,0.0,0.0,0.0,-0.5183,0.0,0.0,0.0,-0.297,-0.2759,-0.2726,-0.2853,-0.2861,-0.2889,-0.292,-0.2308,-0.2219,-0.3309,-0.3867,-0.6138,-1.1624,-1.2045,-1.3153,-1.6472,-1.679,-1.5676,-1.289,-1.2554,-1.0052,-0.4478,-0.4155,-0.2903,-0.01,0.0,0.0,0.0,-0.5313,-0.7991,-0.8088,-1.3511,-1.6083,-1.6083,-1.6083,-1.6083,-1.609,-1.6212,-1.6225,-1.6185,-1.6395,-1.6354,-1.6178,-1.6273,-1.6218,-1.6103,-1.6286,-1.6422,-1.6493,2.0463,1.957,0.0,0.0,0.0,0.0,0.0,0.0,2.0948,2.1353,2.2633,2.2579,2.0106,2.0401,2.1036,2.162,1.7635,0.0,1.8683,0.0,0.0,1.0838,1.1048,1.0536,0.9104,0.8595,0.8284,0.8156,0.0,0.0,0.0,0.0,0.0,0.8311,0.8491,0.7069,0.4581,0.5185,0.4969,0.4271,0.5332,0.5602,0.5317,0.525,0.6522,0.7938,0.5176,0.2395,-0.0106,0.0,-0.0153,0.0248,0.0,-0.1272,-0.0279,-0.3655,0.0,0.0,0.0,0.0,0.0,0.0,-0.5294,0.0,0.0,0.0,-0.4678,-0.4537,0.0,-0.4515,-0.4506,0.0,0.0,-0.4631,-0.431,-0.403,-0.3687,-0.3792,-0.5303,-0.9268,-0.9161,-1.0704,-1.5449,-1.6081,-1.5215,-1.286,-1.2099,-0.9514,-0.4488,-0.4101,-0.2787,-0.01,0.0,0.0,0.0,-0.5329,-0.7991,-0.8088,-1.3511,-1.6083,-1.6083,-1.6083,-1.6083,-1.6083,-1.6096,-1.6246,-1.6463,-1.6374,-1.6388,-1.6463,-1.6354,-1.6218,-1.6117,-1.6395,-1.651,-1.6564,1.903,1.8866,0.0,0.0,0.0,0.0,0.0,0.0,2.1775,2.1589,2.2383,2.2063,1.9643,1.9543,2.0088,2.1224,1.734,1.591,0.0,0.0,0.0,0.0,1.0771,1.0357,0.8154,0.8379,0.8407,0.8158,0.8025,0.0,0.0,0.0,0.0,0.803,0.8253,0.6657,0.3807,0.4419,0.2924,0.0188,0.0948,0.072,0.0294,0.3159,0.3797,0.3104,0.2123,0.1012,-0.0053,0.0,-0.0101,0.0,0.0,0.0,0.0,-0.3425,0.0,0.0,0.0,0.0,0.0,0.0,0.0,0.0,-0.476,0.0,-0.473,0.0,0.0,0.0,0.0,0.0,0.0,0.0,-0.4461,-0.4424,-0.5011,-0.4223,-0.473,-0.7819,-0.8373,-1.0179,-1.4477,-1.5526,-1.4868,-1.2256,-1.0348,-0.7699,-0.4057,-0.2456,-0.1178,-0.0049,0.0,0.0,0.0,-0.3765,-0.6486,-0.8041,-1.1948,-1.4613,-1.6083,-1.6083,-1.613,-1.6218,-1.63,-1.6408,-1.653,-1.6653,-1.6578,-1.6402,-1.6422,-1.6286,-1.611,-1.632,-1.6449,-1.6551,1.7774,0.0,1.845,1.8556,0.0,0.0,0.0,0.0,2.1898,2.1182,2.1698,2.1157,1.8545,1.8614,1.942,2.0818,1.7407,1.6143,0.0,0.0,1.2703,0.0,0.0,0.0,0.0,0.0,0.7898,0.7495,0.0,0.0,0.0,0.0,0.0,0.0,0.7582,0.6383,0.4293,0.3926,0.1855,-0.1164,-0.1219,-0.1632,-0.1871,0.1513,0.1646,0.0,0.0,0.0,0.0,-0.0204,-0.0051,0.0,-0.0302,0.0,-0.1269,0.0,0.0,0.0,-0.5424,0.0,0.0,0.0,0.0,0.0,0.0,0.0,0.0,0.0,0.0,0.0,0.0,0.0,0.0,0.0,0.0,-0.4676,-0.5742,-0.5024,-0.5187,-0.7351,-0.866,-1.0552,-1.348,-1.4093,-1.3196,-1.0482,-0.7904,-0.5306,-0.2747,-0.0962,0.0,0.0,0.0,0.0,0.0,-0.2661,-0.498,-0.6935,-0.969,-1.2403,-1.5018,-1.5018,-1.5481,-1.6252,-1.6402,-1.6483,-1.6537,-1.6761,-1.6666,-1.6374,-1.6435,-1.6307,-1.6103,-1.63,-1.6435,-1.6551,1.7252,1.715,1.7387,1.8197,1.8517,1.9261,2.0857,2.0907,2.0537,1.9866,2.0797,2.0125,1.6502,1.806,1.9912,2.1144,1.8055,1.7018,1.9216,0.0,1.2993,0.0,0.0,0.9474,0.0,0.0,0.0,0.0,0.0,0.0,0.0,0.0,0.0,0.0,0.6463,0.6543,0.6522,0.3951,0.3097,0.3238,0.0415,-0.0473,-0.0161,0.0,-0.037,0.0,0.0,0.0,0.0,-0.0691,-0.0159,0.0,0.0,0.0,0.0,0.0,0.0,0.0,0.0,0.0,0.0,-0.5291,0.0,0.0,0.0,0.0,-0.4856,0.0,0.0,0.0,0.0,0.0,0.0,0.0,0.0,0.0,0.0,-0.6227,-0.7203,-0.8072,-1.0024,-1.1696,-1.2654,-1.1261,-0.9344,-0.7049,-0.4807,-0.2555,-0.0232,-0.0047,0.0,0.0,0.0,0.0,0.0,-0.2669,-0.4026,-0.4175,-0.6835,-0.9594,-1.2248,-1.2248,-1.3661,-1.6096,-1.6252,-1.6395,-1.6524,-1.653,-1.653,-1.6503,-1.6368,-1.6218,-1.6117,-1.6408,-1.6517,-1.6564,1.7777,1.8087,1.8415,1.8312,1.8274,1.8586,1.9573,1.9388,1.9392,2.0274,2.0932,2.0501,1.824,1.8691,1.9853,2.1695,1.8794,1.7743,1.9743,1.6202,0.0,0.0,0.0,0.8694,0.0,0.0,0.0,0.0,0.0,0.0,0.0,0.0,0.0,0.0,0.0,0.6535,0.6354,0.4546,0.3526,0.2806,-0.0052,-0.1167,-0.1079,0.0,-0.016,0.0,0.0,0.0,0.0,-0.0213,-0.032,-0.0374,-0.048,-0.0908,-0.1493,-0.193,-0.2442,0.0,0.0,0.0,-0.3127,-0.4388,0.0,0.0,0.0,0.0,0.0,0.0,0.0,0.0,0.0,0.0,0.0,0.0,0.0,0.0,0.0,-0.6356,-0.6755,-0.6861,-0.909,-1.0735,-1.1031,-1.0388,-0.9564,-0.8609,-0.534,-0.3093,-0.2418,-0.0879,0.0,0.0,0.0,0.0,0.0,-0.09,-0.2254,-0.4026,-0.4929,-0.6785,-0.944,-1.1294,-1.2645,-1.3693,-1.5614,-1.6537,-1.6628,-1.6781,-1.6768,-1.6608,-1.6459,-1.6415,-1.6381,-1.6483,-1.6524,-1.6578,1.8285,1.8721,1.8995,1.8625,1.7924,1.7603,1.8191,1.7578,1.7516,1.8968,1.9346,1.9194,1.8448,1.8655,1.9348,2.0722,1.9219,1.8167,1.8288,1.6472,0.0,1.2815,1.1137,0.0,0.0,0.0,0.0,0.0,0.0,0.3833,0.0,0.0,0.0,0.0,0.0,0.6301,0.7541,0.5619,0.4789,0.4479,0.0584,-0.102,0.0,0.0,-0.0269,-0.0533,0.0,0.0,0.0,0.0,-0.0269,-0.0489,-0.0109,-0.0763,-0.1578,-0.1563,-0.2034,-0.271,-0.3191,-0.2732,0.0,-0.366,-0.3236,0.0,-0.44,0.0,0.0,0.0,0.0,0.0,0.0,0.0,0.0,0.0,0.0,0.0,0.0,-0.6413,-0.6576,-0.6564,-0.8155,-0.913,-0.8726,-0.8679,-0.8212,-0.7106,-0.4482,-0.2758,-0.2357,-0.085,0.0,0.0,0.0,0.0,0.0,0.0,-0.0853,-0.2569,-0.2569,-0.3976,-0.6684,-0.939,-1.1232,-1.2367,-1.5246,-1.6527,-1.6635,-1.6897,-1.689,-1.6689,-1.6588,-1.652,-1.6524,-1.6524,-1.6592,-1.6741,1.8709,1.8961,1.914,1.9112,1.7614,1.6508,1.6882,1.5863,1.537,1.6221,1.6576,1.6883,1.7343,1.8128,1.864,1.871,1.9333,1.8444,1.5438,1.6595,0.0,0.0,1.3576,1.3363,1.3091,0.0,0.0,0.0,0.0,0.0,0.0,0.0,0.0,0.0,0.3544,0.5875,0.9888,0.6931,0.6752,0.7958,0.2293,-0.0055,-0.0055,0.0,-0.0703,-0.1546,-0.0426,0.0,0.0,0.0,0.0,0.0,0.0,0.0,0.0,0.0,0.0,-0.0327,-0.1804,-0.1792,-0.1725,-0.3077,-0.3035,0.0,0.0,0.0,-0.3994,0.0,0.0,0.0,0.0,0.0,0.0,0.0,0.0,0.0,0.0,0.0,-0.6723,-0.7099,-0.7341,-0.71,-0.618,-0.6215,-0.5246,-0.2727,-0.2267,-0.1504,0.0,-0.0085,-0.0089,0.0,0.0,0.0,0.0,0.0,0.0,0.0,0.0,-0.1412,-0.4075,-0.6785,-0.9494,-1.2269,-1.5208,-1.6524,-1.6558,-1.6856,-1.689,-1.6696,-1.6696,-1.6608,-1.653,-1.653,-1.672,-1.7019,1.9232,1.9611,1.9824,1.9467,1.7764,1.6367,1.6021,1.8521,1.9581,1.6947,2.0899,2.2986,2.0471,2.0486,2.0604,2.0416,2.0462,2.0008,0.0,0.0,0.0,1.7593,1.4575,1.3401,1.4485,0.9863,0.0,0.5413,0.0,0.0,0.222,0.0,0.0,0.0,0.3426,0.5759,0.956,0.6864,0.558,0.5063,0.1424,-0.0492,-0.1148,0.0,-0.07,-0.1546,-0.043,0.0,0.0,0.0,0.0,0.0,0.0,0.0,0.0,0.0,0.0,-0.011,-0.0493,-0.0492,-0.0653,-0.1755,-0.1824,-0.1934,0.0,0.0,0.0,0.0,0.0,0.0,0.0,0.0,0.0,0.0,0.0,0.0,0.0,0.0,0.0,-0.6407,-0.5957,-0.6085,-0.7169,-0.5701,-0.4301,-0.337,-0.2657,-0.1586,-0.0082,0.0,-0.1182,-0.0046,0.0,0.0,0.0,0.0,0.0,0.0,0.0,-0.1412,-0.4075,-0.6785,-0.953,-1.2383,-1.5252,-1.6533,-1.6655,-1.6904,-1.689,-1.6696,-1.6696,-1.6675,-1.6642,-1.6642,-1.6815,-1.7005,1.9665,1.992,1.9681,1.8902,1.8042,1.7198,1.6341,1.6891,1.7012,1.593,1.9877,2.1963,1.9925,2.0639,2.1279,2.1109,2.0892,2.0225,1.8826,0.0,0.0,1.7954,1.6514,1.6063,1.667,1.2585,0.0,0.734,0.0,0.0,0.2318,0.0,0.0,0.0,0.3093,0.4883,0.7745,0.6117,0.4942,0.3937,0.1153,-0.0385,0.0,-0.0219,-0.0379,-0.0859,-0.0217,0.0,0.0,0.0,0.0,0.0,0.0,0.0,0.0,0.0,0.0,0.0,0.0,0.0,-0.0111,-0.0715,-0.0813,-0.1011,-0.2027,-0.2259,-0.2231,0.0,-0.256,0.0,0.0,0.0,0.0,0.0,0.0,0.0,0.0,0.0,0.0,0.0,-0.6085,-0.6331,-0.7308,-0.5332,-0.3994,-0.3925,-0.3577,-0.3072,0.0,0.0,-0.2026,-0.1292,-0.0421,0.0,0.0,0.0,0.0,0.0,-0.1211,-0.2519,-0.4127,-0.8072,-1.079,-1.248,-1.5334,-1.6621,-1.6709,-1.6917,-1.6931,-1.6849,-1.6849,-1.6849,-1.6849,-1.6849,-1.6904,-1.7012,1.9487,1.9531,1.895,1.7968,1.794,1.7877,1.7332,1.4768,1.3426,1.4814,1.7348,1.8795,1.826,2.0032,2.1245,2.1211,2.0967,1.9934,1.78,1.9439,1.9509,1.7192,1.8842,1.9522,1.8959,1.6041,1.3217,0.0,0.0,0.0,0.0,0.0,0.2596,0.2618,0.2665,0.3812,0.5588,0.5074,0.4595,0.398,0.1153,0.0,0.0,0.0,0.0,0.0,0.0,0.0,0.0,0.0,0.0,0.0,0.0,0.0,0.0,0.0,0.0,0.0,0.0,0.0,0.0,0.0,0.0,-0.0219,-0.1023,-0.1278,-0.1266,-0.1203,-0.1942,-0.2109,0.0,0.0,0.0,0.0,0.0,0.0,0.0,0.0,0.0,0.0,0.0,0.0,-0.7074,-0.5349,-0.429,-0.4559,-0.4801,0.0,0.0,0.0,-0.2694,-0.2509,-0.0881,0.0,0.0,0.0,-0.0153,-0.0556,-0.2927,-0.4382,-0.5231,-1.01,-1.2495,-1.2968,-1.5583,-1.6709,-1.6736,-1.6924,-1.6978,-1.6978,-1.6958,-1.6965,-1.6978,-1.6978,-1.6992,-1.7046,1.6747,1.7164,1.7579,1.7684,1.5741,1.5138,1.7975,2.1396,2.2075,1.7672,2.2072,2.4365,2.108,2.1236,2.1496,2.1231,2.1055,0.0,0.0,0.0,0.0,1.9842,2.0154,2.0227,1.9875,1.678,1.3837,0.0,0.0,0.0,0.0,0.0,0.2649,0.2672,0.2737,0.3841,0.5624,0.4608,0.4197,0.3962,0.1139,0.0,0.0,0.0,0.0,0.0,0.0,0.0,0.0,0.0,0.0,0.0,0.0,0.0,0.0,0.0,0.0,0.0,0.0,0.0,0.0,0.0,0.0,-0.0056,-0.0223,-0.0275,-0.0272,-0.0271,-0.0372,-0.0622,-0.1014,0.0,0.0,0.0,0.0,0.0,0.0,0.0,0.0,0.0,0.0,-0.527,-0.7448,-0.6473,-0.5774,-0.5938,-0.6153,0.0,0.0,0.0,-0.3018,0.0,-0.018,0.0,0.0,0.0,-0.1108,-0.331,-0.3869,-0.6432,-1.0699,-1.1907,-1.3644,-1.582,-1.6415,-1.677,-1.6944,-1.6971,-1.6978,-1.6971,-1.6842,-1.687,-1.6978,-1.6978,-1.7053,-1.7182,1.6063,1.6124,1.6559,1.7671,1.6538,1.6248,1.8403,2.1605,2.235,1.8169,2.1209,2.2613,1.976,2.0706,2.1462,2.1231,2.1089,2.0933,2.079,2.056,2.0374,2.0374,2.0349,2.0207,1.9997,1.8007,1.5123,1.1337,0.0,0.0,0.0,0.0,0.0,0.2647,0.2497,0.2369,0.2259,0.2324,0.2193,0.1897,0.0544,0.0,0.0,0.0,0.0,0.0,0.0,0.0,0.0,0.0,0.0,0.0,0.0,0.0,0.0,0.0,0.0,0.0,0.0,0.0,0.0,0.0,0.0,0.0,0.0,0.0,0.0,0.0,0.0,-0.0262,-0.1118,-0.2314,0.0,0.0,0.0,0.0,0.0,0.0,0.0,0.0,0.0,0.0,0.0,0.0,-0.7781,-0.6449,-0.6731,0.0,0.0,0.0,-0.3844,0.0,0.0,0.0,0.0,0.0,-0.1366,-0.4003,-0.5598,-0.8387,-1.2246,-1.3922,-1.539,-1.6594,-1.6802,-1.691,-1.6978,-1.6978,-1.6978,-1.6971,-1.6897,-1.6917,-1.6992,-1.7066,-1.7134,-1.7216,1.5705,1.5436,1.5718,1.7724,1.7806,1.7878,1.8725,2.0302,2.0718,1.876,1.9736,2.0036,1.8598,2.0181,2.1267,2.1177,2.1034,2.0892,2.0834,2.0526,2.032,2.032,2.0227,2.0064,1.9875,1.9027,1.6353,0.0,0.0,0.0,0.0,0.0,0.0,0.0,0.1788,0.0719,0.0,0.0,0.0406,0.0,0.0,0.0,0.0,0.0,0.0,0.0,0.0,0.0,0.0,0.0,0.0,0.0,0.0,0.0,0.0,0.0,0.0,0.0,0.0,0.0,0.0,0.0,0.0,0.0,0.0,0.0,0.0,0.0,0.0,-0.0264,-0.1173,-0.2036,0.0,0.0,0.0,0.0,0.0,0.0,0.0,0.0,0.0,0.0,-0.5579,-0.7713,-0.8267,-0.6206,-0.691,0.0,-0.5822,0.0,0.0,0.0,0.0,-0.056,-0.063,0.0,-0.1678,-0.4922,-0.7238,-1.0062,-1.3283,-1.5667,-1.673,-1.6709,-1.691,-1.6978,-1.6978,-1.6978,-1.6978,-1.6978,-1.6978,-1.6998,-1.7039,-1.7154,-1.7236,-1.7304,1.457,1.4433,1.4975,1.7695,1.7891,1.7991,1.8906,2.0422,2.1335,2.1062,2.1233,2.1231,2.092,2.1111,2.1177,2.1034,2.0878,2.079,2.077,2.0614,2.0462,2.0462,2.032,2.0173,1.9936,1.9135,1.7077,0.0,0.0,0.8668,0.0,0.0,0.0,0.0,0.0,0.0,0.0,0.0198,0.0052,0.0,0.0,0.0,0.0,0.0,0.0,0.0,0.0,0.0,0.0,0.0,0.0,0.0,0.0,0.0,0.0,0.0,0.0,0.0,0.0,0.0,0.0,0.0,0.0,0.0,0.0,0.0,0.0,0.0,0.0,-0.0264,-0.1233,-0.0814,-0.0598,0.0,0.0,0.0,0.0,0.0,0.0,-0.2224,0.0,0.0,-0.4513,-0.476,-0.4898,-0.495,-0.6808,0.0,0.0,0.0,0.0,-0.2926,-0.2497,-0.238,-0.2641,-0.0893,-0.2633,-0.7925,-0.828,-1.1185,-1.6146,-1.6711,-1.6883,-1.6709,-1.691,-1.6978,-1.6978,-1.6978,-1.6978,-1.6978,-1.6978,-1.706,-1.7175,-1.7188,-1.7365,-1.7554,1.5798,1.5736,1.6429,1.9296,1.9033,1.8833,2.0134,2.0904,2.1299,2.1299,2.1299,2.1279,2.1211,2.1143,2.1021,2.0878,2.0811,2.0736,2.0648,2.0492,2.0363,2.0275,2.0139,1.9963,1.9752,1.9154,1.7376,0.0,0.0,0.0,0.0,0.0,0.0,0.0,0.0,-0.0235,-0.0638,-0.0202,0.0,0.0,0.0,0.0,0.0,0.0,0.0,0.0,0.0,0.0,0.0,0.0,0.0,0.0,0.0,0.0,0.0,0.0,0.0,0.0,0.0,0.0,0.0,0.0,0.0,0.0,0.0,0.0,0.0,0.0,0.0,-0.0106,-0.0473,-0.0728,-0.0771,0.0,0.0,0.0,0.0,0.0,0.0,0.0,0.0,0.0,0.0,-0.4408,-0.5323,-0.5454,0.0,0.0,0.0,0.0,0.0,-0.2552,0.0,-0.1042,-0.1147,-0.0397,-0.1936,-0.5722,-0.7627,-1.0458,-1.4163,-1.6086,-1.6944,-1.689,-1.6951,-1.6978,-1.6978,-1.6978,-1.6978,-1.6978,-1.6978,-1.7066,-1.7202,-1.7297,-1.7467,-1.7609,1.7111,1.7085,1.7637,2.0471,2.0168,1.9875,2.1023,2.1177,2.1143,2.1143,2.1109,2.1089,2.1089,2.1001,2.0878,2.0716,2.0702,2.0668,2.0539,2.0388,2.0329,2.0173,2.001,0.0,1.9725,1.8221,1.6455,1.4338,1.0731,0.0,0.0,0.0,0.0,0.0,-0.0094,-0.0388,-0.1076,-0.0311,0.0,0.0,0.0,0.0,0.0,0.0,0.0,0.0,0.0,0.0,0.0,0.0,0.0,0.0,0.0,0.0,0.0,0.0,0.0,0.0,0.0,0.0,0.0,0.0,0.0,0.0,0.0,0.0,0.0,0.0,0.0,0.0,0.0,-0.0529,-0.0789,-0.0106,0.0,0.0,0.0,0.0,0.0,0.0,-0.1462,-0.2083,-0.2038,-0.3691,-0.4816,-0.4949,0.0,0.0,0.0,0.0,0.0,0.0,0.0,0.0,-0.086,-0.03,-0.1386,-0.4082,-0.7087,-0.9904,-1.2661,-1.5654,-1.6978,-1.6978,-1.6978,-1.6978,-1.6978,-1.6978,-1.6978,-1.6985,-1.7026,-1.7134,-1.727,-1.7378,-1.7541,-1.7717,1.7942,1.7861,1.8088,2.0529,2.098,2.1034,2.1197,2.1089,2.1001,2.1001,2.0878,2.077,2.077,2.077,2.0716,2.0496,2.0476,2.0476,2.0476,2.0476,2.0471,0.0,0.0,1.9963,1.9725,1.6215,1.3962,1.3216,0.0,0.0,0.4828,0.0,0.0049,0.063,-0.0913,-0.098,0.0,0.0,0.0,0.0,0.0,0.0,0.0,0.0,0.0,0.0,0.0,0.0,0.0,0.0,0.0,0.0,0.0,0.0,0.0,0.0,0.0,0.0,0.0,0.0,0.0,0.0,0.0,0.0,0.0,0.0,0.0,0.0,0.0,0.0,0.0,0.0,0.0,0.0,0.0,0.0,0.0,0.0,0.0,0.0,-0.1973,-0.1978,-0.1902,-0.2002,-0.2247,-0.271,0.0,0.0,0.0,0.0,0.0,-0.2887,-0.2597,0.0,-0.2879,-0.0963,-0.14,-0.4249,-0.7098,-0.9985,-1.2821,-1.5697,-1.6978,-1.6978,-1.6978,-1.6978,-1.6978,-1.6978,-1.6978,-1.6992,-1.7134,-1.7283,-1.7419,-1.7419,-1.7609,-1.7846,1.9521,1.9624,1.9702,2.0513,2.077,2.0858,2.0912,2.0878,2.0845,2.0845,2.0716,2.0614,2.0614,2.0614,2.0594,0.0,2.0476,2.0476,0.0,2.0476,1.9381,1.6954,1.6761,1.5565,1.3,1.1738,1.0868,1.0456,0.0,0.0,0.0,0.0967,0.0355,0.0201,-0.0311,-0.0317,0.0,0.0,0.0,0.0,0.0,0.0,0.0,0.0,0.0,0.0,0.0,0.0,0.0,0.0,0.0,0.0,0.0,0.0,0.0,0.0,0.0,0.0,0.0,0.0,0.0,0.0,0.0,0.0,0.0,0.0,0.0,0.0,0.0,0.0,0.0,0.0,0.0,0.0,0.0,0.0,0.0,0.0,0.0,0.0,-0.061,-0.0622,-0.0621,-0.0626,0.0,0.0,0.0,0.0,0.0,0.0,0.0,0.0,-0.1381,0.0,-0.0936,-0.0305,-0.0469,-0.1373,-0.4227,-0.8094,-1.2821,-1.5697,-1.6978,-1.6978,-1.6978,-1.6978,-1.6978,-1.6978,-1.7039,-1.7127,-1.7175,-1.7351,-1.7521,-1.7521,-1.7704,-1.786,2.0354,2.0422,2.0496,2.0614,2.0668,2.0702,2.0821,2.0716,2.0682,2.0682,2.0594,2.0476,2.0476,2.0476,0.0,2.0476,2.0476,2.0476,2.0476,1.9318,1.7593,1.5298,1.3964,1.217,0.9876,0.8538,0.0,0.9399,0.6657,0.3636,0.0479,0.0479,0.0318,0.0,0.0,0.0,0.0,0.0,0.0,0.0,0.0,0.0,0.0,0.0,0.0,0.0,0.0,0.0,0.0,0.0,0.0,0.0,0.0,0.0,0.0,0.0,0.0,0.0,0.0,0.0,0.0,0.0,0.0,0.0,0.0,0.0,0.0,0.0,0.0,0.0,0.0,0.0,0.0,0.0,0.0,0.0,0.0,0.0,0.0,0.0,0.0,0.0,0.0,-0.0737,-0.0876,0.0,0.0,0.0,0.0,0.0,-0.1014,-0.1421,-0.0502,0.0,0.0,0.0,0.0,-0.0053,-0.2865,-0.6634,-1.1187,-1.2979,-1.3804,-1.3857,-1.4921,-1.5434,-1.5583,-1.6657,-1.7148,-1.7283,-1.7344,-1.7426,-1.7595,-1.7595,-1.7738,-1.786,2.0151,2.0151,2.0268,2.0736,2.0627,2.053,2.0736,2.0627,2.0476,2.0476,2.0476,2.0476,2.0476,2.0476,2.0476,2.0476,0.0,0.0,2.0151,1.7194,1.5108,1.455,1.1362,0.9462,0.9145,0.6361,0.641,0.9484,0.6182,0.3013,0.0,0.0,0.0,0.0,0.0,0.0,0.0,0.0,0.0,0.0,0.0,0.0,0.0,0.0,0.0,0.0,0.0,0.0,0.0,0.0,0.0,0.0,0.0,0.0,0.0,0.0,0.0,0.0,0.0,0.0,0.0,0.0,0.0,0.0,0.0,0.0,0.0,0.0,0.0,0.0,0.0,0.0,0.0,0.0,0.0,0.0,0.0,0.0,0.0,0.0,0.0,0.0,-0.1791,-0.1831,-0.1376,0.0,0.0,0.0,0.0,0.0,-0.1529,-0.0045,0.0,0.0,0.0,0.0,0.0,-0.0053,-0.2873,-0.5629,-0.8223,-0.8399,-0.8486,-0.8653,-1.1491,-1.2843,-1.3215,-1.6074,-1.7297,-1.7453,-1.7541,-1.7595,-1.7609,-1.7609,-1.7758,-1.7846,1.6626,1.6626,1.7471,2.0134,2.056,2.0496,2.053,2.056,2.0476,2.0476,2.0476,2.0476,2.0476,2.0476,2.0476,2.0476,2.0476,1.9382,1.6753,1.586,1.3017,0.7695,0.6726,0.5038,0.2388,0.4029,0.5268,0.6065,0.274,0.0764,0.0,0.0,0.0,0.0,0.0,0.0,0.0,0.0,0.0,0.0,0.0,0.0,0.0,0.0,0.0,0.0,0.0,0.0,0.0,0.0,0.0,0.0,0.0,0.0,0.0,0.0,0.0,0.0,0.0,0.0,0.0,0.0,0.0,0.0,0.0,0.0,0.0,0.0,0.0,0.0,0.0,0.0,0.0,0.0,0.0,0.0,0.0,0.0,0.0,0.0,-0.0452,-0.0453,-0.0432,-0.0448,-0.0776,0.0,0.0,-0.1625,-0.1532,-0.1976,-0.1533,-0.0047,0.0,0.0,0.0,0.0,0.0,-0.0054,-0.2828,-0.457,-0.5313,-0.75,-0.8492,-0.8653,-1.1656,-1.2956,-1.322,-1.6128,-1.7406,-1.7541,-1.7575,-1.7663,-1.7812,-1.7812,-1.7881,-1.786,1.7715,1.7715,1.8288,2.0151,2.0476,2.0476,2.0476,2.0476,2.0476,2.0476,2.0476,2.0476,2.0476,2.0476,2.051,2.0648,1.9088,1.7384,1.5531,1.2424,0.9029,0.5276,0.3578,0.1908,0.0063,0.1759,0.2672,0.2635,0.2368,0.1441,0.0,0.0,0.0,0.0,0.0,0.0,0.0,0.0,0.0,0.0,0.0,0.0,0.0,0.0,0.0,0.0,0.0,0.0,0.0,0.0,0.0,0.0,0.0,0.0,0.0,0.0,0.0,0.0,0.0,0.0,0.0,0.0,0.0,0.0,0.0,0.0,0.0,0.0,0.0,0.0,0.0,0.0,0.0,0.0,-0.0534,-0.0722,-0.0099,-0.053,0.0,-0.0091,0.0,0.0,0.0,0.0,-0.0286,-0.1019,-0.1169,0.0,-0.111,-0.1151,-0.0827,-0.0048,-0.1243,-0.1956,-0.2073,-0.3308,-0.3966,-0.3985,-0.411,-0.42,-0.4253,-0.5814,-0.6601,-0.6924,-1.1187,-1.3058,-1.343,-1.6416,-1.767,-1.7758,-1.7826,-1.786,-1.7915,-1.7915,-1.7915,-1.7915,1.9706,1.9706,1.9891,2.0378,2.0442,2.0442,2.0442,2.0442,2.0462,2.0476,2.0476,2.0476,2.0476,2.056,2.0365,2.0043,1.6706,1.4668,1.4685,0.8677,0.4866,0.4321,0.1546,0.0,0.0,0.0,0.0252,0.0743,0.3026,0.2747,0.0,0.0,0.0,0.0,0.0,0.0,0.0,0.0,0.0,0.0,0.0,0.0,0.0,0.0,0.0,0.0,0.0,0.0,0.0,0.0,0.0,0.0,0.0,0.0,0.0,0.0,0.0,0.0,0.0,0.0,0.0,0.0,0.0,0.0,0.0,0.0,0.0,0.0,0.0,0.0,0.0,0.0,-0.0055,-0.0217,-0.1047,-0.1362,-0.0389,0.0,-0.1261,-0.0141,0.0,0.0,0.0,0.0,0.0,0.0,0.0,0.0,0.0,-0.0446,-0.0654,-0.0695,-0.3016,-0.4526,-0.5185,-0.7536,-0.8721,-0.8688,-0.6095,-0.4902,-0.4908,-0.4891,-0.4986,-0.546,-1.0741,-1.3206,-1.3616,-1.6662,-1.7956,-1.7914,-1.8036,-1.8002,-1.7956,-1.7915,-1.7915,-1.7915,1.6168,1.6168,1.7102,1.9879,2.03,2.03,2.03,2.03,2.0397,2.0462,2.0476,2.0476,2.0476,2.0668,1.9516,1.6479,1.3185,1.127,1.1252,0.7362,0.3837,0.0911,0.0257,0.0,0.0,0.0,0.1387,0.4142,0.1874,0.0496,0.0,0.0,0.0,0.0,0.0,0.0,0.0,0.0,0.0,0.0,0.0,0.0,0.0,0.0,0.0,0.0,0.0,0.0,0.0,0.0,0.0,0.0,0.0,0.0,0.0,0.0,0.0,0.0,0.0,0.0,0.0,0.0,0.0,0.0,0.0,0.0,0.0,0.0,0.0,0.0,0.0,0.0,-0.0275,-0.1191,-0.0781,-0.0551,-0.1263,0.0,-0.024,-0.0048,0.0,0.0,0.0,0.0,0.0,0.0,0.0,0.0,0.0,-0.2406,-0.3824,-0.3791,-0.4207,-0.5679,-0.8178,-0.8553,-0.8773,-0.8838,-0.827,-0.808,-0.8188,-0.8198,-0.8188,-0.8413,-1.1873,-1.3382,-1.3616,-1.6757,-1.8057,-1.8057,-1.8077,-1.8077,-1.8036,-1.7914,-1.7915,-1.7936,1.8155,1.8155,1.8633,2.0041,2.0329,2.0295,2.0227,2.0207,2.0227,2.0295,2.032,2.0374,2.0374,2.0627,1.9368,1.5853,1.2457,0.9688,0.7902,0.4347,0.1636,0.0065,0.0,0.0,0.0,0.0,0.0761,0.2282,0.0756,0.0,0.0,0.0,0.0,0.0,0.0,0.0,0.0,0.0,0.0,0.0,0.0,0.0,0.0,0.0,0.0,0.0,0.0,0.0,0.0,0.0,0.0,0.0,0.0,0.0,0.0,0.0,0.0,0.0,0.0,0.0,0.0,0.0,0.0,0.0,0.0,0.0,0.0,0.0,0.0,0.0,0.0,0.0,-0.0164,-0.0649,-0.0925,0.0,0.0,-0.0917,-0.0818,-0.0099,0.0,0.0,0.0,0.0,0.0,0.0,0.0,0.0,0.0,-0.292,-0.5355,-0.6994,-0.8509,-1.0674,-1.3555,-1.351,-1.351,-1.3555,-1.186,-1.1036,-1.1129,-1.1129,-1.1127,-1.1387,-1.4359,-1.5723,-1.596,-1.7465,-1.8036,-1.7989,-1.8145,-1.8158,-1.8091,-1.8111,-1.8111,-1.8124,2.0476,2.0476,2.0422,2.0246,2.0275,2.0227,2.0064,2.0051,2.0064,2.0098,2.0241,2.0329,2.0329,2.0594,1.9052,1.4769,1.2001,0.8709,0.4419,0.1525,0.0,0.0,0.0,0.0,0.0,0.0,0.0,0.0,0.0,0.0,0.0,0.0,0.0,0.0,0.0,0.0,0.0,0.0,0.0,0.0,0.0,0.0,0.0,0.0,0.0,0.0,0.0,0.0,0.0,0.0,0.0,0.0,0.0,0.0,0.0,0.0,0.0,0.0,0.0,0.0,0.0,0.0,0.0,0.0,0.0,0.0,0.0,0.0,0.0,0.0,0.0,0.0,-0.0055,-0.0325,0.0,-0.1282,0.0,-0.1025,-0.1174,-0.0102,0.0,0.0,0.0,0.0,0.0,0.0,0.0,0.0,0.0,-0.3677,-0.7462,-1.1214,-1.3389,-1.5545,-1.7697,-1.7663,-1.7629,-1.7595,-1.5147,-1.4006,-1.4006,-1.4039,-1.416,-1.4362,-1.6695,-1.7758,-1.7936,-1.8023,-1.8036,-1.7989,-1.8199,-1.8233,-1.8199,-1.8247,-1.8287,-1.8321,2.0476,2.0476,2.0388,2.0173,2.0119,2.0064,1.997,1.9888,1.9942,2.0085,2.0241,2.0329,2.0329,2.0594,1.8049,1.1297,1.0592,0.7637,0.0866,0.0132,0.0,0.0,0.0,0.0,0.0,0.0,0.0,0.0,0.0,0.0,0.0,0.0,0.0,0.0,0.0,0.0,0.0,0.0,0.0,0.0,0.0,0.0,0.0,0.0,0.0,0.0,0.0,0.0,0.0,0.0,0.0,0.0,0.0,0.0,0.0,0.0,0.0,0.0,0.0,0.0,0.0,0.0,0.0,0.0,0.0,0.0,0.0,0.0,0.0,0.0,0.0,0.0,-0.0334,-0.1301,0.0,0.0,-0.1349,-0.0711,-0.0103,0.0,0.0,0.0,0.0,0.0,0.0,0.0,0.0,0.0,0.0,-0.563,-1.1554,-1.7412,-1.7821,-1.7967,-1.8057,-1.7914,-1.7772,-1.7595,-1.7264,-1.7076,-1.7082,-1.7222,-1.7289,-1.7315,-1.7675,-1.7902,-1.7936,-1.8023,-1.8165,-1.8267,-1.8158,-1.8267,-1.8464,-1.8199,-1.8199,-1.8335,2.0476,2.0476,2.0471,2.0275,2.0173,2.0051,1.9888,1.98,1.98,1.9942,2.0098,2.0227,2.0315,2.0594,1.7967,1.0898,1.0392,0.7504,0.0466,0.1983,0.223,0.0065,0.0,0.0,0.0,0.0,0.0,0.0,0.0,0.0,0.0,0.0,0.0,0.0,0.0,0.0,0.0,0.0,0.0,0.0,0.0,0.0,0.0,0.0,0.0,0.0,0.0,0.0,0.0,0.0,0.0,0.0,0.0,0.0,0.0,0.0,0.0,0.0,0.0,0.0,0.0,0.0,0.0,0.0,0.0,0.0,0.0,0.0,0.0,0.0,0.0,0.0,-0.0113,-0.0558,0.0,-0.0158,-0.0528,-0.0263,0.0,0.0,0.0,0.0,0.0,0.0,0.0,0.0,0.0,0.0,0.0,-0.602,-1.2347,-1.8689,-1.8776,-1.8531,-1.8091,-1.799,-1.7792,-1.7595,-1.7399,-1.7277,-1.7283,-1.7385,-1.7507,-1.7467,-1.7758,-1.7915,-1.7915,-1.7935,-1.8036,-1.8179,-1.8213,-1.8355,-1.8474,-1.8518,-1.8606,-1.8742,2.0723,2.1358,2.1681,2.0482,2.0241,2.0098,1.9908,1.9848,1.9752,1.98,1.9976,2.0139,2.0241,2.0526,1.8299,1.2413,1.1969,0.9037,0.2056,0.2772,0.2941,0.1676,0.1608,0.1093,0.0,0.0,0.0,0.0,0.0,0.0,0.0,0.0,0.0,0.0,0.0,0.0,0.0,0.0,0.0,0.0,0.0,0.0,0.0,0.0,0.0,0.0,0.0,0.0,0.0,0.0,0.0,0.0,0.0,0.0,0.0,0.0,0.0,0.0,0.0,0.0,0.0,0.0,0.0,0.0,0.0,0.0,0.0,0.0,0.0,-0.0298,-0.1365,-0.1517,-0.1553,-0.154,-0.1556,-0.1201,-0.0164,0.0,0.0,0.0,0.0,0.0,0.0,0.0,0.0,0.0,0.0,-0.0893,-0.29,-0.722,-1.2578,-1.9018,-1.9061,-1.8742,-1.8233,-1.8077,-1.786,-1.7521,-1.7365,-1.7236,-1.7195,-1.7351,-1.7446,-1.7507,-1.7758,-1.7901,-1.7935,-1.7935,-1.8057,-1.8233,-1.8301,-1.8443,-1.8599,-1.8674,-1.8816,-1.8993,2.116,2.3164,2.4353,2.0916,2.0329,2.0227,1.9922,1.9875,1.982,1.9739,1.9922,2.0098,2.0098,2.0363,1.9121,1.5727,1.5377,1.243,0.5581,0.1909,0.1571,0.4958,0.5049,0.345,0.0065,0.0,0.0,0.0,0.0,0.0,0.0,0.0,0.0,0.0,0.0,0.0,0.0,0.0,0.0,0.0,0.0,0.0,0.0,0.0,0.0,0.0,0.0,0.0,0.0,0.0,0.0,0.0,0.0,0.0,0.0,0.0,0.0,0.0,0.0,0.0,0.0,0.0,0.0,0.0,0.0,0.0,0.0,0.0,0.0,-0.0974,-0.4277,-0.4901,-0.4897,-0.4895,-0.4929,-0.3742,-0.044,0.0,0.0,0.0,0.0,0.0,0.0,0.0,0.0,0.0,0.0,-0.281,-0.9252,-0.9648,-1.2598,-1.9018,-1.9061,-1.885,-1.8531,-1.8389,-1.8023,-1.7419,-1.7419,-1.7344,-1.7202,-1.7351,-1.7453,-1.7595,-1.7806,-1.8004,-1.8091,-1.8091,-1.8267,-1.8511,-1.8375,-1.8498,-1.88,-1.8586,-1.8728,-1.8993,2.0723,2.1294,2.1646,2.0605,2.0334,2.0295,2.0207,2.0098,2.0051,2.0119,2.0207,2.0295,2.0397,2.0422,1.9121,1.5727,1.3185,0.9879,0.5413,0.4114,0.4032,0.5024,0.2828,0.103,0.0,0.0,0.0,0.0,0.0,0.0,0.0,0.0,0.0,0.0,0.0,0.0,0.0,0.0,0.0,0.0,0.0,0.0,0.0,0.0,0.0,0.0,0.0,0.0,0.0,0.0,0.0,0.0,0.0,0.0,0.0,0.0,0.0,0.0,0.0,0.0,0.0,0.0,0.0,0.0,0.0,0.0,0.0,0.0,0.0,-0.1053,-0.444,-0.4937,-0.4927,-0.5015,-0.4949,-0.3731,-0.0451,0.0,0.0,0.0,0.0,0.0,0.0,0.0,0.0,0.0,-0.2127,-0.5271,-0.9526,-1.1902,-1.516,-1.9394,-1.9271,-1.8993,-1.8694,-1.8335,-1.7968,-1.7527,-1.7419,-1.7399,-1.7358,-1.7453,-1.7548,-1.7595,-1.7806,-1.8004,-1.8091,-1.8091,-1.8267,-1.8474,-1.8477,-1.8586,-1.8762,-1.8708,-1.8884,-1.9128,2.0786,2.1604,2.204,2.0723,2.0408,2.0334,2.0329,2.0261,2.0207,2.0241,2.0295,2.03,2.0388,2.0442,1.9643,1.7587,1.3052,0.8821,0.5313,0.3834,0.3051,0.3092,0.1096,0.0,0.0,0.0,0.0,0.0,0.0,0.0,0.0,0.0,0.0,0.0,0.0,0.0,0.0,0.0,0.0,0.0,0.0,0.0,0.0,0.0,0.0,0.0,0.0,0.0,0.0,0.0,0.0,0.0,0.0,0.0,0.0,0.0,0.0,0.0,0.0,0.0,0.0,0.0,0.0,0.0,0.0,0.0,0.0,0.0,0.0,-0.1003,-0.4378,-0.4951,-0.4946,-0.4992,-0.4973,-0.3726,-0.0458,0.0,0.0,0.0,0.0,0.0,0.0,0.0,0.0,0.0,-0.3044,-0.6363,-0.9597,-1.2909,-1.617,-1.9509,-1.9325,-1.9027,-1.8674,-1.8342,-1.7968,-1.75,-1.7473,-1.7426,-1.7426,-1.7527,-1.7629,-1.7738,-1.7894,-1.8036,-1.8179,-1.8247,-1.8375,-1.8531,-1.8599,-1.864,-1.8694,-1.8816,-1.9006,-1.9203,2.1097,2.2989,2.411,2.1047,2.0476,2.0442,2.0363,2.0349,2.0295,2.0153,2.0261,2.0349,2.0349,2.0408,2.0476,2.0476,1.427,0.8668,0.4893,0.1751,0.0,0.0,0.0,0.0,0.0,0.0,0.0,0.0,0.0,0.0,0.0,0.0,0.0,0.0,0.0,0.0,0.0,0.0,0.0,0.0,0.0,0.0,0.0,0.0,0.0,0.0,0.0,0.0,0.0,0.0,0.0,0.0,0.0,0.0,0.0,0.0,0.0,0.0,0.0,0.0,0.0,0.0,0.0,0.0,0.0,0.0,0.0,0.0,0.0,-0.1011,-0.4289,-0.4888,-0.4898,-0.4885,-0.4927,-0.3775,-0.0462,0.0,0.0,0.0,0.0,0.0,0.0,0.0,-0.0115,-0.0407,-0.3446,-0.6787,-1.002,-1.3322,-1.6435,-1.9286,-1.9257,-1.8972,-1.8474,-1.8389,-1.8036,-1.746,-1.7548,-1.7541,-1.7467,-1.7548,-1.7738,-1.7901,-1.8023,-1.8179,-1.8355,-1.8464,-1.8474,-1.8565,-1.8708,-1.8674,-1.8586,-1.8884,-1.9081,-1.9217,2.061,2.1097,2.1358,2.061,2.0476,2.0462,2.0442,2.0485,2.0422,2.0388,2.0471,2.0485,2.0485,2.0462,2.0476,2.0476,1.4258,0.7656,0.1483,0.0387,0.0,0.0,0.0,0.0,0.0,0.0,0.0,0.0,0.0,0.0,0.0,0.0,0.0,0.0,0.0,0.0,0.0,0.0,0.0,0.0,0.0,0.0,0.0,0.0,0.0,0.0,0.0,0.0,0.0,0.0,0.0,0.0,0.0,0.0,0.0,0.0,0.0,0.0,0.0,0.0,0.0,0.0,0.0,0.0,0.0,0.0,0.0,0.0,0.0,-0.1027,-0.4421,-0.4942,-0.4937,-0.5044,-0.4941,-0.3782,-0.0466,0.0,0.0,0.0,0.0,0.0,0.0,0.0,-0.1046,-0.3512,-0.6839,-1.0079,-1.314,-1.6533,-1.8673,-1.9257,-1.9115,-1.8864,-1.8474,-1.8389,-1.8124,-1.7772,-1.7847,-1.7847,-1.7772,-1.7812,-1.7901,-1.8036,-1.8004,-1.8124,-1.8477,-1.8389,-1.8498,-1.8766,-1.88,-1.8742,-1.8786,-1.8918,-1.9081,-1.9237,2.0476,2.0476,2.0476,2.0476,2.0476,2.0476,2.0476,2.0476,2.0476,2.0476,2.0476,2.0476,2.0476,2.0476,1.984,1.8224,1.3341,0.8031,0.277,0.0903,0.0,0.0,0.0,0.0,0.0,0.0,0.0,0.0,0.0,0.0,0.0,0.0,0.0,0.0,0.0,0.0,0.0,0.0,0.0,0.0,0.0,0.0,0.0,0.0,0.0,0.0,0.0,0.0,0.0,0.0,0.0,0.0,0.0,0.0,0.0,0.0,0.0,0.0,0.0,0.0,0.0,0.0,0.0,0.0,0.0,0.0,0.0,0.0,0.0,-0.0516,-0.2319,-0.261,-0.2574,-0.2669,-0.2603,-0.1957,-0.0235,0.0,0.0,0.0,0.0,0.0,0.0,-0.1339,-0.2927,-0.458,-0.9186,-1.2673,-1.4329,-1.7527,-1.9291,-1.9203,-1.9061,-1.885,-1.8474,-1.8407,-1.8301,-1.8077,-1.7935,-1.7826,-1.7758,-1.7881,-1.7948,-1.8091,-1.8091,-1.8247,-1.8474,-1.8531,-1.8586,-1.8654,-1.8786,-1.8766,-1.8674,-1.8905,-1.9128,-1.9345,2.0476,2.0476,2.0476,2.0476,2.0476,2.0476,2.0476,2.0476,2.0476,2.0442,2.0442,2.0245,1.9674,1.9102,1.739,1.3925,1.1047,0.7964,0.4439,0.1547,0.0,0.0,0.0,0.0,0.0,0.0,0.0,0.0,0.0,0.0,0.0,0.0,0.0,0.0,0.0,0.0,0.0,0.0,0.0,0.0,0.0,0.0,0.0,0.0,0.0,0.0,0.0,0.0,0.0,0.0,0.0,0.0,0.0,0.0,0.0,0.0,0.0,0.0,0.0,0.0,0.0,0.0,0.0,0.0,0.0,0.0,0.0,0.0,0.0,0.0,0.0,0.0,0.0,0.0,0.0,0.0,0.0,0.0,0.0,0.0,0.0,-0.0231,-0.0756,-0.3159,-0.5163,-0.6209,-1.1272,-1.4556,-1.5169,-1.7232,-1.8372,-1.8339,-1.8235,-1.7994,-1.7722,-1.8238,-1.8407,-1.8321,-1.8091,-1.7894,-1.7717,-1.788,-1.8023,-1.8179,-1.8267,-1.8409,-1.8586,-1.8674,-1.8654,-1.8586,-1.8708,-1.8694,-1.8599,-1.8884,-1.9169,-1.9413,2.0476,2.0476,2.0476,2.0476,2.0476,2.0476,2.0476,2.0476,2.0442,2.032,2.03,1.9215,1.6208,1.3361,1.0271,0.6812,0.6045,0.4379,0.0903,0.0258,0.0,0.0,0.0,0.0,0.0,0.0,0.0,0.0,0.0,0.0,0.0,0.0,0.0,0.0,0.0,0.0,0.0,0.0,0.0,0.0,0.0,0.0,0.0,0.0,0.0,0.0,0.0,0.0,0.0,0.0,0.0,0.0,0.0,0.0,0.0,0.0,0.0,0.0,0.0,0.0,0.0,0.0,0.0,0.0,0.0,0.0,0.0,0.0,0.0,0.0,0.0,0.0,0.0,0.0,0.0,0.0,0.0,0.0,0.0,0.0,0.0,-0.1053,-0.3774,-0.4442,-0.6962,-1.2419,-1.3757,-1.5434,-1.8053,-1.6156,-1.4921,-1.4814,-1.474,-1.466,-1.4417,-1.7135,-1.8407,-1.8321,-1.8409,-1.8319,-1.8233,-1.8247,-1.8335,-1.8464,-1.8319,-1.8477,-1.8728,-1.8599,-1.864,-1.8786,-1.8762,-1.88,-1.88,-1.8918,-1.9094,-1.9257,2.0476,2.0476,2.0476,2.0476,2.0476,2.0476,2.0476,2.0476,2.0462,2.0388,1.878,1.6983,1.5454,1.2298,0.9698,0.8159,0.6238,0.4443,0.2963,0.1032,0.0,0.0,0.0,0.0,0.0,0.0,0.0,0.0,0.0,0.0,0.0,0.0,0.0,0.0,0.0,0.0,0.0,0.0,0.0,0.0,0.0,0.0,0.0,0.0,0.0,0.0,0.0,0.0,0.0,0.0,0.0,0.0,0.0,0.0,0.0,0.0,0.0,0.0,0.0,0.0,0.0,0.0,0.0,0.0,0.0,0.0,0.0,0.0,0.0,0.0,0.0,0.0,0.0,0.0,0.0,0.0,0.0,0.0,0.0,0.0,0.0,-0.1251,-0.45,-0.6411,-0.9373,-1.3998,-1.599,-1.7669,-1.9069,-1.6066,-1.4294,-1.4305,-1.2474,-1.2286,-1.3923,-1.5323,-1.6877,-1.8565,-1.864,-1.8531,-1.8321,-1.8409,-1.842,-1.8474,-1.8464,-1.8565,-1.8762,-1.8694,-1.8708,-1.882,-1.882,-1.882,-1.8841,-1.8938,-1.9027,-1.9115]},{"header":{"parameterUnit":"m.s-1","parameterCategory":1,"la1":30.6,"la2":28.766,"lo1":-90.7593,"lo2":-88.6598,"dy":0.0162,"dx":0.0183,"nx":116,"ny":114,"refTime":"2023-08-20T18:00:00:Z","depth":0,"parameterNumber":3,"parameterNumberName":"V-component_of_WINDS"},"data":[0.0,0.0,0.0,0.0,0.0,0.0,0.0,0.0,0.0,0.0,0.0,0.0,0.0,0.0,0.0,0.0,0.0,0.0,0.0,0.0,0.0,0.0,0.0,0.0,0.0,0.0,0.0,0.0,0.0,0.0,0.0,0.0,0.0,0.0,0.0,0.0,0.0,0.0,0.0,0.0,0.0,0.0,0.0,0.0,0.0,0.0,0.0,0.0,0.0,0.0,0.0,0.0,0.0,0.0,0.0,0.0,0.0,0.0,0.0,0.0,0.0,0.0,0.0,0.0,0.0,0.0,0.0,0.0,0.0,0.0,0.0,0.0,0.0,0.0,0.0,0.0,0.0,0.0,0.0,0.0,0.0,0.0,0.0,0.0,0.0,0.0,0.0,0.0,0.0,0.0,0.0,0.0,0.0,0.0,0.0,0.0,0.0,0.0,0.0,0.0,0.0,0.0,0.0,0.0,0.0,0.0,0.0,0.0,0.0,0.0,0.0,0.0,0.0,0.0,0.0,0.0,0.0,0.0,0.0,0.0,0.0,0.0,0.0,0.0,0.0,0.0,0.0,0.0,0.0,0.0,0.0,0.0,0.0,0.0,0.0,0.0,0.0,0.0,0.0,0.0,0.0,0.0,0.0,0.0,0.0,0.0,0.0,0.0,0.0,0.0,0.0,0.0,0.0,0.0,0.0,0.0,0.0,0.0,0.0,0.0,0.0,0.0,0.0,0.0,0.0,0.0,0.0,0.0,0.0,0.0,0.0,0.0,0.0,0.0,0.0,0.0,0.0,0.0,0.0,0.0,0.0,0.0,0.0,0.0,0.0,0.0,0.0,0.0,0.0,0.0,0.0,0.0,0.0,0.0,0.0,0.0,0.0,0.0,0.0,0.0,0.0,0.0,0.0,0.0,0.0,0.0,0.0,0.0,0.0,0.0,0.0,0.0,0.0,0.0,0.0,0.0,0.0,0.0,0.0,0.0,0.0,0.0,0.0,0.0,0.0,0.0,0.0,0.0,0.0,0.0,0.0,0.0,0.0,0.0,0.0,0.0,0.0,0.0,0.0,0.0,0.0,0.0,0.0,0.0,0.0,0.0,0.0,0.0,0.0,0.0,0.0,0.0,0.0,0.0,0.0,0.0,0.0,0.0,0.0,0.0,0.0,0.0,0.0,0.0,0.0,0.0,0.0,0.0,0.0,0.0,0.0,0.0,0.0,0.0,0.0,0.0,0.0,0.0,0.0,0.0,0.0,0.0,0.0,0.0,0.0,0.0,0.0,0.0,0.0,0.0,0.0,0.0,0.0,0.0,0.0,0.0,0.0,0.0,0.0,0.0,0.0,0.0,0.0,0.0,0.0,0.0,0.0,0.0,0.0,0.0,0.0,0.0,0.0,0.0,0.0,0.0,0.0,0.0,0.0,0.0,0.0,0.0,0.0,0.0,0.0,0.0,0.0,0.0,0.0,0.0,0.0,0.0,0.0,0.0,0.0,0.0,0.0,0.0,0.0,0.0,0.0,0.0,0.0,0.0,0.0,0.0,0.0,0.0,0.0,0.0,0.0,0.0,0.0,0.0,0.0,0.0,0.0,0.0,0.0,0.0,0.0,0.0,0.0,0.0,0.0,0.0,0.0,0.0,0.0,0.0,0.0,0.0,0.0,0.0,0.0,0.0,0.0,0.0,0.0,0.0,0.0,0.0,0.0,0.0,0.0,0.0,0.0,0.0,0.0,0.0,0.0,0.0,0.0,0.0,0.0,0.0,0.0,0.0,0.0,0.0,0.0,0.0,0.0,0.0,0.0,0.0,0.0,0.0,0.0,0.0,0.0,0.0,0.0,0.0,0.0,0.0,0.0,0.0,0.0,0.0,0.0,0.0,0.0,0.0,0.0,0.0,0.0,0.0,0.0,0.0,0.0,0.0,0.0,0.0,0.0,0.0,0.0,0.0,0.0,0.0,0.0,0.0,0.0,0.0,0.0,0.0,0.0,0.0,0.0,0.0,0.0,0.0,0.0,0.0,0.0,0.0,0.0,0.0,0.0,0.0,0.0,0.0,0.0,0.0,0.0,0.0,0.0,0.0,0.0,0.0,0.0,0.0,0.0,0.0,0.0,0.0,0.0,0.0,0.0,0.0,0.0,0.0,0.0,0.0,0.0,0.0,0.0,0.0,0.0,0.0,0.0,0.0,0.0,0.0,0.0,0.0,0.0,0.0,0.0,0.0,0.0,0.0,0.0,0.0,0.0,0.0,0.0,0.0,0.0,0.0,0.0,0.0,0.0,0.0,0.0,0.0,0.0,0.0,0.0,0.0,0.0,0.0,0.0,0.0,0.0,0.0,0.0,0.0,0.0,0.0,0.0,0.0,0.0,0.0,0.0,0.0,0.0,0.0,0.0,0.0,0.0,0.0,0.0,0.0,0.0,0.0,0.0,0.0,0.0,0.0,0.0,0.0,0.0,0.0,0.0,0.0,0.0,0.0,0.0,0.0,0.0,0.0,0.0,0.0,0.0,0.0,0.0,0.0,0.0,0.0,0.0,0.0,0.0,0.0,0.0,0.0,0.0,0.0,0.0,0.0,0.0,0.0,0.0,0.0,0.0,0.0,0.0,0.0,0.0,0.0,0.0,0.0,0.0,0.0,0.0,0.0,0.0,0.0,0.0,0.0,0.0,0.0,0.0,0.0,0.0,0.0,0.0,0.0,0.0,0.0,0.0,0.0,0.0,0.0,0.0,0.0,0.0,0.0,0.0,0.0,0.0,0.0,0.0,0.0,0.0,0.0,0.0,0.0,0.0,0.0,0.0,0.0,0.0,0.0,0.0,0.0,0.0,0.0,0.0,0.0,0.0,0.0,0.0,0.0,0.0,0.0,0.0,0.0,0.0,0.0,0.0,0.0,0.0,0.0,0.0,0.0,0.0,0.0,0.0,0.0,0.0,0.0,0.0,0.0,0.0,0.0,0.0,0.0,0.0,0.0,0.0,0.0,0.0,0.0,0.0,0.0,0.0,0.0,0.0,0.0,0.0,0.0,0.0,0.0,0.0,0.0,0.0,0.0,0.0,0.0,0.0,0.0,0.0,0.0,0.0,0.0,0.0,0.0,0.0,0.0,0.0,0.0,0.0,0.0,0.0,0.0,0.0,0.0,0.0,0.0,0.0,0.0,0.0,0.0,0.0,0.0,0.0,0.0,0.0,0.0,0.0,0.0,0.0,0.0,0.0,0.0,0.0,0.0,0.0,0.0,0.0,0.0,0.0,0.0,0.0,0.0,0.0,0.0,0.0,0.0,0.0,0.0,0.0,0.0,0.0,0.0,0.0,0.0,0.0,0.0,0.0,0.0,0.0,0.0,0.0,0.0,0.0,0.0,0.0,0.0,0.0,0.0,0.0,0.0,0.0,0.0,0.0,0.0,0.0,0.0,0.0,0.0,0.0,0.0,0.0,0.0,0.0,0.0,0.0,0.0,0.0,0.0,0.0,0.0,0.0,0.0,0.0,0.0,0.0,0.0,0.0,0.0,0.0,0.0,0.0,0.0,0.0,0.0,0.0,0.0,0.0,0.0,0.0,0.0,0.0,0.0,0.0,0.0,0.0,0.0,0.0,0.0,0.0,0.0,0.0,0.0,0.0,0.0,0.0,0.0,0.0,0.0,0.0,0.0,0.0,0.0,0.0,0.0,0.0,0.0,0.0,0.0,0.0,0.0,0.0,0.0,0.0,0.0,0.0,0.0,0.0,0.0,0.0,0.0,0.0,0.0,0.0,0.0,0.0,0.0,0.0,0.0,0.0,0.0,0.0,0.0,0.0,0.0,0.0,0.0,0.0,0.0,0.0,0.0,0.0,0.0,0.0,0.0,0.0,0.0,0.0,0.0,0.0,0.0,0.0,0.0,0.0,0.0,0.0,0.0,0.0,0.0,0.0,0.0,0.0,0.0,0.0,0.0,0.0,0.0,0.0,0.0,0.0,0.0,0.0,0.0,0.0,0.0,0.0,0.0,0.0,0.0,0.0,0.0,0.0,0.0,0.0,0.0,0.0,0.0,0.0,0.0,0.0,0.0,0.0,0.0,0.0,0.0,0.0,0.0,0.0,0.0,0.0,0.0,0.0,0.0,0.0,0.0,0.0,0.0,0.0,0.0,0.0,0.0,0.0,0.0,0.0,0.0,0.0,0.0,0.0,0.0,0.0,0.0,0.0,0.0,0.0,0.0,0.0,0.0,0.0,0.0,0.0,0.0,0.0,0.0,0.0,0.0,0.0,0.0,0.0,0.0,0.0,0.0,0.0,0.0,0.0,0.0,0.0,0.0,0.0,0.0,0.0,0.0,0.0,0.0,0.0,0.0,0.0,0.0,0.0,0.0,0.0,0.0,0.0,0.0,0.0,0.0,0.0,0.0,0.0,0.0,0.0,0.0,0.0,0.0,0.0,0.0,0.0,0.0,0.0,0.0,0.0,0.0,0.0,0.0,0.0,0.0,0.0,0.0,0.0,0.0,0.0,0.0,0.0,0.0,0.0,0.0,0.0,0.0,0.0,0.0,0.0,0.0,0.0,0.0,0.0,0.0,0.0,0.0,0.0,0.0,0.0,0.0,0.0,0.0,0.0,0.0,0.0,0.0,0.0,0.0,0.0,0.0,0.0,0.0,0.0,0.0,0.0,0.0,0.0,0.0,0.0,0.0,0.0,0.0,0.0,0.0,0.0,0.0,0.0,0.0,0.0,0.0,0.0,0.0,0.0,0.0,0.0,0.0,0.0,0.0,0.0,0.0,0.0,0.0,0.0,0.0,0.0,0.0,0.0,0.0,0.0,0.0,0.0,0.0,0.0,0.0,0.0,0.0,0.0,0.0,0.0,0.0,0.0,0.0,0.0,0.0,0.0,0.0,0.0,0.0,0.0,0.0,0.0,0.0,0.0,0.0,0.0,0.0,0.0,0.0,0.0,0.0,0.0,0.0,0.0,0.0,0.0,0.0,0.0,0.0,0.0,0.0,0.0,0.0,0.0,0.0,0.0,0.0,0.0,0.0,0.0,0.0,0.0,0.0,0.0,0.0,0.0,0.0,0.0,0.0,0.0,0.0,0.0,0.0,0.0,0.0,0.0,0.0,0.0,0.0,0.0,0.0,0.0,0.0,0.0,0.0,0.0,0.0,0.0,0.0,0.0,0.0,0.0,0.0,0.0,0.0,0.0,0.0,0.0,0.0,0.0,0.0,0.0,0.0,0.0,0.0,0.0,0.0,0.0,0.0,0.0,0.0,0.0,0.0,0.0,0.0,0.0,0.0,0.0,0.0,0.0,0.0,0.0,0.0,0.0,0.0,0.0,0.0,0.0,0.0,0.0,0.0,0.0,0.0,0.0,0.0,0.0,0.0,0.0,0.0,0.0,0.0,0.0,0.0,0.0,0.0,0.0,0.0,0.0,0.0,0.0,0.0,0.0,0.0,0.0,0.0,0.0,0.0,0.0,0.0,0.0,0.0,0.0,0.0,0.0,0.0,0.0,0.0,0.0,0.0,0.0,0.0,0.0,0.0,0.0,0.0,0.0,0.0,0.0,0.0,0.0,0.0,0.0,0.0,0.0,0.0,0.0,0.0,0.0,0.0,0.0,0.0,0.0,0.0,0.0,0.0,0.0,0.0,0.0,0.0,0.0,0.0,0.0,0.0,0.0,0.0,0.0,0.0,0.0,0.0,0.0,0.0,0.0,0.0,0.0,0.0,0.0,0.0,0.0,0.0,0.0,0.0,0.0,0.0,0.0,0.0,0.0,0.0,0.0,0.0,0.0,0.0,0.0,0.0,0.0,0.0,0.0,0.0,0.0,0.0,0.0,0.0,0.0,0.0,0.0,0.0,0.0,0.0,0.0,0.0,0.0,0.0,0.0,0.0,0.0,0.0,0.0,0.0,0.0,0.0,0.0,0.0,0.0,0.0,0.0,0.0,0.0,0.0,0.0,0.0,0.0,0.0,0.0,0.0,0.0,0.0,0.0,0.0,0.0,0.0,0.0,0.0,0.0,0.0,0.0,0.0,0.0,0.0,0.0,0.0,0.0,0.0,0.0,0.0,0.0,0.0,0.0,0.0,0.0,0.0,0.0,0.0,0.0,0.0,0.0,0.0,0.0,0.0,4.4902,0.0,0.0,0.0,0.0,0.0,0.0,0.0,0.0,0.0,0.0,0.0,0.0,0.0,0.0,0.0,0.0,0.0,0.0,0.0,0.0,0.0,0.0,0.0,0.0,0.0,0.0,0.0,0.0,0.0,0.0,0.0,0.0,0.0,0.0,0.0,0.0,0.0,0.0,0.0,3.7888,3.7592,3.7426,3.8365,3.8557,3.8167,0.0,0.0,0.0,0.0,0.0,0.0,0.0,0.0,0.0,0.0,0.0,0.0,0.0,0.0,0.0,0.0,0.0,0.0,0.0,0.0,0.0,0.0,0.0,0.0,0.0,0.0,0.0,0.0,0.0,0.0,0.0,0.0,0.0,0.0,0.0,0.0,0.0,0.0,0.0,0.0,0.0,0.0,0.0,0.0,0.0,0.0,0.0,0.0,0.0,0.0,0.0,0.0,0.0,0.0,0.0,0.0,0.0,0.0,0.0,0.0,0.0,0.0,0.0,0.0,0.0,0.0,0.0,0.0,0.0,0.0,0.0,4.8384,0.0,0.0,0.0,0.0,0.0,0.0,0.0,0.0,0.0,0.0,0.0,0.0,0.0,0.0,0.0,0.0,0.0,0.0,0.0,0.0,0.0,0.0,0.0,0.0,0.0,0.0,0.0,0.0,0.0,0.0,0.0,0.0,0.0,0.0,0.0,0.0,0.0,0.0,3.8313,3.8465,3.9729,4.0457,4.0406,3.9708,4.0117,0.0,0.0,0.0,0.0,0.0,0.0,0.0,0.0,0.0,0.0,0.0,0.0,0.0,0.0,0.0,0.0,0.0,0.0,0.0,0.0,0.0,0.0,0.0,0.0,0.0,0.0,0.0,0.0,0.0,0.0,0.0,0.0,0.0,0.0,0.0,0.0,0.0,0.0,0.0,0.0,0.0,0.0,0.0,0.0,0.0,0.0,0.0,0.0,0.0,0.0,0.0,0.0,0.0,0.0,0.0,0.0,0.0,0.0,0.0,0.0,0.0,0.0,0.0,5.775,5.8863,5.9869,6.0779,6.0311,5.873,5.6663,5.3256,4.9252,5.1024,0.0,0.0,0.0,0.0,0.0,0.0,0.0,0.0,0.0,0.0,0.0,0.0,0.0,0.0,0.0,0.0,0.0,0.0,0.0,0.0,0.0,0.0,0.0,0.0,0.0,0.0,0.0,0.0,0.0,0.0,0.0,0.0,0.0,3.8415,3.8916,4.0085,3.9582,4.0688,4.341,4.3447,4.4096,4.5029,4.1763,4.0906,4.1843,0.0,0.0,0.0,0.0,0.0,0.0,0.0,0.0,0.0,0.0,0.0,0.0,0.0,0.0,0.0,0.0,0.0,0.0,0.0,0.0,0.0,0.0,0.0,0.0,0.0,0.0,0.0,0.0,0.0,0.0,0.0,0.0,0.0,0.0,0.0,0.0,0.0,0.0,0.0,0.0,0.0,4.5408,4.6173,0.0,0.0,0.0,0.0,0.0,0.0,0.0,0.0,0.0,0.0,0.0,0.0,0.0,5.7557,5.9754,6.2531,6.304,6.1331,6.3934,6.418,6.2412,6.4824,6.5389,6.4584,6.5822,0.0,5.4547,5.192,0.0,0.0,0.0,0.0,0.0,0.0,0.0,0.0,0.0,0.0,0.0,0.0,0.0,0.0,0.0,0.0,0.0,0.0,0.0,0.0,0.0,0.0,0.0,0.0,0.0,0.0,0.0,0.0,0.0,0.0,0.0,0.0,3.9865,3.9502,3.9895,4.1099,4.258,4.411,4.5615,4.6022,4.6538,4.7083,4.533,4.4277,4.3678,4.2608,0.0,0.0,0.0,0.0,0.0,0.0,0.0,0.0,0.0,0.0,0.0,0.0,0.0,0.0,0.0,0.0,0.0,0.0,0.0,0.0,0.0,0.0,0.0,0.0,0.0,0.0,0.0,0.0,0.0,0.0,0.0,0.0,0.0,0.0,0.0,0.0,0.0,0.0,0.0,4.8004,4.9424,4.7753,5.026,5.1548,0.0,0.0,0.0,0.0,0.0,0.0,0.0,0.0,0.0,6.0065,6.1127,6.2289,6.3583,6.5324,6.6319,6.6652,6.7904,6.8626,6.8816,7.0319,7.1015,7.1026,7.1666,6.9597,6.5313,5.9524,5.6792,5.5921,0.0,0.0,0.0,0.0,5.4946,5.6659,0.0,0.0,0.0,0.0,0.0,0.0,0.0,0.0,0.0,0.0,0.0,0.0,0.0,0.0,0.0,4.1603,0.0,0.0,0.0,0.0,0.0,0.0,0.0,4.0636,4.0745,4.1165,4.2062,4.3486,4.6178,4.7812,4.8511,4.9289,4.9713,4.9916,4.9916,4.8519,4.6107,4.4661,4.3507,4.2576,0.0,0.0,0.0,0.0,0.0,0.0,0.0,0.0,0.0,0.0,0.0,0.0,0.0,0.0,0.0,0.0,0.0,0.0,0.0,0.0,0.0,0.0,0.0,0.0,0.0,0.0,0.0,0.0,0.0,0.0,0.0,0.0,0.0,0.0,0.0,0.0,0.0,5.1177,5.2627,4.9895,5.3417,5.5203,0.0,0.0,0.0,0.0,0.0,0.0,6.2041,6.348,6.5087,6.7011,6.7819,6.8634,6.9545,7.0335,7.1619,7.3434,7.3185,7.4056,7.5857,7.6255,7.6592,7.6766,7.6463,7.5738,7.4207,6.6819,6.2475,6.0238,5.8312,5.8278,5.9325,5.9605,6.0836,6.2681,0.0,0.0,0.0,0.0,0.0,0.0,0.0,0.0,0.0,0.0,0.0,3.7736,0.0,0.0,4.3937,4.6165,4.5135,4.4328,0.0,0.0,0.0,4.0238,4.0221,4.0339,4.0582,4.3602,4.6079,4.8068,4.9999,5.1691,5.3179,5.3923,5.4634,5.5293,5.5293,5.3122,4.9271,4.6289,4.5317,4.5547,4.3102,0.0,0.0,0.0,0.0,0.0,0.0,0.0,0.0,0.0,0.0,0.0,0.0,0.0,0.0,0.0,0.0,0.0,0.0,0.0,0.0,0.0,0.0,0.0,0.0,0.0,0.0,0.0,0.0,0.0,0.0,0.0,0.0,0.0,0.0,0.0,0.0,0.0,0.0,5.3011,5.6526,0.0,0.0,0.0,0.0,6.2816,6.5278,6.7781,7.035,7.0867,7.2928,7.6846,7.7324,7.8666,8.1028,8.18,8.2266,8.2453,8.1526,8.1601,8.2503,8.2357,8.1841,8.1079,8.0868,7.9823,7.7715,7.0898,6.85,6.8909,6.6411,6.6536,6.806,6.7145,6.7867,6.9194,0.0,0.0,0.0,0.0,0.0,0.0,0.0,0.0,0.0,3.5208,3.7555,4.0248,4.3062,4.5296,4.742,4.943,4.9093,4.8494,4.7836,0.0,0.0,4.4317,4.2663,4.2581,4.4366,4.6877,4.9326,5.1681,5.3788,5.5344,5.6325,5.6596,5.6867,5.7103,5.7103,5.633,5.4737,5.0728,4.8201,4.6656,4.4526,4.3311,0.0,0.0,0.0,0.0,0.0,0.0,0.0,0.0,0.0,0.0,0.0,0.0,0.0,0.0,0.0,0.0,0.0,0.0,0.0,0.0,0.0,0.0,0.0,0.0,0.0,0.0,0.0,0.0,0.0,0.0,0.0,0.0,0.0,0.0,0.0,0.0,0.0,5.9936,6.3376,0.0,6.3885,6.4629,6.6582,6.9994,7.2042,7.4622,7.7932,7.9193,8.072,8.2671,8.3384,8.363,8.3455,8.4237,8.4338,8.3847,8.3533,8.3721,8.4421,8.4345,8.4337,8.4403,8.4335,8.367,8.2439,8.0015,7.6313,7.1987,6.9952,6.9913,7.0991,7.1236,7.2333,7.3829,0.0,0.0,0.0,0.0,0.0,0.0,0.0,0.0,0.0,3.6629,3.9869,4.3364,4.6542,4.9259,5.1661,5.3653,5.2926,5.1838,5.0593,0.0,4.6048,4.6107,4.4651,4.5259,4.8342,5.0575,5.3033,5.5716,5.7476,5.8693,5.9422,5.9167,5.9167,5.9422,5.9422,5.9422,5.9186,5.5683,5.2346,4.9221,4.7079,4.628,4.6122,0.0,0.0,0.0,0.0,0.0,0.0,0.0,0.0,0.0,0.0,0.0,0.0,0.0,0.0,0.0,0.0,0.0,0.0,0.0,0.0,0.0,0.0,0.0,0.0,0.0,0.0,0.0,0.0,0.0,0.0,0.0,0.0,0.0,0.0,6.198,6.5397,6.6942,7.0532,7.2641,7.193,7.2612,7.4381,7.7467,7.9454,8.189,8.4944,8.6121,8.7193,8.8237,8.8569,8.8302,8.7465,8.7731,8.7731,8.7465,8.6883,8.6989,8.7647,8.7379,8.7128,8.6978,8.6978,8.6324,8.5277,8.5277,8.2316,7.7584,7.5861,7.5707,7.6553,7.7123,7.8046,7.9015,0.0,0.0,0.0,0.0,0.0,0.0,0.0,0.0,3.7768,3.8184,4.2614,4.6995,5.0336,5.3753,5.668,5.8912,5.6325,5.3974,5.2485,4.8196,4.5593,4.532,4.6055,4.8295,5.2211,5.4618,5.7255,6.0216,6.1028,6.1772,6.2468,6.1738,6.1806,6.2502,6.2502,6.2522,6.2473,6.0984,5.7887,5.372,5.0905,5.0418,5.0959,0.0,0.0,0.0,0.0,0.0,0.0,0.0,0.0,0.0,0.0,0.0,0.0,0.0,0.0,0.0,0.0,0.0,0.0,0.0,0.0,0.0,0.0,0.0,0.0,0.0,0.0,0.0,0.0,0.0,0.0,0.0,0.0,0.0,6.2452,6.8395,7.303,7.3706,7.7717,8.0015,7.8985,8.1131,8.3362,8.5124,8.7555,8.9718,9.1364,9.1441,9.2172,9.3749,9.3056,9.3018,9.371,9.2979,9.2941,9.3672,9.2056,9.171,9.2518,9.1672,9.0402,8.8872,8.8872,8.7863,8.6286,8.6286,8.6247,8.6055,8.4324,8.417,8.4931,8.4931,8.4931,8.47,0.0,0.0,0.0,0.0,0.0,0.0,0.0,3.6069,3.8038,3.9277,4.4435,4.9407,5.309,5.6243,5.8979,6.1264,5.7239,5.4585,5.4541,0.0,4.6719,4.7685,4.9384,5.2185,5.6233,5.8006,6.0114,6.2564,6.3328,6.3802,6.4005,6.3802,6.4072,6.4803,6.4803,6.5505,6.665,6.6236,6.5463,6.3862,5.6337,5.3492,5.3556,0.0,0.0,0.0,0.0,0.0,0.0,0.0,0.0,0.0,0.0,0.0,0.0,0.0,0.0,0.0,0.0,0.0,0.0,0.0,0.0,0.0,0.0,0.0,0.0,0.0,0.0,0.0,0.0,0.0,0.0,0.0,6.8224,7.1942,7.0781,7.4143,7.8042,8.1594,8.4164,8.6183,8.7551,8.8902,9.0671,9.2979,9.4364,9.5557,9.6634,9.6711,9.6634,9.6442,9.6249,9.5634,9.4643,9.4412,9.4104,9.3672,9.321,9.3133,9.3364,9.3133,9.2749,9.2334,9.2334,9.171,9.0671,9.0056,8.9432,8.8624,8.6324,8.5555,8.5778,8.5778,8.5778,8.5632,0.0,0.0,0.0,0.0,0.0,0.0,0.0,3.7077,3.9124,4.0665,4.6403,5.1653,5.5126,5.8186,6.0622,6.2265,5.8081,5.5125,5.4601,5.0899,4.943,5.1079,5.3672,5.6832,6.0607,6.2144,6.3869,6.5865,6.5933,6.617,6.6474,6.6136,6.6406,6.7117,6.7117,6.792,6.9237,6.8945,6.9342,6.9685,6.3579,6.0747,5.9849,5.66,5.524,5.4785,5.2697,5.1788,5.1352,4.9727,0.0,0.0,0.0,0.0,0.0,0.0,0.0,0.0,0.0,0.0,0.0,0.0,0.0,0.0,0.0,0.0,0.0,0.0,0.0,0.0,0.0,0.0,0.0,0.0,7.6296,8.1252,8.2568,8.3314,8.5101,8.8893,9.0809,9.2469,9.4222,9.4826,9.5749,9.725,9.7788,9.825,9.875,9.8788,9.8557,9.8057,9.8057,9.7596,9.6605,9.6605,9.6336,9.5826,9.5826,9.5826,9.5826,9.5441,9.5095,9.4749,9.4403,9.3749,9.2941,9.2441,9.1941,0.0,0.0,0.0,0.0,0.0,8.7701,8.747,0.0,0.0,0.0,0.0,0.0,0.0,0.0,3.8478,4.0542,4.2333,4.8217,5.3319,5.6346,5.9302,6.1409,6.2261,5.8595,5.5462,5.3669,5.2766,5.3276,5.5334,5.8479,6.1665,6.4884,6.6339,6.7704,6.9113,6.8402,6.8402,6.9079,6.8368,6.8501,6.941,6.9499,7.0187,7.1294,7.0826,7.1584,7.3043,7.1737,6.9922,6.7525,6.323,6.1854,6.1715,5.8127,5.586,5.4359,5.2746,0.0,0.0,0.0,0.0,0.0,0.0,0.0,0.0,0.0,0.0,0.0,0.0,0.0,0.0,0.0,0.0,0.0,0.0,0.0,0.0,0.0,0.0,0.0,0.0,8.4542,9.0171,9.5297,9.4057,9.3364,9.5335,9.698,9.8288,9.9135,9.9135,9.9135,9.9211,9.9135,9.9135,9.9211,0.0,0.0,0.0,0.0,9.8981,9.9096,9.8904,9.8826,9.8843,9.8843,9.8871,9.8848,9.8077,9.7298,9.6488,9.5726,9.4879,9.4069,9.3954,9.3877,9.3483,9.0338,8.9517,9.0047,9.0047,9.0047,8.9701,0.0,0.0,0.0,0.0,0.0,0.0,0.0,3.891,4.1227,4.4523,4.882,5.2686,5.5601,5.8032,6.0123,6.1866,5.7821,5.4959,5.4409,5.5141,5.7067,6.0422,6.2536,6.4762,6.7218,6.8199,6.8808,6.9113,6.8944,6.8944,6.9113,6.8944,6.9676,7.1208,7.1891,7.3526,7.5836,7.7038,7.7891,7.8368,7.875,7.5162,6.9488,6.7904,6.6176,6.4446,6.3002,6.234,6.1861,6.0241,5.9646,5.9206,5.7116,5.4694,0.0,0.0,0.0,0.0,0.0,0.0,0.0,0.0,0.0,0.0,0.0,0.0,0.0,0.0,0.0,0.0,0.0,0.0,0.0,8.4797,9.074,9.6365,10.1481,10.1799,10.0914,9.9298,9.9981,10.0894,10.1789,10.1212,10.1096,10.1789,10.1212,10.1096,10.1789,10.1212,10.1481,10.2904,10.0914,10.0212,10.0789,9.9481,9.8913,9.9112,0.0,0.0,9.9436,9.928,9.8736,9.7915,9.772,9.7176,9.6316,9.5617,9.4928,9.4186,9.2434,9.1441,9.0941,9.0941,9.0941,9.0787,0.0,0.0,0.0,0.0,0.0,0.0,0.0,3.9074,4.1022,4.351,4.7237,5.0611,5.3127,5.4761,5.609,5.714,5.5486,5.4732,5.5588,5.8103,6.0992,6.4244,6.6315,6.8267,7.0128,7.0906,7.1109,7.0737,7.0737,7.0737,7.0793,7.1724,7.2806,7.408,7.5396,7.7305,7.9503,8.0352,8.1046,8.1636,8.2039,7.9764,7.5946,7.3876,7.16,6.9412,6.8605,6.7801,6.6898,6.5318,6.451,6.3886,6.2001,5.9775,5.7326,0.0,0.0,0.0,0.0,0.0,0.0,0.0,0.0,0.0,0.0,0.0,0.0,0.0,0.0,7.1356,7.5993,0.0,8.694,9.2854,9.7364,10.1289,10.4713,10.5601,10.5212,10.2905,10.3289,10.3712,10.3289,10.3212,10.3212,10.3212,10.2789,10.2789,10.3212,10.2789,10.3108,10.4095,10.2907,10.2521,10.3,10.2194,10.1788,10.1915,10.1481,10.1407,10.1501,10.0606,9.9945,9.9512,9.8656,9.8028,9.7561,9.6705,9.5854,9.5018,9.4374,9.3502,9.2589,9.2165,9.1952,9.1672,0.0,0.0,0.0,0.0,0.0,0.0,0.0,0.0,0.0,4.2305,4.5586,4.8532,5.0462,5.1416,5.2049,5.228,5.4124,5.5897,5.7413,6.1671,6.5194,6.7553,6.9722,7.1447,7.28,7.3409,7.3477,7.3037,7.3255,7.3391,7.3413,7.5331,7.6636,7.746,7.9296,8.1074,8.2668,8.2994,8.3514,8.4115,8.4262,8.3765,8.259,7.9784,7.7121,7.4786,7.3964,7.2239,7.022,6.9389,6.8238,6.7053,6.618,6.4684,6.2546,5.9065,5.8417,0.0,0.0,0.0,0.0,0.0,0.0,0.0,0.0,6.6195,6.8748,7.4241,7.69,8.0176,8.6554,9.0666,9.4827,10.0211,10.331,10.5611,10.7499,10.8581,10.8501,10.6703,10.6786,10.641,10.48,10.5097,10.4982,10.4212,10.3982,10.3993,10.4215,10.4186,10.449,10.5109,10.5013,10.5113,10.5398,10.5092,10.4999,10.5005,10.4105,10.3815,10.3817,10.2219,10.1397,10.1085,9.9409,9.8708,9.863,9.7769,9.6989,9.6331,9.6136,9.5533,9.4616,9.3478,9.2842,9.234,0.0,0.0,0.0,0.0,0.0,0.0,0.0,0.0,0.0,4.3633,4.5939,4.7823,4.9032,5.0008,5.0772,5.1139,5.693,6.049,6.0366,6.6228,7.0039,7.0736,7.2293,7.351,7.4356,7.4434,7.4762,7.5337,7.6324,7.6845,7.6867,7.8896,8.0353,8.1357,8.2965,8.4337,8.548,8.6892,8.7165,8.6647,8.7399,8.6738,8.5286,8.4205,8.1819,7.9008,7.8222,7.5028,7.1454,7.3435,7.2129,6.9926,7.1166,6.979,6.6953,6.3296,6.0554,5.8379,5.689,5.8505,6.1646,6.6156,6.7575,7.0005,0.0,7.9572,8.047,8.485,8.7674,9.0099,9.2438,9.6286,10.0279,10.3992,10.6902,10.96,11.2116,11.2815,11.2584,11.161,11.0084,10.8612,10.7418,10.6713,10.5905,10.4982,10.4289,10.431,10.5302,10.5419,10.6184,10.8016,10.7309,10.729,10.8089,10.6615,10.6018,10.6211,10.5311,10.5016,10.5191,10.4292,10.3394,10.2613,10.0816,10.0113,9.9995,9.9136,9.8706,9.855,9.7769,9.7307,9.6785,9.4734,9.3438,9.2697,0.0,0.0,0.0,0.0,0.0,0.0,0.0,0.0,0.0,0.0,0.0,4.4892,4.5557,4.6665,4.7866,4.9015,5.535,5.9889,6.1321,6.802,7.2427,7.346,7.5408,7.6694,7.7197,7.8089,7.8737,7.9095,7.9556,8.0021,8.0521,8.2469,8.3822,8.4726,8.6483,8.7759,8.8647,8.9307,8.9417,8.9106,8.9454,8.8904,8.7729,8.5967,8.3088,7.9744,7.7511,7.4835,0.0,0.0,7.212,7.1927,7.2687,7.1509,6.929,6.6322,6.4503,6.3537,6.3886,6.6461,6.9598,7.1757,7.5639,8.0186,8.5036,8.6647,8.8444,9.3092,9.5288,9.7326,10.0519,10.2981,10.5717,10.919,11.0789,11.2196,11.389,11.3511,11.252,11.1003,11.0201,10.9622,10.9022,10.8907,10.8595,10.7886,10.7406,10.7408,10.7992,10.8489,10.921,11.0184,11.0394,11.0482,11.0518,10.931,10.8511,10.8108,10.6702,10.6087,10.6211,10.5312,10.4219,10.2812,10.1601,10.0781,10.0195,9.9375,9.8984,9.8906,9.8047,9.7341,9.6732,9.5667,9.4527,9.3483,0.0,0.0,0.0,0.0,0.0,0.0,0.0,0.0,0.0,0.0,0.0,0.0,0.0,4.4501,4.5829,4.7292,5.3413,5.8466,6.1489,6.8681,7.3741,7.577,7.7913,7.9472,8.0339,8.1458,8.2294,8.2761,8.3071,8.3519,8.4131,8.6025,8.7188,8.7786,8.9606,9.0721,9.1289,9.1289,9.1289,9.1289,9.1033,9.0188,8.8757,8.6012,8.2429,7.8602,7.5985,7.3098,0.0,0.0,6.9806,7.045,7.1441,7.0922,6.9644,6.7925,6.7303,6.7569,6.9436,7.3056,7.6797,7.8631,8.4293,8.9909,9.1867,9.3996,9.6574,10.0202,10.1799,10.3491,10.6521,10.8021,10.9705,11.2689,11.3716,11.4304,11.52,11.3883,11.2101,11.022,10.9299,10.8895,10.8901,10.9598,10.9999,10.9815,10.9585,10.9708,11.0199,11.1308,11.2106,11.2289,11.3191,11.3297,11.2617,11.1797,11.0781,10.9609,10.8086,10.7304,10.6992,10.6211,10.4883,10.3203,10.2617,10.1797,10.0898,9.9804,9.9375,9.9258,9.8125,9.7344,9.6796,9.6616,9.5443,9.3869,0.0,0.0,0.0,0.0,0.0,0.0,0.0,0.0,0.0,0.0,0.0,0.0,0.0,4.4663,4.5562,4.6457,5.2243,5.7361,6.0884,6.8385,7.4221,7.7571,7.9282,8.1234,8.3493,8.3599,8.4344,8.5867,8.6977,8.7516,8.7572,8.9531,9.0465,9.0538,9.2226,9.3015,9.3015,9.3015,9.3015,9.2941,9.2097,9.0335,8.7837,8.4193,7.9853,7.5615,7.4608,0.0,0.0,6.6004,6.5113,6.3955,6.7132,6.7911,6.7621,6.7676,6.7737,6.8463,7.1626,7.6184,8.1591,8.804,9.3436,9.7836,10.0289,10.3482,10.5982,10.6087,10.7521,10.8713,10.879,11.0214,11.1786,11.2998,11.4784,11.6208,11.65,11.4586,11.25,11.0781,10.7695,10.5898,10.6718,10.7918,10.8909,10.9713,10.9786,11.0282,11.1412,11.31,11.4089,11.4414,11.5195,11.5195,11.4414,11.3593,11.2304,11.0508,10.9687,10.8789,10.789,10.7109,10.5703,10.4219,10.4101,10.3594,10.2695,10.1015,10.0312,10.0117,9.8359,9.7695,9.7656,9.7656,9.5919,9.3595,0.0,0.0,0.0,0.0,0.0,0.0,0.0,0.0,0.0,0.0,0.0,0.0,0.0,0.0,0.0,0.0,5.1544,5.5547,5.8754,6.6532,7.2013,7.4329,7.9284,8.2725,8.4246,8.588,8.7442,8.904,8.9436,8.9896,9.0426,9.107,9.14,9.1436,9.1987,9.2244,9.2244,9.2244,9.2244,9.206,9.0188,8.8483,8.6587,8.1578,7.6314,7.1217,0.0,0.0,6.278,6.2202,6.2639,6.3639,6.4825,6.5539,6.5955,6.5909,6.869,7.2579,7.6443,8.2445,8.9023,9.5191,10.0106,10.4202,10.7395,10.9021,10.9521,10.829,10.6806,10.5405,10.4295,10.4989,10.6802,10.9882,11.2697,11.5005,11.6614,11.5193,11.2617,10.8515,10.6992,10.5508,10.3515,10.4883,10.7115,10.9883,10.9883,11.0801,11.3014,11.4498,11.5503,11.6093,11.6406,11.6211,11.539,11.3906,11.2617,11.1406,11.0,10.8789,10.8008,10.7109,10.6406,10.5781,10.4687,10.3711,10.2812,10.1015,9.9961,9.9336,9.8164,9.7383,9.6953,9.75,9.6404,9.4632,0.0,0.0,0.0,0.0,0.0,0.0,0.0,0.0,0.0,0.0,0.0,0.0,0.0,0.0,0.0,0.0,0.0,5.3248,5.651,6.278,6.7728,7.0767,7.5083,7.8181,7.9778,8.136,8.3112,8.5018,8.6021,8.708,8.8219,8.9193,8.9638,8.9674,9.0555,9.0959,9.0904,9.0248,8.9816,8.9226,8.5847,8.3529,8.1516,7.5895,7.0949,0.0,0.0,0.0,5.9841,5.9092,6.0109,6.1896,6.2643,6.4328,6.6255,6.7366,7.1877,7.7762,8.3415,9.0078,9.6903,10.3098,10.729,11.0598,11.2791,11.3099,11.1983,10.9098,10.59,10.3087,10.1095,10.0496,10.1401,10.5116,10.7611,11.029,11.3789,11.1991,10.9491,10.7383,10.5508,10.3711,10.1797,10.2395,10.4609,10.8619,10.9692,11.101,11.3117,11.5111,11.6484,11.6992,11.7304,11.6914,11.5781,11.4687,11.3398,11.1914,11.0117,10.8984,10.8398,10.7617,10.6992,10.6601,10.5312,10.4219,10.3203,10.1094,9.9961,9.9336,9.8164,9.7383,9.6992,9.75,9.6836,9.5585,0.0,0.0,0.0,0.0,0.0,0.0,0.0,0.0,0.0,0.0,0.0,0.0,0.0,0.0,0.0,0.0,0.0,0.0,5.4095,5.7516,6.1747,6.694,6.738,6.8615,7.0969,7.1151,7.241,7.4883,7.7521,7.9654,8.136,8.3919,8.515,8.5297,8.7578,8.8607,8.8475,8.6756,8.5552,8.439,7.9391,7.5977,7.3247,6.7856,0.0,0.0,0.0,5.6489,5.5979,5.6813,5.787,5.9249,6.1155,6.466,6.8728,7.2152,7.7463,8.3966,9.206,9.8605,10.4694,11.119,11.4714,11.6418,11.6418,11.5687,11.361,10.8388,10.4609,10.1414,9.8753,9.6574,9.6193,9.9194,10.0701,10.341,10.8902,10.6083,10.4681,10.7812,10.3906,10.1094,10.1797,10.0904,10.2102,10.6406,10.8984,11.0898,11.1914,11.5117,11.6992,11.6992,11.7812,11.7383,11.5703,11.5586,11.4297,11.1914,11.0195,10.9414,10.9297,10.8398,10.7617,10.6719,10.5898,10.5,10.3984,10.1406,10.0312,10.0117,9.8398,9.7734,9.7695,9.7695,9.7226,9.6445,0.0,0.0,0.0,0.0,0.0,0.0,0.0,0.0,0.0,0.0,0.0,0.0,0.0,0.0,0.0,0.0,0.0,0.0,5.0354,5.4464,5.7732,5.9772,6.4259,6.7273,6.8503,6.9713,7.1249,7.3159,7.3278,7.4199,7.5905,7.5893,7.6251,7.6901,7.7439,7.771,7.7766,7.729,7.6993,7.6553,0.0,7.1302,6.9577,0.0,0.0,0.0,0.0,5.794,5.6904,5.7749,6.0782,6.4772,6.8413,7.1585,7.506,8.0288,8.6045,9.2107,9.8649,10.4311,10.9286,11.3621,11.5099,11.5407,11.4791,11.2983,10.9689,10.351,9.8099,9.3019,8.8074,8.9311,9.2668,9.747,10.3116,10.8782,11.4297,11.4101,11.2812,11.1093,10.9687,10.8008,10.5586,10.5701,10.609,10.6718,10.7206,10.9203,11.3183,11.5109,11.6289,11.6992,11.7187,11.6797,11.5781,11.4492,11.3203,11.1914,11.1406,11.0586,10.9297,10.9101,10.8515,10.7617,10.6093,10.5,10.3984,10.2109,10.0508,9.9297,9.8828,9.8281,9.7695,9.7695,9.7578,9.7187,0.0,0.0,0.0,0.0,0.0,0.0,0.0,0.0,0.0,0.0,0.0,0.0,0.0,0.0,0.0,0.0,0.0,0.0,0.0,5.0773,5.2836,5.3675,5.7066,5.933,6.0122,6.1389,6.2892,6.4603,6.5379,6.6673,6.8423,6.907,6.9638,7.0137,7.0807,7.1126,7.1129,7.0321,0.0,0.0,0.0,0.0,0.0,0.0,0.0,5.8356,5.8321,5.9944,6.2488,6.522,6.8349,7.1778,7.5639,7.9124,8.2972,8.8814,9.4206,9.9573,10.5514,11.0207,11.4099,11.6407,11.6407,11.4901,11.1483,10.8798,10.4706,9.6529,9.143,8.703,8.2281,8.4457,8.8568,9.3473,9.9758,10.6399,11.3202,11.3513,11.3006,11.3008,11.2383,11.1015,10.8593,10.8906,10.9297,10.9492,10.87,10.9501,11.2388,11.4214,11.539,11.5898,11.6601,11.6601,11.5781,11.4101,11.3008,11.25,11.2109,11.1211,10.9883,10.9883,10.9218,10.789,0.0,10.5508,10.4609,10.25,10.0781,9.9531,9.914,9.8476,9.7695,9.7695,9.7695,9.7578,0.0,0.0,0.0,0.0,0.0,0.0,0.0,0.0,0.0,0.0,0.0,0.0,0.0,0.0,0.0,0.0,0.0,0.0,0.0,0.0,4.8225,4.9081,4.9288,4.9798,5.0594,5.1331,5.2502,5.4009,5.6344,5.8342,6.0079,6.2273,6.3416,6.3696,6.5096,6.5775,6.5776,0.0,0.0,0.0,0.0,0.0,0.0,0.0,0.0,5.6767,5.7049,6.1837,6.8943,7.4861,7.7785,7.9646,8.347,8.7572,9.2103,9.7781,10.2193,10.6517,11.19,11.5599,11.81,11.86,11.7407,11.4203,10.7499,10.3582,9.8737,8.9081,8.5063,8.2345,7.9238,8.1275,8.5033,8.9961,9.5074,10.1514,11.0382,11.0187,11.0581,11.4492,11.3711,11.2383,11.1484,11.1406,11.1992,11.3398,11.2109,11.1289,11.1289,11.3515,11.4883,11.5,11.6211,11.6484,11.5703,11.4218,11.3281,11.3203,11.2383,11.1601,11.0781,11.0703,10.9687,10.8086,10.7109,10.6211,10.5312,10.289,10.1289,10.0195,9.9453,9.8554,9.7695,9.7695,9.7695,9.7695,0.0,0.0,0.0,0.0,0.0,0.0,0.0,0.0,0.0,0.0,4.0865,0.0,0.0,0.0,0.0,0.0,0.0,0.0,0.0,0.0,0.0,4.8181,4.8962,4.9817,5.0654,5.0818,5.1091,5.1445,5.1268,5.1751,5.2801,5.2487,5.3114,5.4515,5.466,5.5143,5.578,0.0,0.0,0.0,0.0,0.0,0.0,0.0,0.0,0.0,5.8215,6.2105,6.7782,7.7823,8.3726,8.7902,9.4033,9.8421,10.2319,10.759,11.0581,11.29,11.6099,11.7907,11.86,11.7303,11.5099,11.1414,10.4113,9.8307,9.2267,8.4527,8.038,7.7529,7.5661,7.928,8.5345,9.3945,9.9101,10.5507,11.5585,11.6093,11.6015,11.75,11.7383,11.6797,11.6015,11.5898,11.5703,11.5312,11.5,11.4883,11.4804,11.5898,11.6914,11.7617,11.6484,11.5898,11.5703,11.4804,11.3906,11.3203,11.3008,11.25,11.1718,11.0898,11.0,10.8984,10.7383,0.0,10.539,10.4219,10.2383,10.0312,10.0117,9.9101,9.7695,9.7695,9.7695,9.7617,0.0,0.0,0.0,0.0,0.0,0.0,0.0,0.0,0.0,4.2603,4.2913,4.2931,0.0,0.0,0.0,0.0,0.0,0.0,0.0,0.0,0.0,0.0,0.0,0.0,4.8702,4.9148,4.9409,4.9563,0.0,4.9248,4.9733,4.9275,4.9526,5.0357,5.0678,5.1055,5.1446,5.1889,5.2099,5.2178,5.2558,5.3188,0.0,0.0,0.0,0.0,5.8718,6.3233,6.9463,7.6652,8.4834,9.337,10.0991,10.579,10.9213,11.2983,11.4984,11.6407,11.8484,11.9715,11.9985,11.8292,11.4291,10.8306,9.9172,9.2465,8.5729,7.711,7.5127,7.4431,7.2806,7.7888,8.4256,9.0195,9.4726,10.1289,11.2109,11.25,11.3281,11.7812,11.8281,11.8086,11.7695,11.7695,11.75,11.7109,11.7109,11.6718,11.5781,11.6093,11.6718,11.7617,11.6406,11.5703,11.5703,11.4883,11.4101,11.3203,11.3203,11.2695,11.1914,11.1484,11.0586,10.9218,10.789,10.6719,10.539,10.4609,10.2695,10.0312,10.0312,9.9219,9.7695,9.7695,9.7695,9.7656,0.0,0.0,0.0,0.0,0.0,0.0,0.0,4.1887,4.2735,4.4659,4.4852,4.4308,4.2993,4.3057,4.3415,0.0,0.0,0.0,0.0,0.0,0.0,0.0,0.0,0.0,0.0,0.0,0.0,4.8117,4.8128,0.0,0.0,0.0,0.0,0.0,4.9113,4.953,4.9744,5.0565,5.0898,0.0,0.0,5.2543,0.0,0.0,0.0,0.0,0.0,6.3289,6.933,7.4403,8.2941,9.2994,10.1491,10.7793,11.2323,11.4093,11.5902,11.7699,11.9804,12.0908,12.1189,11.9292,11.3599,10.562,9.5038,8.7577,8.0402,7.1427,7.1095,7.2131,7.1406,7.6406,8.1913,8.5859,8.9453,9.5859,10.7617,10.8086,11.0,11.7383,11.8281,11.8281,11.8281,11.8281,11.8281,11.8281,11.8281,11.7695,11.6406,11.6093,11.6406,11.7304,11.6406,11.5898,11.5703,11.5117,11.4218,11.3203,11.3203,11.2812,11.2187,11.1797,11.0898,10.9492,10.8281,10.6914,10.539,10.4609,10.2695,10.0312,10.0312,9.9219,9.7695,9.7695,9.7695,9.7695,0.0,0.0,0.0,0.0,0.0,0.0,0.0,4.1846,4.2994,4.5303,4.5173,4.4571,4.3781,4.4417,4.4625,0.0,0.0,0.0,0.0,0.0,0.0,0.0,0.0,0.0,0.0,0.0,0.0,4.722,4.7263,0.0,0.0,0.0,0.0,0.0,0.0,4.9037,4.9749,5.0554,0.0,0.0,0.0,0.0,0.0,0.0,0.0,0.0,0.0,6.0284,6.3092,7.2845,7.7929,8.1704,9.0201,10.0487,10.9299,10.8788,11.1907,11.6286,11.9392,12.0908,12.0985,11.8523,11.2203,10.3984,9.3988,8.5353,7.7731,7.1707,7.0092,7.0413,7.2656,7.4252,7.7879,8.6054,8.832,9.3789,10.7383,10.9218,11.1406,11.7617,11.8281,11.8281,11.8281,11.8281,11.8281,11.8281,11.8281,11.8203,11.8086,11.7304,11.7304,11.8203,11.7304,11.6484,11.5703,11.5586,11.4804,11.3203,11.3203,11.3203,11.3008,11.1406,11.0586,11.0312,10.789,10.6289,0.0,10.4609,10.2695,10.0312,10.0312,9.9219,9.7695,9.7695,9.7695,9.7695,0.0,0.0,0.0,0.0,0.0,0.0,0.0,4.2684,4.402,4.6937,4.7222,4.6898,4.6183,4.6391,4.549,0.0,0.0,0.0,0.0,0.0,0.0,0.0,0.0,0.0,0.0,0.0,4.6519,4.6271,4.6338,0.0,0.0,0.0,0.0,0.0,0.0,4.8143,4.8963,4.983,0.0,0.0,0.0,0.0,0.0,0.0,0.0,0.0,0.0,0.0,6.2038,6.5744,7.0837,7.5793,7.672,8.4452,9.4985,10.4282,10.9481,11.3514,11.8815,12.1293,12.1793,11.9215,11.0585,10.0909,9.3886,8.3862,7.4865,7.0637,6.9914,7.0371,7.1406,7.2783,7.5375,8.0389,8.0585,8.4448,9.6749,9.7573,10.0896,11.16,11.3281,11.4883,11.8008,11.8281,11.8281,11.8281,11.8281,11.8281,11.8281,11.8008,11.789,11.8281,11.8008,11.7109,11.5781,11.5781,11.4883,11.3203,11.3203,11.3203,11.3203,11.1914,11.1093,11.0508,10.8398,10.6719,0.0,10.4609,10.2695,10.0312,10.0312,9.9219,9.7695,9.7695,9.7695,9.7695,0.0,0.0,0.0,0.0,0.0,3.9638,4.2099,4.3069,4.4511,4.7294,4.7867,4.7789,4.7298,4.6789,4.5279,4.2139,0.0,0.0,0.0,0.0,0.0,0.0,0.0,0.0,0.0,0.0,4.565,4.5723,4.5778,4.5848,0.0,0.0,4.6141,4.6392,0.0,0.0,0.0,0.0,0.0,0.0,0.0,0.0,0.0,0.0,0.0,0.0,0.0,0.0,0.0,0.0,0.0,7.0103,6.7265,7.1949,8.1374,9.5923,10.38,10.9116,11.5577,11.9508,12.1293,11.9215,10.9404,9.8841,9.3609,8.3113,7.3511,7.023,7.0027,7.0576,7.0832,7.1927,7.3566,7.5895,7.5701,7.8931,8.9429,9.0058,9.3815,10.5581,10.7495,10.9918,11.5117,11.7304,11.8281,11.8281,11.8281,11.8281,11.8281,11.8281,11.8281,11.8281,11.8281,11.7617,11.6211,11.5898,11.5,11.3593,11.3281,11.3203,11.3203,11.1992,11.1211,11.0508,10.8515,10.6914,0.0,10.4687,10.2812,10.0703,10.039,9.9219,9.7695,9.7695,9.7695,9.7695,0.0,0.0,0.0,0.0,0.0,0.0,0.0,4.2711,4.414,4.5707,4.6177,4.6352,4.6391,4.4919,4.3639,4.2865,0.0,0.0,0.0,0.0,0.0,0.0,0.0,0.0,0.0,0.0,4.5679,4.5803,4.5803,4.5861,4.5994,4.5997,4.6428,4.7174,0.0,0.0,0.0,0.0,0.0,0.0,0.0,0.0,0.0,0.0,0.0,0.0,0.0,0.0,0.0,0.0,0.0,0.0,0.0,6.6147,7.1115,8.2192,9.3152,10.2979,10.8779,11.4703,11.8908,11.8011,10.8903,9.8657,9.2844,8.3119,7.4371,7.1054,7.0407,7.0667,7.1605,7.1813,7.2395,7.4213,7.5975,8.0103,8.8807,9.0669,9.3796,10.0807,10.1603,10.3592,10.8902,11.4804,11.8281,11.8281,11.8281,11.8281,11.8281,11.8281,11.8281,11.8281,11.8281,11.789,11.6992,11.6093,11.5312,11.4492,11.3593,11.3203,11.3086,11.1406,11.0586,11.0508,10.7812,10.6719,0.0,10.4883,10.3203,10.1484,10.0586,9.9219,9.7695,9.7695,9.7695,9.7695,0.0,0.0,0.0,0.0,0.0,0.0,0.0,4.1087,4.2183,4.3888,4.4411,4.4843,4.5439,4.4538,4.3829,4.3624,0.0,0.0,0.0,0.0,0.0,0.0,0.0,0.0,0.0,0.0,4.5859,4.6565,4.6615,4.6957,4.7632,4.7656,4.7462,4.721,4.7766,4.8325,0.0,0.0,0.0,0.0,0.0,0.0,5.2953,0.0,0.0,0.0,0.0,0.0,0.0,0.0,0.0,0.0,0.0,0.0,0.0,7.2103,8.2153,9.2604,9.9115,10.3502,10.5794,10.3704,9.7007,9.004,8.7069,7.9725,7.3122,7.1567,7.121,7.1318,7.163,7.1744,7.2931,7.6458,7.707,7.9083,8.4754,8.8837,9.3615,9.9941,10.7998,11.359,11.5312,11.7187,11.8281,11.8281,11.8281,11.8281,11.8281,11.8281,11.8281,11.8281,11.7695,11.6992,11.6211,11.5312,11.4492,11.3593,11.3281,11.289,11.2304,11.1718,11.0508,10.8711,10.7304,10.6015,10.4883,10.3789,10.2617,10.1484,10.0586,9.9609,9.8515,9.7929,9.7695,9.7695,0.0,0.0,0.0,0.0,0.0,0.0,0.0,4.0093,4.1001,4.2185,4.2627,4.3308,4.4532,4.3378,4.2825,4.3472,0.0,0.0,0.0,0.0,0.0,0.0,0.0,0.0,0.0,4.5495,4.6158,4.7379,4.78,4.8338,4.8917,4.9244,4.8942,4.8153,4.7962,4.8446,0.0,0.0,0.0,0.0,0.0,0.0,5.2564,0.0,0.0,0.0,0.0,0.0,0.0,0.0,0.0,0.0,0.0,0.0,0.0,0.0,7.2793,8.0762,8.9787,9.4985,9.7504,9.5923,9.0489,8.5041,8.3038,7.7263,7.199,7.0886,7.065,7.0751,7.1097,7.0983,7.1944,7.5229,7.5976,7.7747,8.2371,8.7508,9.3258,9.9925,10.9093,11.4999,11.5309,11.7109,11.8281,11.8281,11.8281,11.8281,11.8281,11.8281,11.8281,11.8281,11.75,11.6797,11.6289,11.5117,11.4218,11.3711,11.3398,11.2695,11.1914,11.1601,11.0195,10.8008,10.7109,10.5898,0.0,10.3711,10.2695,10.1484,10.0586,9.957,9.8437,9.789,9.7695,9.7695,0.0,0.0,0.0,0.0,0.0,0.0,0.0,0.0,0.0,4.0606,4.0946,4.1803,4.3428,4.1612,4.095,0.0,0.0,0.0,0.0,0.0,0.0,0.0,0.0,0.0,0.0,4.558,4.6523,4.8192,4.9277,4.9834,4.991,5.0758,5.0666,4.9703,4.816,4.8755,0.0,0.0,0.0,0.0,0.0,0.0,0.0,0.0,0.0,0.0,0.0,0.0,0.0,0.0,0.0,0.0,0.0,0.0,0.0,0.0,0.0,0.0,0.0,8.7865,9.2123,9.2123,8.7524,8.2381,8.0029,7.5349,0.0,6.9413,6.9133,6.9448,7.0346,6.9884,6.9988,7.1858,7.3633,7.6567,8.1655,8.7194,9.3587,10.1192,10.6781,11.0112,11.0605,11.5309,11.8281,11.8281,11.8281,11.8281,11.8281,11.8281,11.8281,11.8203,11.7383,11.6914,11.6914,11.5195,11.4414,11.4414,11.3515,11.2695,11.1797,11.0898,10.9609,0.0,10.7109,10.6211,10.5312,10.4492,10.3203,10.1484,10.0586,9.9258,9.7773,9.7734,9.7695,9.7695,0.0,0.0,0.0,0.0,0.0,0.0,0.0,0.0,0.0,0.0,3.9906,4.0289,4.0843,4.0494,4.0635,0.0,0.0,0.0,0.0,0.0,0.0,0.0,0.0,0.0,0.0,4.6124,4.7108,4.8274,4.9867,5.0955,5.1618,5.2508,5.2074,5.0627,5.0819,5.1228,0.0,0.0,0.0,0.0,0.0,0.0,0.0,0.0,0.0,0.0,5.421,5.539,0.0,0.0,0.0,0.0,0.0,0.0,0.0,0.0,6.3632,6.5102,6.875,0.0,7.4696,7.4696,7.3998,7.3137,0.0,7.1918,7.1004,6.93,6.9518,7.0285,7.1202,7.0752,7.1647,7.6047,7.7148,7.8812,8.2681,9.2211,10.1392,10.8582,11.3396,11.5194,11.2806,11.6014,11.8281,11.8281,11.8281,11.8281,11.8281,11.8281,11.8008,11.7304,11.6484,11.6093,11.6093,11.4414,11.3515,11.3515,11.2617,11.1718,11.0898,11.0,10.8711,10.6992,10.6797,10.5898,10.4492,10.4297,10.3203,10.1484,10.0586,9.9648,9.8594,9.7969,9.7695,9.7695,0.0,0.0,0.0,0.0,0.0,0.0,0.0,0.0,0.0,0.0,0.0,0.0,0.0,0.0,0.0,0.0,0.0,0.0,0.0,0.0,0.0,0.0,0.0,0.0,4.5405,4.6371,4.7546,4.8853,5.0614,5.193,5.2805,5.327,5.2763,5.1482,5.1498,5.1454,0.0,0.0,0.0,0.0,5.4755,0.0,0.0,0.0,0.0,0.0,5.4698,5.5396,0.0,5.6891,5.7906,5.9109,0.0,0.0,0.0,0.0,6.2124,6.2593,6.3091,6.6224,6.9357,6.9357,6.9976,7.0484,7.0098,6.9851,6.9352,6.8079,6.8191,6.8946,7.0272,7.0218,7.1383,7.5735,7.7537,8.0966,8.8386,9.6381,10.4192,11.1593,11.4485,11.5816,11.5585,11.7187,11.8281,11.8281,11.8281,11.8281,11.8281,11.8281,11.789,11.6992,11.6211,11.5586,11.5195,11.3515,11.2617,11.2617,11.1718,11.0781,11.0,10.9492,10.8086,10.6093,10.6093,10.5195,10.3594,10.3594,10.2617,10.1015,10.0508,9.9531,9.8359,9.7851,9.7695,9.7695,0.0,0.0,0.0,0.0,0.0,0.0,0.0,0.0,0.0,0.0,0.0,0.0,0.0,0.0,0.0,0.0,0.0,0.0,0.0,0.0,0.0,0.0,0.0,4.4758,4.5582,4.6647,4.7969,4.9525,5.1574,5.296,5.3695,5.3962,5.3455,5.236,5.14,5.0969,0.0,0.0,5.3355,5.3579,5.5258,0.0,0.0,0.0,0.0,0.0,0.0,0.0,0.0,5.7602,5.8915,6.0041,6.0515,0.0,0.0,0.0,0.0,0.0,6.1582,6.6066,7.0359,6.9308,6.9894,7.0514,6.9657,6.8491,6.7441,6.678,6.6888,6.7671,6.9552,7.0096,7.1439,7.4961,7.8357,8.4602,9.6161,10.0589,10.519,11.2291,11.3499,11.4793,11.7304,11.8008,11.8281,11.8281,11.8203,11.8203,11.8281,11.8203,11.7695,11.6797,11.6093,11.5312,11.4297,11.2812,11.1992,11.1914,11.1015,11.0117,10.9297,10.8984,10.7695,10.5703,0.0,0.0,10.3086,10.3086,10.1992,10.0312,10.0312,9.9219,9.7695,9.7695,9.7695,9.7695,0.0,0.0,0.0,0.0,0.0,0.0,0.0,0.0,0.0,0.0,0.0,0.0,0.0,0.0,0.0,0.0,0.0,0.0,0.0,0.0,0.0,0.0,4.5204,4.564,4.6572,4.7563,4.8615,4.9687,5.2836,5.4465,5.4619,5.6046,5.5466,5.3197,5.2288,5.1862,5.1852,5.2947,5.3762,5.4492,5.5552,0.0,0.0,0.0,0.0,0.0,0.0,0.0,0.0,5.6527,5.8365,6.0587,5.9354,0.0,0.0,0.0,0.0,0.0,6.3792,6.8842,7.2053,6.622,6.6514,6.8002,6.7149,6.7327,6.7623,6.7466,6.8703,7.0551,7.3052,7.4188,7.6094,8.0385,8.6327,9.3632,10.2812,10.6405,10.9411,11.2808,11.5701,11.66,11.4216,11.6601,11.8281,11.8281,11.7617,11.75,11.8281,11.7617,11.6797,11.6015,11.5898,11.5,11.3398,11.3086,11.2617,11.1914,11.1015,11.0117,10.9218,10.7812,10.6914,10.6484,0.0,10.4883,10.3984,10.3984,10.25,10.0312,10.0312,9.9219,9.7695,9.7695,9.7695,9.7695,0.0,0.0,0.0,0.0,0.0,0.0,0.0,0.0,0.0,0.0,0.0,0.0,0.0,0.0,0.0,0.0,0.0,0.0,0.0,0.0,0.0,4.6834,4.6928,4.6934,4.69,4.8337,4.9942,5.1757,5.3807,5.5509,5.6829,5.6244,5.4779,5.2665,5.1837,5.1691,5.2087,5.2518,5.3411,5.4627,0.0,0.0,0.0,0.0,0.0,0.0,0.0,0.0,0.0,0.0,5.8335,6.0278,5.9527,0.0,0.0,0.0,0.0,0.0,6.3344,6.7429,7.082,6.8704,7.1497,7.4017,7.1225,7.0623,7.0598,7.0533,7.1245,7.278,7.5856,7.8696,8.2929,9.0156,9.5153,9.9833,10.48,10.6783,10.92,11.2686,11.4484,11.5619,11.5897,11.6992,11.7617,11.7617,11.6797,11.6484,11.6914,11.6484,11.6015,11.5117,11.5117,11.4492,11.3203,11.2695,11.2109,11.1211,11.0312,10.9414,10.8593,10.7304,10.6484,10.6015,0.0,10.4297,10.3515,10.3515,10.25,10.1015,10.0508,9.9531,9.8359,9.7851,9.7695,9.7695,0.0,0.0,0.0,0.0,0.0,0.0,0.0,0.0,0.0,0.0,0.0,0.0,0.0,0.0,0.0,0.0,0.0,0.0,0.0,0.0,4.7092,4.7819,4.8334,4.8487,4.8201,4.9784,5.1757,5.4078,5.5354,5.6906,5.8531,5.6205,5.413,5.2387,5.1549,5.1528,5.2098,5.2339,5.327,5.4664,0.0,0.0,0.0,0.0,0.0,0.0,0.0,0.0,0.0,0.0,0.0,0.0,0.0,0.0,0.0,6.2162,6.2481,6.3152,6.3876,6.7256,7.087,7.2143,7.5604,7.813,7.6173,7.4704,7.402,7.5168,7.5441,7.631,7.9191,8.3785,8.9726,9.7693,10.2214,10.5292,10.7295,10.841,11.0317,11.3897,11.4284,11.5186,11.7812,11.7383,11.6914,11.6718,11.5703,11.5195,11.539,11.5312,11.4883,11.4218,11.4414,11.4101,11.3203,11.25,11.1718,11.0586,10.9687,10.8789,10.8008,10.6914,10.6093,10.539,10.4414,10.3398,10.2617,10.2812,10.2304,10.1211,10.0586,9.9648,9.8594,9.7969,9.7695,9.7695,0.0,0.0,0.0,0.0,0.0,0.0,0.0,0.0,0.0,0.0,0.0,0.0,0.0,0.0,0.0,0.0,0.0,0.0,0.0,0.0,4.7023,4.7065,4.869,5.0282,5.1683,5.2726,5.4078,5.5814,5.8294,5.9227,5.8569,5.6747,5.4981,5.3275,5.2472,5.2115,5.2151,5.3047,5.3953,5.4843,5.5617,0.0,0.0,0.0,0.0,0.0,0.0,0.0,0.0,0.0,0.0,0.0,0.0,0.0,6.3753,6.4488,6.4754,6.5328,6.7794,7.1713,7.4966,7.4363,7.3368,7.3887,7.9118,7.7828,7.6838,8.1568,8.2458,8.2746,8.4004,8.9765,9.5336,9.8399,10.5186,11.0898,11.3515,11.5195,11.6718,11.7812,11.789,11.7695,11.7109,11.6992,11.6718,11.5898,11.4297,11.3711,11.4492,11.3789,11.3398,11.3281,11.4101,11.4101,11.3203,11.3086,11.2304,11.0586,10.9687,10.8789,10.789,10.6289,10.5586,10.539,10.3711,10.25,10.1797,10.2617,10.1914,10.039,10.0312,9.9258,9.7773,9.7734,9.7695,9.7695,0.0,0.0,0.0,0.0,0.0,0.0,0.0,0.0,0.0,0.0,0.0,0.0,0.0,0.0,0.0,0.0,0.0,0.0,0.0,0.0,4.7484,4.8616,4.9803,5.1238,5.2919,5.3833,5.5896,5.9179,6.0692,6.046,5.8569,5.6225,5.4489,5.327,5.1808,5.1448,5.1924,5.2266,5.3239,5.4636,5.494,5.5425,0.0,0.0,0.0,0.0,0.0,0.0,0.0,0.0,5.8255,5.9537,6.0151,6.2283,6.4488,6.4256,6.4979,6.6085,6.7191,7.1087,7.5034,7.5859,7.6435,7.7929,8.2342,8.3159,8.3823,8.6797,8.8131,8.937,9.1351,9.621,10.109,10.4786,11.0113,11.4492,11.6601,11.7383,11.789,11.8281,11.8281,11.8203,11.7812,11.6914,11.6093,11.5781,11.3711,11.25,11.289,11.2109,11.1797,11.2383,11.2695,11.2695,11.2383,11.1914,11.0703,10.8984,10.9218,10.8593,10.7109,10.5508,10.4687,10.4609,10.3398,10.2695,10.2383,10.2187,10.1719,10.1015,9.9922,9.875,9.7695,9.7695,9.7695,9.7695,0.0,0.0,0.0,0.0,0.0,0.0,0.0,0.0,0.0,0.0,0.0,0.0,0.0,0.0,0.0,0.0,0.0,0.0,4.5448,4.6467,4.7588,4.8813,5.0128,5.1674,5.3459,5.4813,5.7094,6.0306,6.1123,6.0225,5.7712,5.5524,5.4203,5.3581,5.2038,5.1966,5.2982,5.2642,5.3453,5.4896,5.4896,5.5335,0.0,0.0,0.0,0.0,0.0,0.0,0.0,0.0,5.8488,5.9691,6.0774,6.2718,6.4595,6.4565,6.5816,6.7206,6.7075,7.0235,7.4019,7.5775,7.8138,8.1312,8.6371,8.8114,8.9687,9.3476,9.4207,9.4643,9.6151,9.9959,10.3982,10.7491,11.2615,11.6601,11.8086,11.8281,11.8281,11.8281,11.8281,11.8086,11.7617,11.6484,11.539,11.4609,11.2617,11.1211,11.0703,11.0117,10.9999,11.0498,11.0897,11.1014,11.1006,11.0389,10.9297,10.7617,10.789,10.75,10.6289,10.4804,10.3984,10.3711,10.289,10.2304,10.1992,10.1406,10.1015,10.0703,9.9453,9.8476,9.7695,9.7695,9.7695,9.7695,0.0,0.0,0.0,0.0,0.0,0.0,0.0,0.0,0.0,0.0,0.0,0.0,0.0,0.0,0.0,0.0,0.0,0.0,4.54,4.6476,4.7074,4.7111,4.9384,5.1579,5.3416,5.5842,5.7578,5.8608,5.9321,5.8384,5.5871,5.487,5.439,5.4351,5.349,5.4029,5.5521,5.4638,5.4874,5.5792,5.5792,5.588,5.6008,0.0,0.0,0.0,0.0,0.0,0.0,0.0,5.8608,5.9227,6.2636,6.3709,6.4084,6.5871,6.7687,6.8924,6.8209,6.9868,7.2237,7.3901,7.7548,8.2883,9.1335,9.2231,9.3671,10.2019,10.1002,9.8301,9.7503,10.039,10.3388,10.5106,11.1912,11.7304,11.8203,11.8281,11.8281,11.8281,11.8281,11.7617,11.6015,11.5781,11.4687,11.2109,11.1093,10.9804,10.8086,10.8008,10.788,10.7598,10.8698,10.909,10.8883,10.909,10.8398,10.6719,10.5898,10.5508,10.539,10.4609,10.3711,10.2812,10.1992,10.1094,10.0312,10.0312,9.9765,9.8984,9.8984,9.8476,9.7695,9.7695,9.7695,9.7695,0.0,0.0,0.0,0.0,0.0,0.0,0.0,0.0,0.0,0.0,0.0,0.0,0.0,0.0,0.0,0.0,0.0,0.0,4.5272,4.5649,4.6179,4.6774,4.8611,4.9917,5.0471,5.2967,5.5666,5.8477,5.8679,5.7466,5.4919,5.449,5.4007,5.3426,5.364,5.4026,5.4454,5.4097,5.4593,5.5704,5.6203,5.6244,5.6124,0.0,0.0,0.0,0.0,0.0,0.0,0.0,0.0,0.0,6.2334,6.4558,6.651,6.6468,6.7787,6.9195,6.8986,7.1204,7.4219,7.7038,8.1815,8.7697,9.5001,9.5162,9.5838,10.3185,10.3282,10.19,10.1014,10.3319,10.5684,10.6987,11.1716,11.6015,11.8008,11.8281,11.8281,11.8281,11.8281,11.789,11.6797,11.6093,11.4883,11.3008,11.0898,10.9218,10.8086,10.6699,10.6189,10.67,10.7085,10.7204,10.709,10.7411,10.6601,10.4883,10.4687,10.4297,10.3594,10.2812,10.1914,10.1094,10.0781,10.0508,10.0312,9.9648,9.8867,9.8086,9.8086,9.7929,9.7695,9.7695,9.7609,9.7493,0.0,0.0,0.0,0.0,0.0,0.0,0.0,0.0,0.0,0.0,0.0,0.0,0.0,0.0,0.0,0.0,0.0,0.0,0.0,4.527,4.5769,4.6632,4.7912,4.922,5.0566,5.2883,5.4786,5.6202,5.6608,5.5807,5.3914,5.4476,5.48,5.498,5.5708,5.6018,5.5946,5.5576,5.5862,5.6658,5.713,5.742,5.7637,0.0,0.0,0.0,0.0,0.0,0.0,0.0,0.0,0.0,6.2619,6.45,6.6369,6.7199,6.8346,6.9556,7.084,7.3432,7.6702,8.0581,8.5714,9.1728,9.9069,10.1282,10.3081,10.7696,10.7412,10.5996,10.5293,10.6105,10.7401,10.8788,11.2382,11.5586,11.75,11.8086,11.8281,11.8281,11.8008,11.7383,11.6601,11.5703,11.4414,11.2304,11.039,10.8593,10.7109,10.5181,10.4401,10.4785,10.4984,10.4986,10.49,10.5418,10.5,10.3711,10.3281,10.2695,10.1914,10.1719,10.0898,9.9765,9.9765,9.9609,9.9258,9.9062,9.8476,9.7695,9.7695,9.7695,9.7695,9.7695,9.7562,9.7409,0.0,0.0,0.0,0.0,0.0,0.0,0.0,0.0,0.0,0.0,4.3031,0.0,0.0,0.0,0.0,0.0,0.0,0.0,0.0,0.0,4.5717,4.6534,4.7428,4.9413,5.2603,5.4261,5.4325,5.2759,5.3715,5.3732,5.2893,5.4689,5.632,5.781,5.872,5.9043,5.8856,5.8016,5.7773,5.7928,5.8182,5.8785,5.9493,5.8918,0.0,0.0,0.0,0.0,0.0,0.0,0.0,0.0,6.3234,6.3912,6.4656,6.7887,6.9149,7.0193,7.3398,7.6156,7.9446,8.4627,9.0054,9.6128,10.3789,10.9314,11.2917,11.3703,11.208,11.0512,10.9803,10.8984,10.8984,11.0586,11.3593,11.6015,11.6797,11.7695,11.8203,11.8086,11.7383,11.6601,11.5703,11.4883,11.3281,11.0703,10.9609,10.8008,10.539,10.371,10.2602,10.2319,10.2482,10.2484,10.2317,10.3308,10.3398,10.2695,10.1914,10.1015,10.0195,10.1015,10.0508,9.8867,9.8867,9.8437,9.7773,9.8554,9.8398,9.7695,9.7695,9.7695,9.7695,9.7695,9.7562,9.7407,0.0,0.0,0.0,0.0,0.0,0.0,0.0,0.0,0.0,0.0,0.0,0.0,0.0,0.0,0.0,0.0,0.0,0.0,0.0,0.0,4.5937,4.6288,4.8352,5.0449,5.2509,5.1764,5.1493,5.1807,5.2782,5.2805,5.1962,5.4957,5.6511,5.6938,5.8453,5.8774,5.81,5.6581,5.6124,5.6477,5.7767,5.7699,5.7052,5.8913,5.8758,0.0,0.0,0.0,0.0,0.0,0.0,0.0,6.3249,6.4333,6.5396,6.7486,6.9532,7.1843,7.5222,7.7792,8.1573,8.9997,9.897,10.6913,11.1297,11.4083,11.5005,11.2798,11.3315,11.38,11.2615,11.2012,11.1913,11.2499,11.4414,11.5781,11.6015,11.7383,11.7812,11.6406,11.6718,11.6406,11.4883,11.3984,11.2383,10.9804,10.8086,10.6093,10.3594,10.2319,10.1215,10.0485,10.051,10.0512,10.0483,10.0886,10.1015,10.0898,10.0703,10.0117,9.9297,9.9453,9.8984,9.7969,9.7969,9.7851,9.7695,9.789,9.7851,9.7695,9.7695,9.7695,9.7695,9.7695,9.7562,9.7356,0.0,0.0,0.0,0.0,0.0,0.0,0.0,0.0,0.0,0.0,0.0,0.0,0.0,0.0,0.0,0.0,0.0,0.0,0.0,0.0,0.0,4.734,4.9459,5.0821,5.1277,5.1002,5.0842,5.088,5.1853,5.268,5.3486,5.5594,5.7473,5.9039,5.998,5.974,5.8546,5.7332,5.7198,5.781,5.8703,5.8842,5.8596,5.9529,5.9065,5.7861,5.7491,0.0,0.0,0.0,0.0,0.0,0.0,0.0,6.5281,6.8631,7.0304,7.2298,7.7973,8.189,8.7055,9.8,10.6309,11.2306,11.419,11.5692,11.6085,11.4496,11.5207,11.549,11.3593,11.3389,11.3498,11.3202,11.4297,11.5117,11.5195,11.6289,11.6797,11.5898,11.5781,11.5312,11.3984,11.2695,11.1015,10.8789,10.7109,10.5195,10.3008,10.1512,10.0402,9.9504,9.9465,9.9465,9.9465,9.9997,10.0312,10.0312,9.9883,9.9219,9.8398,9.8398,9.8125,9.7695,9.7695,9.7695,9.7695,9.7695,9.7695,9.7695,9.7695,9.7695,9.7695,9.7695,9.7562,9.7361,0.0,0.0,0.0,0.0,0.0,0.0,0.0,0.0,0.0,0.0,0.0,0.0,0.0,0.0,0.0,0.0,0.0,0.0,0.0,0.0,0.0,4.9065,5.0556,5.1045,5.0461,5.1015,5.1083,5.0613,5.1126,5.3104,5.6466,5.6855,5.8765,6.1829,6.1802,6.0955,5.9466,5.8572,5.8533,5.909,5.937,5.9805,6.027,5.9689,5.903,5.8217,5.6742,5.7809,5.9816,5.9249,0.0,0.0,0.0,0.0,6.5017,6.9528,7.0774,7.2263,7.9569,8.6054,9.3529,10.4991,11.1118,11.4412,11.479,11.5682,11.6402,11.6184,11.6382,11.5898,11.3789,11.3906,11.3984,11.3281,11.3906,11.4414,11.4297,11.5117,11.5703,11.539,11.4687,11.3906,11.289,11.1211,10.9414,10.7695,10.6093,10.4414,10.2617,10.1094,9.9844,9.8828,9.8789,9.8789,9.8789,9.9492,9.9844,9.9844,9.9101,9.8398,9.7695,9.7695,9.7695,9.7695,9.7695,9.7695,9.7695,9.7695,9.7695,9.7695,9.7655,9.7653,9.7653,9.7609,9.7504,9.7407,0.0,0.0,0.0,0.0,0.0,0.0,0.0,0.0,0.0,0.0,4.3123,0.0,0.0,0.0,0.0,0.0,0.0,0.0,4.4427,0.0,0.0,5.0846,5.1281,5.1732,5.2238,5.1077,5.1082,5.2361,5.1088,5.4027,6.0752,5.9408,6.0172,6.2701,6.2014,6.1268,6.0388,5.8186,5.7013,5.6635,5.7424,5.7409,5.6943,5.7525,5.7676,5.7521,5.7284,5.8384,6.0024,6.0687,6.157,0.0,0.0,0.0,6.546,6.7662,6.9764,7.2266,7.6306,8.6972,9.8613,10.5313,11.0483,11.4204,11.4799,11.5389,11.5498,11.4606,11.4586,11.4687,11.4414,11.3789,11.3281,11.3203,11.3906,11.4218,11.3515,11.4687,11.5195,11.3711,11.3398,11.2695,11.1093,10.9414,10.7617,10.6015,10.4883,10.3281,10.0781,10.039,9.9531,9.7929,9.7851,9.7851,9.7851,9.8008,9.8047,9.8047,9.7929,9.7812,9.7695,9.7695,9.7695,9.7695,9.7695,9.7695,9.7695,9.7695,9.7695,9.7695,9.7503,9.7433,9.742,9.7171,9.7237,9.7354,0.0,0.0,0.0,0.0,0.0,0.0,0.0,0.0,0.0,0.0,0.0,4.4507,0.0,0.0,0.0,4.5398,4.5364,4.5497,4.5835,4.6759,4.8285,5.0473,5.0653,5.0894,5.125,5.0688,5.0987,5.2144,5.1905,5.5209,6.1704,6.1392,6.2815,6.5612,6.3458,6.2106,6.1257,5.8852,5.7684,5.7554,5.7943,5.8753,5.9499,5.7986,5.8272,5.9353,5.844,5.8583,5.9469,6.0867,6.1574,6.2098,6.3385,0.0,0.0,0.0,6.79,7.1544,8.1013,9.0274,9.9047,10.6608,11.072,11.3089,11.4187,11.4617,11.4485,11.3496,11.3491,11.3789,11.3789,11.3906,11.3789,11.3281,11.3515,11.3515,11.2617,11.3086,11.3086,11.1914,11.1289,11.0508,10.9297,10.7617,10.6093,10.4883,10.3515,10.1992,10.039,9.9844,9.8984,9.7734,9.7695,9.7695,9.7695,9.7695,9.7695,9.7695,9.7695,9.7695,9.7695,9.7695,9.7695,9.7695,9.7695,9.7652,9.7511,9.7511,9.7444,9.7299,9.723,9.7199,9.7149,9.7053,9.7078,9.7145,0.0,0.0,0.0,0.0,0.0,0.0,0.0,0.0,0.0,0.0,0.0,0.0,0.0,0.0,0.0,0.0,4.619,4.6469,4.7604,4.7575,4.8276,4.9941,5.0101,5.0194,5.0265,5.0659,5.1277,5.2083,5.3157,5.6818,6.2789,6.3336,6.5719,6.9357,6.6114,6.4031,6.2808,6.0619,5.9655,5.9564,5.9404,6.0429,6.1899,6.027,6.0617,6.1926,6.0732,6.0324,6.048,6.1433,6.204,6.2454,6.2925,6.3239,0.0,0.0,0.0,7.0369,8.2869,8.9692,9.5394,10.4401,10.8315,11.0516,11.2615,11.3313,11.3288,11.2512,11.2593,11.2812,11.2617,11.3281,11.3593,11.3008,11.2695,11.2383,11.1992,11.1718,11.1211,11.039,10.9492,10.8515,10.75,10.5781,10.4492,10.3594,10.2109,10.0898,10.0,9.9336,9.8594,9.7734,9.7695,9.7695,9.7695,9.7695,9.7695,9.7695,9.7695,9.7578,9.7383,9.7617,9.7578,9.7422,9.7617,9.7604,9.7409,9.7409,9.7243,9.7003,9.6939,9.6914,9.6903,9.6827,9.6849,9.6914,0.0,0.0,0.0,0.0,0.0,0.0,0.0,0.0,0.0,0.0,0.0,0.0,4.6222,4.6417,4.6504,4.6513,4.7346,4.8308,4.9378,4.8822,4.8891,4.9941,5.0242,0.0,5.0489,5.1378,5.2236,5.3115,5.4747,5.8942,6.5388,6.5434,6.8457,7.3743,7.0461,6.7717,6.548,6.3845,6.2802,6.2227,6.141,6.1134,6.159,6.4541,6.525,6.472,0.0,0.0,0.0,0.0,0.0,6.4985,6.4238,6.4601,6.5123,0.0,0.0,0.0,7.6427,8.1371,8.6498,9.5751,10.1314,10.5606,10.9483,11.1183,11.1908,11.1598,11.1812,11.1718,11.0898,11.1406,11.1992,11.1992,11.1289,11.1015,11.1797,11.1211,11.0312,10.9492,10.8593,10.7383,10.5781,10.4101,10.2695,10.1797,10.0898,10.0,9.9101,9.9023,9.8594,9.7734,9.7695,9.7695,9.7695,9.7695,9.7695,9.7695,9.7695,9.7304,9.6601,9.7344,9.7265,9.6601,9.7383,9.7604,9.7409,9.7409,9.7243,9.6989,9.6708,9.6616,9.6613,9.6412,9.6442,9.6616,0.0,0.0,0.0,0.0,0.0,0.0,0.0,0.0,0.0,0.0,0.0,0.0,0.0,4.7932,4.7976,4.8027,4.8066,4.8241,4.8596,4.8489,4.8899,4.9882,5.0689,5.1123,5.1185,5.2246,5.3234,5.4116,5.4694,5.8165,6.4217,6.4654,6.7477,7.1995,6.9573,6.8412,6.8045,6.4831,6.3093,6.2494,6.2689,6.369,6.5008,6.4095,6.5848,0.0,0.0,0.0,0.0,0.0,0.0,0.0,0.0,0.0,6.446,6.3602,6.4592,6.7365,7.3819,7.7751,8.2015,9.0304,9.6109,10.0516,10.3192,10.6717,10.9101,10.7919,10.8981,10.9804,10.8398,10.9687,11.1093,11.1093,11.0781,11.0508,11.0312,10.9492,10.8593,10.7695,10.6406,10.5117,10.3906,10.2812,10.1719,10.0781,9.9829,9.92,9.9023,9.818,9.77,9.7695,9.7562,9.7327,9.6914,9.6367,9.6367,9.6914,9.6914,9.6797,9.6523,9.6797,9.6674,9.6252,9.6564,9.6856,9.7123,9.6974,9.6759,9.6522,9.6448,9.642,9.6403,9.6313,9.6358,9.642,0.0,0.0,0.0,0.0,0.0,0.0,0.0,0.0,0.0,0.0,0.0,0.0,0.0,0.0,4.8857,4.9005,4.8663,4.8485,4.8549,4.8724,4.923,5.0217,5.1103,5.1725,5.2088,5.321,5.4108,5.4687,5.5218,5.7926,6.2574,6.3629,6.623,6.9962,6.8177,6.8557,7.0349,6.7636,6.5908,6.5025,6.5216,6.6625,6.8624,6.8088,7.0148,0.0,0.0,0.0,0.0,0.0,0.0,0.0,0.0,0.0,0.0,6.3429,6.4178,6.6131,7.0887,7.3812,7.7422,8.5197,8.9965,9.3964,9.8789,10.2694,10.5507,10.5781,10.75,10.8515,10.7304,10.8593,10.9804,11.0117,10.9414,10.8906,10.8906,10.7809,10.6708,10.5809,10.4481,10.3309,10.2411,10.1404,10.0508,9.9922,9.8872,9.8301,9.8465,9.7606,9.7182,9.7304,9.7171,9.6778,9.6054,9.5508,9.5508,9.6054,9.6054,9.5898,9.5625,9.5855,9.5674,9.5256,9.5661,9.6261,9.686,9.6689,9.6467,9.6288,9.6288,9.6288,9.6288,9.6288,9.6288,9.6288,0.0,0.0,0.0,0.0,0.0,0.0,0.0,0.0,0.0,0.0,0.0,0.0,0.0,0.0,0.0,4.9285,4.9226,4.9285,4.9504,4.9567,5.0033,5.0972,5.1463,5.2182,5.3113,5.4269,5.4851,5.4851,5.6472,5.8496,6.0888,6.2508,6.506,6.8141,6.6708,6.836,7.2276,7.2231,7.1377,7.0015,6.9036,6.9839,7.2122,7.685,7.8346,0.0,7.9082,7.7891,0.0,7.1172,0.0,0.0,0.0,0.0,0.0,0.0,0.0,6.4893,0.0,0.0,0.0,8.0039,8.2656,8.6054,9.613,9.9177,10.1092,10.5508,10.7109,10.7695,10.789,10.789,10.8203,10.8984,10.7109,10.6093,10.7695,10.6294,10.4707,10.3883,10.2983,10.2083,10.1183,9.9824,9.8984,9.8945,9.7967,9.7361,9.7405,9.7368,9.7064,9.6484,9.6445,9.6015,9.5156,9.5117,9.5117,9.5156,9.5156,9.4687,9.3906,9.4485,9.4283,9.3561,9.4779,9.5775,9.6536,9.6574,9.646,9.6249,9.6249,9.6249,9.6249,9.6249,9.6249,9.6288,0.0,0.0,0.0,0.0,0.0,0.0,0.0,0.0,0.0,0.0,0.0,0.0,0.0,5.1185,5.1473,5.1629,5.1152,5.0644,5.0198,4.9706,4.995,5.1019,5.203,5.3015,5.4033,5.5098,5.5659,5.5659,5.6124,5.7348,5.9254,0.0,6.2673,6.597,6.6736,6.8105,6.9695,6.784,6.9311,7.27,7.039,7.2405,7.6697,7.5504,7.765,0.0,0.0,8.1035,8.1856,0.0,7.8707,7.65,0.0,0.0,0.0,0.0,0.0,0.0,6.6117,0.0,0.0,0.0,0.0,0.0,8.4028,8.7599,9.1595,9.7144,9.9022,10.0781,10.4609,10.5312,10.5508,10.6406,10.6406,10.6286,10.5896,10.4886,10.4006,10.3602,10.2218,10.0889,10.0106,9.9109,9.8244,0.0,9.7105,9.6924,9.7099,9.6689,9.6095,9.5302,9.4837,9.4492,9.4258,9.3456,9.3353,9.3978,9.3819,9.365,9.3413,9.356,9.3406,9.3009,9.3375,9.3877,9.4604,9.5868,9.5991,9.5374,9.5374,9.498,9.448,9.5134,9.5374,9.5451,0.0,0.0,0.0,0.0,0.0,0.0,0.0,0.0,0.0,0.0,0.0,0.0,5.2185,0.0,5.3383,5.3237,5.2483,5.1705,5.1054,5.0673,5.0817,5.1633,5.2806,5.3903,5.4975,5.5657,5.6162,5.6549,5.6549,5.725,0.0,0.0,0.0,0.0,6.4406,6.5915,6.7617,6.5765,6.8472,7.3985,7.3641,7.657,8.1031,8.0299,8.2277,0.0,0.0,0.0,8.6022,8.5035,8.3006,0.0,0.0,0.0,0.0,0.0,0.0,0.0,0.0,0.0,0.0,6.959,0.0,0.0,7.976,8.2709,8.6435,9.3199,9.5624,9.7734,10.1797,10.289,10.3398,10.4297,10.4804,10.4995,10.4609,10.3683,10.2901,10.2289,10.0695,9.9407,9.8936,9.8194,9.7561,9.7051,9.6745,9.6546,9.6449,9.6117,9.546,9.4458,9.4097,9.3711,9.3359,9.2578,9.2453,9.296,9.2763,9.2662,9.2658,9.2555,9.2398,9.2269,9.254,9.2872,9.3287,9.4672,9.4903,9.445,9.445,9.4143,9.3787,9.4681,9.4989,9.5104,0.0,0.0,0.0,0.0,0.0,0.0,0.0,0.0,0.0,0.0,0.0,5.352,5.442,0.0,0.0,0.0,5.3645,5.2728,5.2198,5.1989,5.2129,5.2634,5.3588,5.4681,5.5923,5.61,5.6588,0.0,0.0,0.0,0.0,0.0,0.0,0.0,0.0,6.2825,6.5896,6.5591,6.8912,7.4683,7.7459,8.1058,8.507,8.7822,8.9171,8.9721,9.0789,9.0253,8.8852,8.7302,8.4297,0.0,0.0,0.0,0.0,0.0,6.7734,0.0,0.0,0.0,0.0,0.0,7.0616,0.0,7.93,8.1027,8.3263,9.0779,9.3554,9.5507,9.8476,9.9726,10.0507,10.121,10.1992,10.2688,10.3394,10.2713,10.1709,10.0595,9.9021,9.8031,9.7988,9.7345,9.6924,9.6924,9.6592,9.6153,9.5583,9.5481,9.4897,9.3789,9.375,9.3398,9.2617,9.2296,9.2159,9.2157,9.1922,9.1836,9.1826,9.1592,9.1486,9.1511,9.2112,9.2402,9.2556,9.3249,9.3557,9.3557,9.3557,9.3518,9.3518,9.4489,9.4874,9.4989,4.7461,0.0,0.0,0.0,0.0,0.0,0.0,0.0,0.0,0.0,5.765,5.8,5.9568,5.865,0.0,0.0,5.6061,5.4529,5.3867,5.2582,5.2347,5.3568,5.3894,5.495,5.6879,5.7021,5.7477,0.0,0.0,0.0,0.0,0.0,0.0,0.0,6.0112,6.1667,6.445,6.7022,7.1586,7.7089,7.7742,8.2106,8.8193,8.8068,8.9746,9.2159,9.2583,9.3107,9.3234,9.1054,8.707,8.2457,0.0,0.0,0.0,7.0439,0.0,0.0,0.0,0.0,0.0,0.0,0.0,0.0,7.1828,7.2908,7.5551,8.123,8.2658,8.4546,8.9976,9.1647,9.2033,9.1537,9.6075,10.0205,10.1512,10.2106,10.1888,10.0602,9.9563,9.8864,9.8664,9.732,9.6445,9.6445,9.5752,9.5107,9.4674,9.4041,9.3416,9.2851,9.2851,9.2773,9.2617,9.2181,9.1942,9.1938,9.1534,9.1353,9.1314,9.1264,9.1261,9.1261,9.1399,9.1864,9.2518,9.2672,9.271,9.271,9.271,9.2326,9.1864,9.3403,9.3941,9.4172,4.8174,0.0,0.0,0.0,0.0,0.0,0.0,0.0,0.0,6.0873,6.1478,6.1897,6.2426,6.1741,6.1007,0.0,0.0,0.0,0.0,0.0,5.486,5.4027,5.4409,5.5675,5.7833,5.7507,5.8135,0.0,0.0,0.0,0.0,0.0,0.0,0.0,6.097,6.2616,6.5235,6.786,7.2461,7.8251,8.1023,8.5681,9.1054,9.1862,9.3237,9.4757,9.5166,9.5692,9.5496,9.0468,8.8437,0.0,8.1402,7.9641,7.8854,0.0,7.4053,7.3872,0.0,0.0,0.0,7.0667,0.0,0.0,0.0,7.0908,7.2063,7.7279,7.7648,7.8636,8.387,8.4801,8.5385,8.711,9.1735,9.5052,9.4927,9.8936,10.1192,9.9376,9.8401,9.779,9.7565,9.6788,9.6349,9.6426,9.5623,9.4995,9.4609,9.3383,9.2476,9.1953,9.1953,9.1953,9.1953,9.1916,9.1919,9.1871,9.1429,9.121,9.121,9.121,9.121,9.121,9.1672,9.1864,9.1902,9.2749,9.2595,9.1902,9.2326,9.1979,9.1364,9.2633,9.3364,9.3903,4.8834,0.0,0.0,0.0,0.0,0.0,0.0,0.0,6.1874,6.3816,6.5164,6.584,6.5601,6.5563,6.5394,6.5082,0.0,0.0,0.0,0.0,5.7958,5.5729,5.5738,5.6834,5.9011,5.8247,5.8874,6.1132,0.0,0.0,0.0,0.0,0.0,6.1312,6.2125,6.421,6.7191,6.8496,7.3198,8.0054,8.4743,8.8713,9.2186,9.5305,9.6365,9.6279,9.712,9.7549,9.6719,9.0312,8.9999,9.0974,8.3543,8.3417,0.0,0.0,0.0,0.0,0.0,0.0,0.0,0.0,0.0,7.0787,0.0,0.0,0.0,7.455,7.4363,7.4559,7.8034,7.8268,7.901,8.2331,8.6336,8.8409,8.6616,9.324,9.7737,9.6411,9.6359,9.6254,9.5861,9.5528,9.5598,9.6289,9.4955,9.4152,9.4308,9.2837,9.1751,9.1328,9.1289,9.1367,9.1562,9.1799,9.1919,9.1871,9.1429,9.121,9.121,9.121,9.121,9.1248,9.1941,9.2018,9.1787,9.2979,9.2749,9.1748,9.2287,9.1979,9.1325,9.2364,9.3133,9.3835,4.9787,5.0899,0.0,0.0,0.0,0.0,0.0,0.0,6.3879,6.5596,6.826,7.0537,7.189,7.1888,7.3209,7.682,7.0242,0.0,6.9728,0.0,0.0,6.1077,5.8894,5.8631,6.0688,5.9973,6.0135,6.1177,0.0,0.0,0.0,0.0,0.0,6.2339,6.2393,6.5204,6.9889,6.9259,7.5187,8.5049,8.6398,8.7673,8.9334,9.4268,9.552,9.4903,9.6736,9.7549,9.7461,0.0,9.3554,9.0859,0.0,8.6358,8.5117,7.9721,0.0,0.0,0.0,0.0,0.0,0.0,7.5126,0.0,0.0,0.0,7.0196,6.9226,0.0,7.005,7.052,0.0,0.0,7.1256,7.6637,8.025,7.8546,8.3703,8.8278,9.0071,9.3537,9.5338,9.421,9.2677,9.2784,9.5269,9.1902,9.0517,9.2391,9.1627,9.1207,9.1289,9.1289,9.1679,9.2422,9.2072,9.1919,9.1871,9.1429,9.121,9.121,9.121,9.121,9.121,9.1287,9.2133,9.3364,9.2864,9.2941,9.3364,9.2749,9.1979,9.1402,9.2979,9.3633,9.3941,5.0477,5.1746,0.0,0.0,0.0,0.0,0.0,0.0,6.7266,6.7572,6.9533,7.1885,7.4444,7.4228,7.5134,7.8186,7.5295,7.2893,0.0,0.0,0.0,0.0,6.2278,6.1477,6.4093,6.1817,6.1025,6.1965,6.147,0.0,0.0,0.0,0.0,6.4817,6.5734,6.9133,7.4199,7.4243,7.8813,8.6054,8.6909,8.8044,8.9804,9.4908,9.6644,9.6434,9.7281,9.7612,9.7187,0.0,9.3047,0.0,0.0,0.0,0.0,8.5986,0.0,0.0,0.0,0.0,0.0,0.0,0.0,0.0,7.0269,0.0,6.7647,0.0,0.0,0.0,0.0,0.0,0.0,0.0,7.2284,7.5026,7.2796,7.8128,8.3303,8.613,8.7962,8.9344,9.0134,9.0355,9.098,9.2315,8.9953,8.9121,9.0651,9.0044,8.9953,9.0547,9.0547,9.0976,9.1836,9.1993,9.2037,9.1914,9.1528,9.1299,9.121,9.121,9.1479,9.1979,9.2441,9.3056,9.3749,9.4441,9.4018,9.3018,9.3133,9.2364,9.1364,9.2556,9.3287,9.3864,5.1347,0.0,5.3964,5.6689,0.0,0.0,0.0,0.0,6.9319,6.9827,7.167,7.4394,7.8182,7.9049,8.0503,8.3498,8.256,8.0467,0.0,0.0,7.1815,0.0,0.0,0.0,0.0,0.0,6.2904,6.3622,0.0,0.0,0.0,0.0,0.0,0.0,6.8881,7.2963,7.8633,7.9043,8.2948,8.8898,8.9366,9.0688,9.2715,9.5652,9.733,9.8047,9.7773,9.7695,9.7148,9.3359,9.3594,0.0,9.2265,0.0,9.3077,0.0,0.0,0.0,8.4161,0.0,0.0,0.0,0.0,0.0,0.0,0.0,0.0,0.0,0.0,0.0,0.0,0.0,0.0,0.0,0.0,7.0744,6.9098,7.2991,7.7209,8.0485,8.1965,8.3673,8.602,8.6832,8.7645,8.8561,8.7064,8.6752,8.8316,8.8159,8.8515,8.9609,8.9883,9.0547,9.164,9.2032,9.2131,9.1965,9.1716,9.1507,9.1273,9.1273,9.1591,9.2172,9.3018,9.348,9.3787,9.5057,9.4518,9.2864,9.321,9.2479,9.1325,9.2441,9.321,9.3864,5.2512,5.2587,5.3413,5.5902,5.6989,5.917,6.4073,6.6436,6.8919,7.2402,7.563,7.9605,8.4895,8.8767,9.293,9.7899,9.3706,9.0444,8.9683,0.0,7.6363,0.0,0.0,7.0184,0.0,0.0,0.0,0.0,0.0,0.0,0.0,0.0,0.0,0.0,7.076,7.5733,8.2869,8.2249,8.7328,9.5726,9.5155,9.6444,9.8476,0.0,9.6796,9.8867,9.8008,0.0,0.0,9.7497,9.6953,0.0,0.0,0.0,0.0,0.0,0.0,0.0,0.0,0.0,0.0,8.0725,0.0,0.0,0.0,0.0,6.9988,0.0,0.0,0.0,0.0,0.0,0.0,0.0,0.0,0.0,0.0,6.7369,6.8175,7.1538,7.614,8.0048,8.2512,8.1412,8.1615,8.4276,8.2281,8.2148,8.4921,8.582,8.7031,8.8672,8.957,9.082,9.2539,9.2305,9.2217,9.2171,9.1973,9.1765,9.1488,9.1488,9.1406,9.1287,9.2172,9.2979,9.371,9.3749,9.3749,9.3595,9.2826,9.1979,9.1402,9.3056,9.3672,9.3941,5.6815,5.6717,5.657,5.6357,5.7518,6.0204,6.5293,6.9616,7.4147,7.9285,8.1858,8.643,9.4943,9.7005,9.9244,10.2894,10.0484,9.7818,9.544,8.9879,0.0,0.0,0.0,7.705,0.0,0.0,0.0,0.0,0.0,0.0,0.0,0.0,0.0,0.0,0.0,7.8125,8.4879,8.5856,8.9735,9.5232,9.5781,9.7219,9.89,0.0,9.789,9.8164,9.8476,9.8203,0.0,9.7695,9.789,9.8085,9.7772,9.7886,9.7723,9.5644,9.5242,0.0,0.0,0.0,9.2447,8.5512,0.0,0.0,0.0,0.0,0.0,0.0,0.0,0.0,0.0,0.0,0.0,0.0,0.0,0.0,0.0,6.4178,6.4609,6.6326,7.24,7.6082,7.5211,7.6643,7.8246,7.981,7.8843,7.9823,8.3637,8.48,8.6133,8.7851,8.8711,8.9961,9.1719,9.1636,9.1808,9.2217,9.2134,9.1976,9.1742,9.1572,9.1789,9.231,9.2995,9.3787,9.4604,9.5172,9.5095,9.4489,9.3642,9.3095,9.2903,9.348,9.371,9.4018,5.9806,5.9262,5.8353,5.7323,5.9793,6.3341,6.7595,7.3393,7.9419,8.5339,8.8176,9.3041,10.2017,10.3488,10.4712,10.6916,10.6284,10.3694,9.8671,9.6495,0.0,9.0464,8.6788,0.0,0.0,0.0,0.0,0.0,0.0,7.0912,0.0,0.0,0.0,0.0,0.0,8.0065,8.6194,8.8689,9.2337,9.6537,9.742,9.8471,0.0,0.0,9.871,9.7772,0.0,9.8164,9.7734,9.8047,9.8749,9.953,9.9843,9.9919,9.9753,9.8816,9.8143,9.7384,9.5884,9.6289,0.0,8.9417,8.7205,0.0,7.8236,0.0,0.0,0.0,0.0,0.0,0.0,0.0,0.0,0.0,0.0,0.0,0.0,6.2327,6.2899,6.345,6.8579,7.1765,7.1068,7.2647,7.4234,7.5526,7.5296,7.6591,8.0004,8.2027,8.414,8.6484,8.7969,8.9531,9.1289,9.1601,9.1949,9.2347,9.2347,9.2219,9.1984,9.1747,9.1894,9.2379,9.3293,9.4027,9.4643,9.5826,9.5788,9.4951,9.4373,9.3989,9.371,9.371,9.4095,9.4941,6.1433,6.0251,5.9127,5.926,6.3784,6.8267,7.0828,7.7534,8.4472,9.0551,9.4613,9.9555,10.6487,10.8694,10.9915,11.0695,11.1421,10.8403,10.0303,10.1899,0.0,0.0,9.2564,9.2161,8.9595,0.0,0.0,0.0,0.0,0.0,0.0,0.0,0.0,0.0,7.7301,8.1468,8.6782,9.0594,9.5073,9.9722,10.0091,10.0312,10.0312,10.0312,9.9177,9.7722,9.7733,9.7773,9.789,9.8711,9.9609,10.0508,10.1289,10.1601,10.1484,10.0586,10.039,9.9804,9.7249,9.6624,9.5844,9.2449,8.9714,0.0,0.0,0.0,8.3146,0.0,0.0,0.0,0.0,0.0,0.0,0.0,0.0,0.0,0.0,0.0,6.2648,6.2607,6.4741,6.7204,6.9766,6.9292,6.9568,7.1393,7.1644,7.2562,0.0,7.7812,8.1211,8.4726,8.7304,8.9492,9.1289,9.2109,9.2578,9.2617,9.2617,9.245,9.2175,9.1976,9.1776,9.1643,9.3062,9.371,9.3903,9.5595,9.5788,9.4989,9.4989,9.4489,9.3749,9.3749,9.4826,9.6519,6.3275,6.3894,6.5095,6.7198,6.9,7.1069,7.3788,8.1235,8.9244,9.673,10.3297,10.9608,11.6099,11.7683,11.798,11.6902,11.6418,11.4198,0.0,0.0,0.0,10.3397,10.209,10.0517,9.8392,9.3347,0.0,9.0111,0.0,0.0,8.1376,0.0,0.0,0.0,7.848,8.1711,8.5993,9.0364,9.5501,10.081,10.0419,10.0311,10.0189,0.0,9.8669,9.7761,9.8436,9.8672,9.8711,9.8906,10.0,10.1289,10.1484,10.1992,10.2383,10.1484,10.1289,10.1093,10.0389,10.0311,9.9724,9.7523,9.5529,9.33,0.0,0.0,0.0,0.0,0.0,0.0,0.0,0.0,0.0,0.0,0.0,0.0,0.0,0.0,0.0,6.2603,6.3314,6.393,6.4485,6.5573,6.6736,6.7846,6.8581,7.092,7.5312,0.0,8.0265,8.3828,8.6445,8.8945,9.1289,9.1523,9.1953,9.2617,9.2617,9.245,9.2175,9.1976,9.2125,9.2495,9.3332,9.4066,9.4758,9.5865,9.5788,9.4989,9.4989,9.4874,9.4681,9.4681,9.5365,9.6442,6.6122,6.8205,7.0224,7.1165,7.533,7.9209,8.1224,8.5894,9.2352,10.1294,10.66,11.1689,11.7106,11.9718,12.0677,11.9715,11.8484,11.6182,11.2498,0.0,0.0,10.801,10.7686,10.6293,10.3787,9.8929,0.0,9.3266,0.0,0.0,8.1725,0.0,0.0,0.0,7.7634,8.0555,8.4293,9.1045,9.6318,10.0196,10.0696,10.0897,0.0,10.0312,9.9374,9.8394,9.9257,9.9336,9.9062,9.9453,10.0508,10.1719,10.1992,10.25,10.2812,10.2304,10.2187,10.2187,10.2187,10.1914,10.1484,10.0896,9.9371,9.7534,9.5291,9.4113,9.2942,0.0,9.0237,0.0,0.0,0.0,0.0,0.0,0.0,0.0,0.0,0.0,0.0,0.0,6.2478,6.2532,6.2032,6.333,6.472,6.5938,6.6857,6.8642,0.0,0.0,7.8997,8.1708,8.5858,8.8906,9.0703,9.1875,9.25,9.2617,9.2492,9.2348,9.2212,9.2265,9.2458,9.2837,9.3833,9.4566,9.5066,9.5942,9.6019,9.5557,9.5557,9.5557,9.5557,9.5557,9.5865,9.648,6.9386,7.2574,7.4785,7.3258,8.1766,8.9362,9.1021,9.2263,9.6295,10.5409,10.8386,11.1196,11.4886,11.8514,12.0485,12.0292,11.8908,11.6391,11.2783,11.5009,11.4284,10.932,11.1109,11.0714,10.7521,10.3095,9.8728,0.0,0.0,0.0,0.0,0.0,7.433,7.3821,7.632,7.9361,8.3172,9.2008,9.6766,9.8552,10.0618,10.1484,10.1601,10.1601,10.0586,9.9258,10.0,9.9804,9.9297,10.0195,10.1015,10.1914,10.2695,10.289,10.289,10.289,10.289,10.289,10.289,10.2304,10.1992,10.2695,10.1797,10.0195,9.8744,9.7609,9.671,9.593,9.3691,9.2046,0.0,0.0,0.0,0.0,0.0,0.0,0.0,0.0,0.0,0.0,0.0,0.0,6.1784,6.231,6.3331,6.4683,6.5567,0.0,0.0,0.0,7.714,7.9296,8.4995,8.8711,9.0156,9.2422,9.3281,9.2732,9.2493,9.2279,9.2117,9.2693,9.2953,9.3006,9.4386,9.5066,9.522,9.598,9.6288,9.6288,9.6172,9.6211,9.6288,9.6288,9.6365,9.6673,7.1823,7.5856,7.8685,7.6979,8.5715,9.4577,9.9403,10.3714,10.7602,11.1182,11.6601,12.0092,12.0316,12.1597,12.1908,12.0408,11.9408,0.0,0.0,0.0,0.0,11.5099,11.5402,11.4714,11.2714,10.6696,10.2508,0.0,0.0,0.0,0.0,0.0,7.5852,7.6516,7.839,8.1824,8.6536,9.1759,9.4946,9.6794,9.9446,10.1015,10.1601,10.1601,10.1015,10.0117,10.0195,10.0195,10.0195,10.1094,10.1992,10.2695,10.289,10.289,10.289,10.289,10.289,10.289,10.289,10.2812,10.2695,10.289,10.2695,10.2383,10.2109,10.0781,9.957,9.9413,9.7343,9.4959,9.2963,0.0,0.0,0.0,0.0,0.0,0.0,0.0,0.0,0.0,0.0,6.8391,6.3825,6.291,6.2468,6.2021,6.2824,0.0,0.0,0.0,7.3727,0.0,8.2421,8.6601,0.0,0.0,9.2298,9.334,9.3279,9.2707,9.1682,9.3188,9.3739,9.3594,9.4602,9.5412,9.6095,9.6249,9.6288,9.6249,9.5518,9.5672,9.6288,9.6288,9.6711,9.7442,7.5977,7.9474,8.2774,8.3582,9.2319,10.0808,10.5715,11.1798,11.5315,11.3911,11.549,11.7014,11.7688,12.0499,12.1716,12.0408,11.96,11.8715,11.7907,11.6599,11.5918,11.5918,11.5407,11.4599,11.3407,10.7605,10.3115,9.9984,0.0,0.0,0.0,0.0,0.0,7.5813,7.7577,8.1919,8.8096,9.0634,9.349,9.6583,9.9725,10.1484,10.2304,10.2304,10.1719,10.1015,10.1484,10.1406,10.1015,10.1484,10.2187,10.289,10.289,10.289,10.289,10.289,10.289,10.289,10.289,10.289,10.289,10.289,10.289,10.289,10.289,10.1601,10.0312,10.0312,9.8594,9.621,9.3157,8.657,0.0,0.0,0.0,0.0,0.0,0.0,0.0,0.0,0.0,0.0,0.0,0.0,6.225,6.2009,6.2726,0.0,0.0,0.0,7.2593,0.0,0.0,0.0,8.9922,0.0,9.2724,9.2843,9.3191,9.2942,9.2237,9.3856,9.4497,9.4412,9.5288,9.5903,9.6288,9.6288,9.6288,9.6249,9.5826,9.5942,9.6365,9.6788,9.7173,9.7634,8.1986,8.5096,8.8577,9.1184,9.9711,10.7191,11.0415,11.7001,12.018,11.6388,11.4483,11.3994,11.5386,11.9004,12.0997,12.01,11.9292,11.8484,11.7781,11.6407,11.561,11.561,11.4714,11.3791,11.2714,10.7905,10.2888,0.0,0.0,0.0,0.0,0.0,0.0,0.0,7.8026,8.2379,0.0,0.0,9.3007,9.6797,10.0195,10.2109,10.289,10.289,10.25,10.1992,10.2695,10.2617,10.2187,10.2187,10.2617,10.3203,10.3203,10.3203,10.3086,10.3008,10.289,10.289,10.289,10.289,10.289,10.289,10.289,10.289,10.289,10.1719,10.0508,10.0312,9.8906,9.6718,9.3469,8.8883,0.0,0.0,0.0,0.0,0.0,0.0,0.0,0.0,0.0,0.0,6.4172,6.3675,6.333,6.2662,6.3099,0.0,6.5719,0.0,0.0,0.0,0.0,8.5623,8.8904,0.0,9.3227,9.2955,9.3274,9.3287,9.3041,9.457,9.5181,9.5066,9.5903,9.6288,9.6288,9.6288,9.6288,9.6288,9.6288,9.6403,9.6634,9.7288,9.775,9.8134,9.0712,9.4806,9.8003,9.8779,10.6912,11.3188,11.2603,11.7694,12.1381,12.0993,12.0804,12.0408,11.9788,12.0112,12.01,11.9292,11.8407,11.7907,11.7792,11.6907,11.6418,11.6418,11.561,11.4407,11.2703,10.8521,10.3087,0.0,0.0,8.6559,0.0,0.0,0.0,0.0,0.0,0.0,0.0,9.0859,9.4687,9.6797,10.0195,10.2109,10.289,10.289,10.2812,10.2812,10.289,10.3398,10.3984,10.3984,10.3984,10.4101,10.4101,10.4101,10.3906,10.3086,10.289,10.289,10.289,10.289,10.289,10.289,10.289,10.289,10.289,10.2187,10.1289,10.0508,9.8906,9.6874,9.4171,9.3277,9.1365,0.0,0.0,0.0,0.0,0.0,0.0,8.1532,0.0,0.0,6.8288,6.8076,6.6891,6.2891,6.2482,0.0,0.0,0.0,0.0,7.4474,7.8906,8.3911,8.9648,9.0933,9.2814,9.5374,9.4638,9.4064,9.3657,9.5383,9.5749,9.5066,9.5903,9.6288,9.6288,9.6288,9.6288,9.6288,9.6288,9.6749,9.7403,9.748,9.8481,9.9875,9.7676,9.9703,10.2283,10.5396,10.9689,11.3685,11.6793,11.9315,12.0793,12.0793,12.0793,12.0677,12.0292,11.9908,11.9215,11.8407,11.8023,11.76,11.71,11.6215,11.5484,11.4984,11.4214,11.3214,11.2022,10.828,10.4186,0.0,0.0,0.0,0.0,0.0,0.0,0.0,0.0,8.6328,8.9919,9.2695,9.5508,9.8242,10.1211,10.289,10.3594,10.3086,10.3515,10.4414,10.3906,10.4219,10.5117,10.5508,10.539,10.4883,10.4414,10.4219,10.3984,10.3203,10.289,10.289,10.289,10.289,10.289,10.289,10.289,10.289,10.289,10.1797,10.0703,10.039,9.8906,9.7383,9.6327,9.531,9.4294,0.0,0.0,0.0,0.0,0.0,0.0,0.0,0.0,0.0,0.0,6.669,6.5801,6.5633,0.0,0.0,0.0,0.0,0.0,7.4253,0.0,8.3079,8.7609,9.1093,9.3378,9.4397,9.4928,9.5012,9.4768,9.5807,9.6095,9.5788,9.6134,9.6288,9.6288,9.6288,9.6288,9.6288,9.6288,9.6788,9.7557,9.8096,9.9058,10.0183,10.3992,10.4907,10.7191,11.1813,11.3297,11.5291,11.9611,12.01,11.9908,11.9908,11.9715,11.96,11.96,11.91,11.8407,11.7484,11.7407,11.7215,11.6484,11.5995,11.5291,11.4407,11.3483,0.0,11.1511,10.852,10.5007,10.1216,9.7497,0.0,0.0,0.0,0.0,0.0,8.6015,8.8944,9.39,9.496,9.7109,9.9961,10.2109,10.3398,10.4101,10.3515,10.4219,10.539,10.4804,10.5312,10.6289,10.6914,10.6992,10.6797,10.539,10.4804,10.4414,10.3515,10.3086,10.289,10.289,10.289,10.289,10.289,10.289,10.289,10.289,10.1914,10.0898,10.039,9.8906,9.7695,9.7695,9.6912,9.6403,9.6875,0.0,0.0,0.0,0.0,0.0,0.0,7.8853,7.3408,6.9189,6.6929,6.627,6.7592,0.0,0.0,0.0,0.0,0.0,0.0,0.0,0.0,8.7613,9.1796,9.413,9.4677,9.5362,9.5739,9.5768,9.6116,9.6288,9.6288,9.6288,9.6288,9.6288,9.6288,9.6288,9.6326,9.6557,9.7173,9.7942,9.8557,9.9481,10.0481,10.9793,11.1587,11.4201,11.831,11.8985,11.9292,12.0216,11.96,11.91,11.91,11.8407,11.7792,11.7792,11.7792,11.7484,11.6611,11.6495,11.6495,11.6495,11.6495,11.6099,0.0,0.0,11.3214,11.1511,10.9311,10.5604,10.0384,0.0,0.0,8.8423,0.0,8.9375,8.8826,9.3042,9.4565,9.4101,9.75,9.9961,10.1601,10.25,10.3398,10.4219,10.4219,10.4687,10.5508,10.5508,10.6601,10.8008,10.8008,10.9101,11.0117,10.75,10.6093,10.5312,10.4414,10.3594,10.289,10.289,10.289,10.289,10.289,10.289,10.289,10.289,10.289,10.2383,10.0703,9.8906,9.7695,9.7695,9.8398,9.8125,9.5625,0.0,0.0,0.0,0.0,0.0,0.0,8.2203,7.7162,7.1146,7.0557,6.9807,6.8032,0.0,0.0,0.0,0.0,0.0,7.557,8.0661,0.0,9.097,9.2924,9.5068,9.7329,9.6223,9.6005,9.6574,9.6386,9.6288,9.6288,9.6288,9.6288,9.6288,9.6288,9.6288,9.6365,9.7173,9.8019,9.8788,9.8788,9.9865,10.1212,11.3608,11.4581,11.5796,11.7084,11.7792,11.8292,11.86,11.8407,11.8215,11.8215,11.7484,11.6907,11.6907,11.6907,11.6792,0.0,11.6495,11.6495,0.0,11.6495,11.6207,11.5599,11.4719,11.3902,11.3004,11.11,10.8519,10.4988,0.0,0.0,0.0,9.3354,9.3046,9.2343,9.4921,9.6874,9.8359,10.0117,10.1406,10.25,10.2812,10.3398,10.4219,10.4219,10.5117,10.6289,10.6289,10.7383,10.8906,10.8906,10.9609,11.0508,10.9609,10.8398,10.6914,10.5508,10.4883,10.4687,10.4687,10.4219,10.3906,10.4492,10.3789,10.3086,10.3711,10.289,10.1484,9.9765,9.9453,9.9297,9.8711,9.9765,10.0312,9.8906,9.9375,0.0,0.0,0.0,0.0,0.0,7.988,7.6052,7.113,7.1755,0.0,0.0,0.0,0.0,0.0,0.0,0.0,0.0,8.1668,0.0,9.0307,9.3281,9.5467,9.6787,9.6822,9.6771,9.6574,9.6386,9.6288,9.6288,9.6288,9.6288,9.6288,9.6288,9.6634,9.7134,9.7403,9.8404,9.9683,9.9683,10.0404,10.1289,11.5803,11.6187,11.6611,11.6907,11.7215,11.7407,11.7704,11.7484,11.7292,11.7292,11.6792,11.6495,11.6495,11.6495,0.0,11.6495,11.6495,11.6495,11.6495,11.6614,11.6412,11.5712,11.529,11.459,11.3595,11.241,0.0,10.8108,10.6002,10.2513,9.7616,9.7616,9.7304,9.6836,9.7929,9.9492,10.1289,10.1914,10.2383,10.289,10.289,10.3398,10.4219,10.4219,10.5195,10.6719,10.7109,10.8281,10.9804,11.0195,11.0898,11.1484,11.1211,11.0312,10.9101,10.6992,10.6211,10.5898,10.5586,10.5117,10.4804,10.539,10.4687,10.3906,10.4219,10.289,10.1289,10.0195,10.0117,10.0117,9.9609,10.0586,10.1406,10.0898,10.0508,9.9101,9.5664,0.0,0.0,0.0,0.0,0.0,0.0,7.5074,7.6479,0.0,0.0,0.0,0.0,0.0,7.7454,7.8932,8.3748,8.8125,9.1914,9.4453,9.6094,9.6953,9.7262,9.7156,9.6777,9.6947,9.707,9.7062,9.6944,9.7101,9.7354,9.6938,9.725,9.8019,9.8365,9.9144,10.0106,10.0106,10.0596,10.1289,11.6512,11.6512,11.6809,11.76,11.6984,11.6803,11.76,11.6984,11.6495,11.6495,11.6495,11.6495,11.6495,11.6495,11.6495,11.6495,0.0,0.0,11.6512,11.6788,11.6721,11.5887,11.6007,11.5394,11.3813,11.3102,11.1808,10.9786,10.6813,10.4214,10.1992,10.1992,10.1914,10.1797,10.1797,10.2187,10.289,10.289,10.289,10.289,10.289,10.3398,10.4101,10.4219,10.5195,10.6601,10.7617,10.8984,11.0586,11.1484,11.2383,11.3008,11.2304,11.1992,11.1484,10.8906,10.7617,10.6719,10.6015,10.5703,10.5586,10.5703,10.5586,10.5312,10.4414,10.289,10.1719,10.1601,10.1015,10.0508,10.039,10.1094,10.1719,10.1601,10.0781,9.8906,9.5429,0.0,0.0,0.0,0.0,0.0,7.6346,7.9901,8.1394,0.0,0.0,0.0,0.0,0.0,8.0063,8.25,8.6679,9.0937,9.5234,9.6133,9.6992,9.7773,9.7536,9.7259,9.7035,9.7843,9.8228,9.8291,9.8,9.8384,9.9123,9.8027,9.8096,9.8981,9.9798,10.0106,10.0183,10.0183,10.0712,10.1212,11.6909,11.6909,11.6904,11.6793,11.6599,11.6611,11.6803,11.6599,11.6495,11.6495,11.6495,11.6495,11.6495,11.6495,11.6495,11.6495,11.6495,11.6603,11.6891,11.7016,11.7091,11.7404,11.6211,11.5398,11.5209,11.36,11.222,11.1084,10.9184,10.7692,10.6484,10.5781,10.4804,10.3594,10.3594,10.3281,10.289,10.289,10.289,10.289,10.289,10.3008,10.3281,10.3906,10.4414,10.5,10.6484,10.7695,10.8906,11.039,11.1484,11.2383,11.3515,11.3398,11.25,11.0586,10.9414,10.8593,10.8515,10.7383,10.6601,10.7187,10.6914,10.6015,10.4492,10.3906,10.3203,10.1914,10.1992,10.2109,10.1406,10.1992,10.2383,10.1719,9.9765,9.6875,9.2812,9.0039,0.0,0.0,8.285,8.3085,7.9178,8.2108,8.3707,0.0,0.0,8.2757,8.2603,8.4234,8.5181,8.5273,8.8789,9.2461,9.6172,9.6992,9.7851,9.8672,9.781,9.7354,9.7316,9.7328,9.7678,9.8291,9.802,9.8408,9.9161,9.8691,9.9029,9.9798,9.999,10.0491,10.1019,10.1019,10.1087,10.1289,11.6789,11.6789,11.6701,11.6512,11.6495,11.6495,11.6495,11.6495,11.6495,11.6495,11.6495,11.6495,11.6495,11.6495,11.6688,11.71,11.7206,11.7194,11.6981,11.7587,11.8014,11.789,11.7094,11.6586,11.6289,11.5182,11.3914,11.2313,11.1303,11.0108,10.8593,10.8086,10.6992,10.5312,10.5,10.4297,10.3515,10.3515,10.3281,10.289,10.289,10.289,10.3008,10.3398,10.3906,10.4414,10.6093,10.75,10.8906,11.0586,11.1797,11.2695,11.3593,11.3906,11.3593,11.2695,11.1484,11.039,11.0,10.9218,10.8593,10.9101,10.8203,10.6992,10.5586,10.4804,10.3789,10.25,10.2617,10.2812,10.2304,10.2304,10.1914,10.0586,9.7889,9.4567,9.0664,8.8279,0.0,8.3008,8.5117,8.6172,8.457,8.6836,8.7382,8.4916,8.5734,0.0,8.4797,8.7922,8.9176,8.7969,9.1163,9.4355,9.7439,9.7795,9.8201,9.8669,9.7804,9.7409,9.7407,9.7678,9.8255,9.9016,9.8664,9.9183,10.0316,10.0108,10.0212,10.0712,10.1096,10.1289,10.1279,10.1279,10.1279,10.1279,11.6588,11.6588,11.6517,11.6314,11.6303,11.6303,11.6303,11.6303,11.6418,11.6495,11.6495,11.6495,11.6495,11.6599,11.699,11.7799,11.8397,11.8391,11.7484,11.8511,11.8885,11.8202,11.8115,11.7812,11.6992,11.6914,11.5703,11.3513,11.3201,11.188,10.9883,10.9804,10.8711,10.6914,10.6211,10.5312,10.4414,10.4414,10.3984,10.3281,10.3281,10.3281,10.3281,10.3086,10.3594,10.4414,10.6015,10.75,10.8984,11.1015,11.2187,11.289,11.3398,11.3984,11.4492,11.4804,11.3711,11.2109,11.1211,11.0781,11.0586,11.039,10.9297,10.8008,10.7109,10.5586,10.4101,10.3281,10.3008,10.289,10.289,10.2187,10.1015,9.9296,9.5971,9.2451,8.9179,0.0,8.5655,8.6328,8.7734,8.9179,9.0469,9.1914,9.1328,8.7812,8.9765,9.0,8.75,9.0897,9.2302,9.0974,9.3701,9.6417,9.8927,9.8501,9.8442,9.8681,9.7896,9.7611,9.7728,9.8472,9.9289,10.0007,9.9578,10.0306,10.171,10.1611,10.151,10.1597,10.2289,10.2097,10.151,10.1279,10.1279,10.1279,11.6895,11.6895,11.6604,11.5687,11.5495,11.5495,11.5495,11.5495,11.5676,11.6418,11.6495,11.6495,11.6495,11.7215,11.7808,11.8192,11.9784,12.0489,11.9589,11.9304,11.9196,11.9293,11.8007,11.7109,11.6992,11.6289,11.5616,11.5003,11.4516,11.371,11.2617,11.1797,11.0195,10.7812,10.7695,10.6797,10.5312,10.5312,10.5195,10.5117,10.5117,10.5117,10.5,10.4297,10.4101,10.4297,10.5312,10.5898,10.6601,10.9687,11.0898,11.1484,11.4414,11.4883,11.4804,11.6211,11.539,11.3906,11.3008,11.1718,11.039,10.9687,10.9297,10.8906,10.8008,10.6484,10.5117,10.4219,10.3398,10.289,10.289,10.2187,10.1015,9.9289,9.5504,9.1834,8.9092,0.0,8.789,8.7344,9.1289,9.3828,9.3359,9.3554,9.3711,9.3789,9.1562,9.0937,9.2617,9.3836,9.4688,9.5159,9.6353,9.8117,10.0409,9.9006,9.9026,10.0393,9.8873,9.8536,9.9194,9.931,9.986,10.0586,10.0315,10.0795,10.171,10.219,10.2404,10.2404,10.252,10.252,10.2289,10.1597,10.1279,10.1394,11.6682,11.6682,11.6409,11.55,11.5291,11.5099,11.4714,11.4599,11.4714,11.5099,11.561,11.5918,11.5918,11.6984,11.811,11.8909,12.0412,12.1411,12.1579,12.0703,11.9989,11.9609,11.8398,11.7695,11.7695,11.6797,11.6286,11.6188,11.5505,11.4804,11.3906,11.3008,11.1484,10.9414,10.8906,10.7695,10.6093,10.6093,10.5898,10.5508,10.5508,10.5508,10.5508,10.5117,10.4883,10.5,10.5781,10.6406,10.7187,10.9218,11.0508,11.1601,11.3203,11.4297,11.5312,11.6093,11.5508,11.4297,11.3398,11.2617,11.1914,11.1484,11.0703,10.9883,10.9492,10.7695,10.6015,10.5586,10.4492,10.3594,10.3594,10.2109,10.0507,9.9216,9.4175,0.0,0.0,8.8472,8.8199,9.0664,9.3476,9.5586,9.6562,9.582,9.5078,9.4531,9.3008,9.2812,9.4492,9.558,9.7118,9.9246,9.9127,9.9468,10.0417,9.9674,9.9674,10.0417,9.8822,9.8288,9.8632,9.8632,9.9104,9.9939,10.0187,10.0694,10.1487,10.2309,10.2289,10.202,10.2904,10.2981,10.2597,10.2712,10.2712,10.2789,11.6495,11.6495,11.6187,11.5187,11.4984,11.4714,11.3791,11.3714,11.3791,11.3984,11.4791,11.5291,11.5291,11.6792,11.8201,11.9206,12.0497,12.1681,12.2694,12.1592,12.0586,11.9883,11.8711,11.8086,11.8281,11.7383,11.7109,11.7304,11.6289,11.539,11.4804,11.3711,11.2383,11.0898,11.0195,10.8906,10.7304,10.7304,10.6914,10.6406,10.6211,10.6211,10.6289,10.5898,10.5781,10.5898,10.6484,10.7109,10.789,10.8906,11.0312,11.1718,11.2109,11.3711,11.5508,11.5703,11.5195,11.4297,11.3203,11.3008,11.3203,11.289,11.1914,11.0898,11.0898,10.8984,10.7187,10.6992,10.5781,10.4687,10.4492,10.25,10.0508,9.9218,0.0,9.042,0.0,8.9525,8.9719,9.3711,9.5312,9.6836,9.8828,9.7851,9.6445,9.4883,9.5156,9.5664,9.6367,9.7665,9.9682,10.2395,10.17,10.0998,10.0683,10.0491,10.0298,10.0106,9.8767,9.8107,9.8107,9.8339,9.8795,9.9437,10.0101,10.0712,10.1394,10.2212,10.2289,10.202,10.3212,10.3405,10.3212,10.3482,10.3712,10.3905,11.6495,11.6495,11.5995,11.4407,11.4099,11.3791,11.2896,11.2791,11.3099,11.3907,11.4791,11.5291,11.5291,11.6792,11.8121,11.8682,12.0316,12.1596,12.2184,12.1406,12.0898,12.0781,11.8398,11.75,11.8281,11.7383,11.7383,11.8203,11.6484,11.5703,11.5703,11.3984,11.2695,11.1797,11.1718,11.0703,10.9101,10.9101,10.9101,10.8906,10.8086,10.8281,10.8789,10.7187,10.6601,10.6601,10.6719,10.6719,10.7109,10.8711,10.9883,11.1015,11.2617,11.3789,11.4687,11.5508,11.5117,11.4101,11.25,11.2617,11.3008,11.2187,11.1914,11.1797,11.1797,11.039,10.8906,10.8086,10.7187,10.6289,10.5508,10.3906,10.1913,9.9405,0.0,0.0,9.163,9.3161,9.4687,9.5078,9.7226,9.8789,9.8984,9.8906,9.8437,9.75,9.8906,9.9844,9.9922,10.1093,10.2397,10.3704,10.3714,10.3213,10.2404,10.1597,10.0789,10.0106,9.9172,9.8729,9.8768,9.9576,9.9961,10.0115,10.0885,10.1202,10.1394,10.2212,10.302,10.3597,10.2981,10.3597,10.4713,10.3212,10.3212,10.3982,11.6495,11.6495,11.6099,11.4984,11.4407,11.3714,11.2791,11.2291,11.2291,11.3099,11.3984,11.4714,11.5215,11.6792,11.8015,11.8602,12.0294,12.1604,12.2186,12.1194,12.0213,11.9297,11.8281,11.8008,11.8281,11.8008,11.8008,11.8281,11.7617,11.6797,11.5703,11.5117,11.3711,11.1914,11.1914,11.1211,11.0117,11.0117,11.0117,11.0117,10.9687,10.9804,11.0,10.9414,10.9101,10.9101,10.9101,10.9101,10.9218,10.9883,11.0312,11.0781,11.1992,11.3008,11.3906,11.4687,11.4687,11.4414,11.3711,11.3789,11.3906,11.3593,11.3086,11.2812,11.3398,11.1718,11.0195,11.039,10.8906,10.7383,10.7109,10.5195,10.3398,10.2381,0.0,9.6797,9.6873,9.6367,9.6601,9.8164,9.9219,10.0,10.0586,10.0117,9.9687,9.9336,9.9922,10.0781,10.1914,10.4005,10.5805,10.7013,10.6482,10.5097,10.2597,10.1702,10.0904,10.0106,9.8673,9.798,9.8019,9.8913,9.9288,9.9375,10.0712,10.1279,10.1279,10.1712,10.2289,10.3097,10.3289,10.4097,10.5107,10.502,10.552,10.629,11.6412,11.6297,11.5919,11.5423,11.4791,11.3984,11.2906,11.2203,11.2022,11.2291,11.3291,11.4214,11.4791,11.6407,11.7608,11.8099,11.9519,12.0717,12.1584,12.0984,11.9807,11.8191,11.7918,11.7885,11.8281,11.8008,11.8008,11.8281,11.8008,11.7304,11.6093,11.5586,11.4414,11.2695,11.2383,11.1797,11.1015,11.1015,11.1015,11.1015,11.0703,11.0781,11.1015,11.0703,11.0586,11.0586,11.0586,11.0586,11.0586,11.0312,11.0586,11.1093,11.1406,11.2304,11.3281,11.3906,11.4101,11.4101,11.4101,11.4297,11.4609,11.4804,11.4218,11.3789,11.4414,11.289,11.1484,11.1797,11.0508,10.9101,10.878,10.6981,10.5418,10.4598,10.1902,10.011,10.0312,9.9258,9.9062,10.0508,10.0703,10.0898,10.1484,10.1094,10.0703,10.0703,10.1211,10.2301,10.4217,10.6591,10.8295,10.8898,10.8098,10.629,10.3405,10.252,10.1289,9.9683,9.8481,9.775,9.7519,9.8404,9.8942,9.9288,10.0712,10.152,10.1712,10.1712,10.2404,10.3405,10.3789,10.4597,10.5482,10.5905,10.6713,10.7713,11.6293,11.5791,11.5188,11.5306,11.5291,11.4714,11.2983,11.2714,11.2406,11.1588,11.2983,11.3984,11.3984,11.5484,11.6606,11.6994,11.7789,11.8883,12.03,12.0688,11.9989,11.7982,11.7117,11.7097,11.8281,11.75,11.7383,11.8281,11.7383,11.6992,11.6992,11.5312,11.4492,11.4492,11.3593,11.2695,11.1914,11.1914,11.1914,11.1797,11.1015,11.1093,11.1797,11.0898,11.0586,11.0586,11.0586,11.0586,11.0508,10.9609,11.0508,11.1718,11.0898,11.1797,11.3203,11.3203,11.3203,11.3203,11.3203,11.3906,11.4687,11.5508,11.5117,11.4492,11.4492,11.3789,11.3008,11.2109,11.1914,11.1597,11.0386,10.95,10.8092,10.5511,10.5001,10.3917,10.0819,10.1797,10.2617,10.1719,10.1601,10.1601,10.1601,10.1601,10.1601,10.1601,10.3203,10.5118,10.7101,10.8909,10.9512,10.8898,10.8098,10.6905,10.5097,10.4289,10.2212,9.8788,9.8788,9.8365,9.7557,9.8404,9.9298,10.0106,10.0981,10.1779,10.2597,10.2597,10.3597,10.4982,10.4212,10.4905,10.628,10.5405,10.6213,10.7713,11.6412,11.6309,11.6085,11.6115,11.5687,11.5099,11.4599,11.3984,11.3714,11.4099,11.4599,11.5099,11.5676,11.6187,11.6606,11.6994,11.8015,11.8887,11.9487,11.9695,11.9189,11.8018,11.7817,11.8003,11.8281,11.8008,11.8008,11.8281,11.8008,11.7617,11.6992,11.6484,11.5586,11.4492,11.4218,11.3593,11.289,11.3515,11.3398,11.2812,11.3203,11.3086,11.2812,11.25,11.2383,11.2383,11.2383,11.2383,11.2304,11.1406,11.1093,11.0898,11.0703,11.1406,11.2383,11.3008,11.3203,11.3515,11.4687,11.5195,11.539,11.5586,11.5586,11.5586,11.6093,11.5586,11.4883,11.4609,11.4101,11.351,11.2998,11.1688,11.0085,10.8087,10.6682,10.5207,10.3319,10.3008,10.2812,10.25,10.25,10.25,10.25,10.3086,10.3398,10.3398,10.5408,10.7292,10.8881,10.9786,11.0488,11.0696,10.929,10.7713,10.602,10.3982,10.1904,9.9721,9.9106,9.8673,9.8442,9.9298,9.9837,10.0106,10.0981,10.1779,10.2597,10.2597,10.3597,10.5107,10.4789,10.5405,10.6405,10.6097,10.7098,10.8482,11.64,11.6212,11.609,11.6412,11.611,11.5687,11.5291,11.4907,11.4599,11.4791,11.5099,11.5495,11.5995,11.6303,11.6599,11.6808,11.7991,11.8696,11.8709,11.9118,11.8984,11.8084,11.8198,11.8281,11.8281,11.8281,11.8281,11.8281,11.8281,11.8008,11.75,11.6797,11.6015,11.5,11.4297,11.3711,11.3281,11.4101,11.3984,11.3281,11.4101,11.3984,11.3203,11.3203,11.3203,11.3203,11.2812,11.2695,11.25,11.1289,11.0781,11.0703,11.1015,11.1718,11.25,11.3008,11.3398,11.3906,11.5,11.5508,11.5781,11.6093,11.6211,11.6406,11.6914,11.6289,11.5703,11.5703,11.5312,11.4917,11.4604,11.3407,11.1883,11.0199,10.848,10.6693,10.4999,10.3984,10.3281,10.289,10.289,10.3008,10.3398,10.3906,10.4492,10.5117,10.73,10.8916,10.9698,11.0616,11.1095,11.0994,10.9598,10.7905,10.5905,10.402,10.1904,9.9567,9.9413,9.9144,9.8827,9.9721,10.0298,10.0596,10.1481,10.2289,10.3097,10.3482,10.4212,10.5097,10.5482,10.5713,10.602,10.6713,10.779,10.8906,11.6305,11.5906,11.5598,11.6393,11.6495,11.6303,11.5484,11.5407,11.5099,11.4291,11.4907,11.5407,11.5407,11.611,11.6495,11.6495,11.7811,11.8394,11.7984,11.8893,11.9101,11.8281,11.8281,11.8281,11.8281,11.8281,11.8281,11.8281,11.8281,11.8281,11.8281,11.6601,11.5781,11.5703,11.4101,11.3281,11.3281,11.4218,11.4101,11.3281,11.4218,11.3984,11.3203,11.3086,11.3086,11.3008,11.2109,11.1797,11.1484,10.9883,10.9804,11.0586,11.1484,11.2383,11.3086,11.3281,11.3906,11.4492,11.4687,11.5312,11.6015,11.6914,11.7109,11.7109,11.7109,11.6484,11.6015,11.5898,11.5898,11.5894,11.5584,11.4818,11.3605,11.1885,11.0085,10.8098,10.5897,10.4883,10.3984,10.3203,10.3086,10.3398,10.4219,10.4414,10.5117,10.6718,10.8891,10.9986,10.9699,11.1,11.1214,11.0081,10.9213,10.7598,10.5107,10.4289,10.2289,9.9019,9.9837,9.9798,9.9058,9.9837,10.0596,10.152,10.2212,10.3097,10.4097,10.4713,10.5107,10.529,10.6097,10.5905,10.5405,10.7098,10.8213,10.8983,11.6511,11.6305,11.6297,11.6511,11.6495,11.6418,11.6303,11.6176,11.6187,11.5995,11.6099,11.6176,11.6176,11.6418,11.6495,11.6495,11.7182,11.7798,11.8194,11.8398,11.8515,11.8281,11.8281,11.8281,11.8281,11.8281,11.8281,11.8281,11.8281,11.8281,11.8281,11.7187,11.6406,11.5781,11.4687,11.3789,11.3281,11.4804,11.4609,11.3281,11.4883,11.4609,11.3086,11.2383,11.2187,11.2109,11.1211,11.0898,11.0703,10.9687,10.9414,10.9687,11.0586,11.1484,11.25,11.3789,11.4414,11.4804,11.6093,11.6601,11.6914,11.7812,11.8008,11.8008,11.8008,11.789,11.7812,11.7695,11.7695,11.7691,11.7417,11.6106,11.4503,11.2699,11.0397,10.8293,10.6717,10.5703,10.5117,10.5,10.4883,10.5,10.5195,10.5781,10.6518,10.7286,10.8887,10.9694,10.9487,11.0212,11.0107,10.9213,10.8406,10.6982,10.5107,10.4289,10.2789,10.0789,10.0894,10.0894,10.0789,10.1019,10.152,10.2289,10.1779,10.2789,10.4789,10.4289,10.4905,10.6087,10.628,10.629,10.6203,10.729,10.8213,10.9098,11.6495,11.6495,11.6495,11.6495,11.6495,11.6495,11.6495,11.6495,11.6495,11.6495,11.6495,11.6495,11.6495,11.6495,11.6605,11.671,11.7094,11.7616,11.8092,11.8199,11.8281,11.8281,11.8281,11.8281,11.8281,11.789,11.7695,11.7695,11.7695,11.75,11.6992,11.6601,11.6015,11.5117,11.4297,11.3593,11.3281,11.5,11.4687,11.3398,11.5117,11.4492,11.25,11.2109,11.1601,11.1211,11.0312,10.9687,10.9297,10.8789,10.8984,10.9492,11.0312,11.1211,11.2187,11.3984,11.4804,11.539,11.6601,11.7304,11.7695,11.8203,11.8281,11.8281,11.8281,11.8281,11.8281,11.8281,11.8281,11.8319,11.8102,11.6689,11.5088,11.3797,11.0985,10.8693,10.7499,10.6289,10.5508,10.5508,10.5508,10.5703,10.6015,10.671,10.7304,10.7598,10.84,10.911,10.9299,10.9504,10.9406,10.8906,10.8098,10.6905,10.5107,10.4723,10.3789,10.252,10.1712,10.1096,10.0712,10.1087,10.1789,10.2597,10.2597,10.3482,10.5107,10.5097,10.5405,10.579,10.6203,10.6087,10.5905,10.7213,10.8482,10.9713,11.6495,11.6495,11.6495,11.6495,11.6495,11.6495,11.6495,11.6495,11.6495,11.6303,11.6303,11.6298,11.6396,11.6491,11.6798,11.7104,11.7411,11.7582,11.7885,11.8193,11.8281,11.8281,11.8281,11.8281,11.8281,11.7304,11.6914,11.7187,11.6914,11.6484,11.5898,11.5586,11.5117,11.4492,11.3593,11.3203,11.3281,11.5,11.4687,11.3398,11.5117,11.4297,11.2109,11.1797,11.1093,11.0195,10.9218,10.8281,10.7617,10.7617,10.8203,10.9218,11.0117,11.1093,11.2304,11.4218,11.5195,11.5898,11.6914,11.7695,11.8281,11.8281,11.8281,11.8281,11.8281,11.8281,11.8281,11.8281,11.8281,11.8281,11.8281,11.6914,11.5508,11.4609,11.1797,10.9414,10.8593,10.7187,10.6289,10.6211,10.6015,10.6093,10.6599,10.7219,10.7493,10.7281,10.7811,10.8284,10.8791,10.88,10.8692,10.85,10.7884,10.6815,10.5197,10.5109,10.4723,10.3905,10.2597,10.1481,10.0798,10.1404,10.2212,10.3097,10.3597,10.4405,10.5405,10.5905,10.579,10.5405,10.6097,10.602,10.5482,10.7098,10.8713,11.0098,11.6495,11.6495,11.6495,11.6495,11.6495,11.6495,11.6495,11.6495,11.6303,11.561,11.5495,11.5601,11.5785,11.6698,11.7403,11.7693,11.7813,11.8004,11.8199,11.8281,11.8281,11.8281,11.8281,11.8281,11.8281,11.6718,11.6601,11.8086,11.6718,11.6289,11.6797,11.5312,11.4609,11.4492,11.3593,11.3203,11.3281,11.5,11.4687,11.3281,11.5,11.4609,11.289,11.1289,11.0195,10.9297,10.7617,10.6484,10.5781,10.5781,10.6914,10.8281,10.9218,11.0586,11.2383,11.4804,11.5586,11.6093,11.7695,11.8203,11.8281,11.8281,11.8281,11.8281,11.8281,11.8281,11.8281,11.8281,11.8281,11.8281,11.8281,11.6914,11.5508,11.4609,11.2812,11.1211,11.039,11.0117,10.9609,10.8906,10.8086,10.7299,10.6417,10.7095,10.7117,10.5915,10.7207,10.7688,10.6805,10.7701,10.7879,10.7105,10.6997,10.6417,10.5504,10.5215,10.4723,10.3905,10.4405,10.4222,10.3405,10.3482,10.3982,10.4713,10.4222,10.4789,10.6213,10.5482,10.5713,10.6203,10.6405,10.628,10.628,10.729,10.829,10.9213,11.6495,11.6495,11.6495,11.6495,11.6495,11.6495,11.6495,11.6495,11.6418,11.5995,11.5712,11.5792,11.64,11.7011,11.7491,11.7608,11.7803,11.8002,11.8088,11.8198,11.8281,11.8281,11.8281,11.8281,11.8281,11.7109,11.6797,11.7617,11.5898,11.5,11.4883,11.4609,11.4218,11.3789,11.3398,11.3203,11.3281,11.4492,11.4297,11.3281,11.5,11.4414,11.2383,11.1601,11.0195,10.8398,10.6601,10.5781,10.5508,10.5508,10.6015,10.6914,10.8711,10.9804,11.1093,11.4687,11.5781,11.6093,11.7812,11.8281,11.8281,11.8281,11.8281,11.8281,11.8281,11.8281,11.8281,11.8281,11.8281,11.8281,11.8281,11.6914,11.5586,11.5195,11.3281,11.1797,11.1406,11.0898,11.0508,11.0117,10.9687,10.9211,10.85,10.8717,10.8502,10.7688,10.82,10.8492,10.8493,10.8307,10.8121,10.8199,10.7403,10.6795,10.62,10.6086,10.5811,10.529,10.5713,10.5097,10.3905,10.4405,10.48,10.5107,10.4713,10.529,10.6405,10.602,10.6097,10.6395,10.6395,10.6395,10.651,10.7405,10.7905,10.8406]}]]